[[{"header":{"parameterUnit":"m.s-1","parameterCategory":1,"la1":30.6,"la2":29.2853,"lo1":-89.7004,"lo2":-87.6739,"dy":0.0162,"dx":0.0183,"nx":112,"ny":82,"refTime":"2024-07-11T06:00:00:Z","depth":0,"parameterNumber":2,"parameterNumberName":"U-component_of_WINDS"},"data":[0.0,0.0,0.0,0.0,0.0,0.0,0.0,0.0,0.0,0.0,0.0,0.0,0.0,0.0,0.0,0.0,0.0,0.0,0.0,0.0,0.0,0.0,0.0,0.0,0.0,0.0,0.0,0.0,0.0,0.0,0.0,0.0,0.0,0.0,0.0,0.0,0.0,0.0,0.0,0.0,0.0,0.0,0.0,0.0,0.0,0.0,0.0,0.0,0.0,0.0,0.0,0.0,0.0,0.0,0.0,0.0,0.0,0.0,0.0,0.0,0.0,0.0,0.0,0.0,0.0,0.0,0.0,0.0,0.0,0.0,0.0,0.0,0.0,0.0,0.0,0.0,0.0,0.0,0.0,0.0,0.0,0.0,0.0,0.0,0.0,0.0,0.0,0.0,0.0,0.0,-3.6666,-3.7584,-3.8285,-3.8707,-3.8707,-3.8559,-3.7752,-3.6024,0.0,0.0,0.0,0.0,0.0,0.0,0.0,0.0,0.0,0.0,0.0,0.0,0.0,0.0,0.0,0.0,0.0,0.0,0.0,0.0,0.0,0.0,0.0,0.0,0.0,0.0,0.0,0.0,0.0,0.0,0.0,0.0,0.0,0.0,0.0,0.0,0.0,0.0,0.0,0.0,0.0,0.0,0.0,0.0,0.0,0.0,0.0,0.0,0.0,0.0,0.0,0.0,0.0,0.0,0.0,0.0,0.0,0.0,0.0,0.0,0.0,0.0,0.0,0.0,0.0,0.0,0.0,0.0,0.0,0.0,0.0,0.0,0.0,0.0,0.0,0.0,0.0,0.0,0.0,0.0,0.0,0.0,0.0,0.0,0.0,0.0,0.0,0.0,0.0,0.0,0.0,0.0,0.0,0.0,0.0,0.0,0.0,0.0,0.0,0.0,0.0,0.0,0.0,0.0,-3.6926,-3.8358,-3.8634,-3.8707,-3.8707,-3.8512,-3.761,-3.569,0.0,0.0,0.0,0.0,0.0,0.0,0.0,0.0,0.0,0.0,0.0,0.0,0.0,0.0,0.0,0.0,0.0,0.0,0.0,0.0,0.0,0.0,0.0,0.0,0.0,0.0,0.0,0.0,0.0,0.0,0.0,0.0,0.0,0.0,0.0,0.0,0.0,0.0,0.0,0.0,0.0,0.0,0.0,0.0,0.0,0.0,0.0,0.0,0.0,0.0,0.0,0.0,0.0,0.0,0.0,0.0,0.0,0.0,0.0,0.0,0.0,0.0,0.0,0.0,0.0,0.0,0.0,0.0,0.0,0.0,0.0,0.0,0.0,0.0,0.0,0.0,0.0,0.0,0.0,0.0,0.0,0.0,0.0,0.0,0.0,0.0,0.0,0.0,0.0,0.0,0.0,0.0,0.0,0.0,0.0,0.0,0.0,0.0,0.0,0.0,0.0,0.0,0.0,-3.6526,-3.743,-3.8579,-3.8707,-3.8673,-3.8609,-3.8267,-3.7312,-3.5562,-3.4157,0.0,0.0,0.0,0.0,0.0,0.0,0.0,0.0,0.0,0.0,0.0,0.0,0.0,0.0,0.0,0.0,0.0,0.0,0.0,0.0,0.0,0.0,0.0,0.0,0.0,0.0,0.0,0.0,0.0,0.0,0.0,0.0,0.0,0.0,0.0,0.0,0.0,0.0,0.0,0.0,0.0,0.0,0.0,0.0,0.0,0.0,0.0,0.0,0.0,0.0,0.0,0.0,0.0,0.0,0.0,0.0,0.0,0.0,0.0,0.0,0.0,0.0,0.0,0.0,0.0,0.0,0.0,0.0,0.0,0.0,0.0,0.0,0.0,0.0,0.0,0.0,0.0,0.0,0.0,0.0,0.0,0.0,0.0,0.0,0.0,0.0,0.0,0.0,0.0,0.0,0.0,0.0,0.0,0.0,0.0,0.0,0.0,0.0,0.0,0.0,0.0,0.0,-3.7488,-3.7885,-3.8491,-3.8483,-3.8366,-3.8232,-3.7715,-3.6737,-3.5206,-3.3106,0.0,0.0,0.0,0.0,0.0,0.0,0.0,0.0,0.0,0.0,0.0,0.0,0.0,0.0,0.0,0.0,0.0,0.0,0.0,0.0,0.0,0.0,0.0,0.0,0.0,0.0,0.0,0.0,0.0,0.0,0.0,0.0,0.0,0.0,0.0,0.0,0.0,0.0,0.0,0.0,0.0,0.0,0.0,0.0,0.0,0.0,0.0,0.0,0.0,0.0,0.0,0.0,0.0,0.0,0.0,0.0,0.0,0.0,0.0,0.0,0.0,0.0,0.0,0.0,0.0,0.0,0.0,0.0,0.0,0.0,0.0,0.0,0.0,0.0,0.0,0.0,0.0,0.0,0.0,0.0,0.0,0.0,0.0,0.0,0.0,0.0,0.0,0.0,0.0,0.0,0.0,0.0,0.0,0.0,0.0,0.0,0.0,0.0,0.0,0.0,0.0,0.0,-3.7395,-3.808,-3.8135,-3.7809,-3.7524,-3.7397,-3.6665,-3.5664,-3.4352,-3.2104,0.0,0.0,0.0,0.0,0.0,0.0,0.0,0.0,0.0,0.0,0.0,0.0,0.0,0.0,0.0,0.0,0.0,0.0,0.0,0.0,0.0,0.0,0.0,0.0,0.0,0.0,0.0,0.0,0.0,0.0,0.0,0.0,0.0,0.0,0.0,0.0,0.0,0.0,0.0,0.0,0.0,0.0,0.0,0.0,0.0,0.0,0.0,0.0,0.0,0.0,0.0,0.0,0.0,0.0,0.0,0.0,0.0,0.0,0.0,0.0,0.0,0.0,0.0,0.0,0.0,0.0,0.0,0.0,0.0,0.0,0.0,0.0,0.0,0.0,0.0,0.0,0.0,0.0,0.0,0.0,0.0,0.0,0.0,0.0,0.0,0.0,0.0,0.0,0.0,0.0,0.0,0.0,0.0,0.0,0.0,0.0,0.0,0.0,0.0,0.0,0.0,0.0,-3.6785,-3.7457,0.0,-3.7596,-3.7237,-3.661,-3.6049,-3.5044,-3.3485,0.0,0.0,0.0,0.0,0.0,0.0,0.0,0.0,0.0,0.0,0.0,0.0,0.0,0.0,0.0,0.0,0.0,0.0,0.0,0.0,0.0,0.0,0.0,0.0,0.0,0.0,0.0,0.0,0.0,0.0,0.0,0.0,0.0,0.0,0.0,0.0,0.0,0.0,0.0,0.0,0.0,0.0,0.0,0.0,0.0,0.0,0.0,0.0,0.0,0.0,0.0,0.0,0.0,0.0,0.0,0.0,0.0,0.0,0.0,0.0,0.0,0.0,0.0,0.0,0.0,0.0,0.0,0.0,0.0,0.0,0.0,0.0,0.0,0.0,0.0,0.0,0.0,0.0,0.0,0.0,0.0,0.0,0.0,0.0,0.0,0.0,0.0,0.0,0.0,0.0,0.0,0.0,0.0,0.0,0.0,0.0,0.0,0.0,0.0,0.0,0.0,0.0,-3.5457,-3.6204,-3.6665,0.0,-3.6605,-3.6085,-3.5406,-3.4855,-3.3926,-3.2441,0.0,0.0,0.0,0.0,0.0,0.0,0.0,0.0,0.0,0.0,0.0,0.0,0.0,0.0,0.0,0.0,0.0,0.0,0.0,0.0,0.0,0.0,0.0,0.0,0.0,0.0,0.0,0.0,0.0,0.0,0.0,0.0,0.0,0.0,0.0,0.0,0.0,0.0,0.0,0.0,0.0,0.0,0.0,0.0,0.0,0.0,0.0,0.0,0.0,0.0,0.0,0.0,0.0,0.0,0.0,0.0,0.0,0.0,0.0,0.0,0.0,0.0,0.0,0.0,0.0,0.0,0.0,0.0,0.0,0.0,0.0,0.0,0.0,0.0,0.0,0.0,0.0,0.0,0.0,0.0,0.0,0.0,0.0,0.0,0.0,0.0,0.0,0.0,0.0,0.0,0.0,0.0,0.0,0.0,0.0,0.0,0.0,0.0,0.0,0.0,0.0,0.0,-3.5447,-3.5741,-3.5778,-3.5778,-3.4651,-3.3842,-3.3704,-3.2957,-3.2108,0.0,0.0,0.0,0.0,0.0,0.0,0.0,0.0,0.0,0.0,0.0,0.0,0.0,0.0,0.0,0.0,0.0,0.0,0.0,0.0,0.0,0.0,0.0,0.0,0.0,0.0,0.0,0.0,0.0,0.0,0.0,0.0,0.0,0.0,0.0,0.0,0.0,0.0,0.0,0.0,0.0,0.0,0.0,0.0,0.0,0.0,0.0,0.0,0.0,0.0,0.0,0.0,0.0,0.0,0.0,0.0,0.0,0.0,0.0,0.0,0.0,0.0,0.0,0.0,0.0,0.0,0.0,0.0,0.0,0.0,0.0,0.0,0.0,0.0,0.0,0.0,0.0,0.0,0.0,0.0,0.0,0.0,0.0,0.0,0.0,0.0,0.0,0.0,0.0,0.0,0.0,0.0,0.0,0.0,0.0,0.0,0.0,0.0,0.0,0.0,0.0,0.0,0.0,-3.3221,-3.4216,-3.4763,-3.4488,-3.4077,-3.357,-3.2906,-3.2627,-3.1905,-3.0514,0.0,0.0,0.0,0.0,0.0,0.0,0.0,0.0,0.0,0.0,0.0,0.0,0.0,0.0,0.0,0.0,0.0,0.0,0.0,0.0,0.0,0.0,0.0,0.0,0.0,0.0,0.0,0.0,0.0,0.0,0.0,0.0,0.0,0.0,0.0,0.0,0.0,0.0,0.0,0.0,0.0,0.0,0.0,0.0,0.0,0.0,0.0,0.0,0.0,0.0,0.0,0.0,0.0,0.0,0.0,0.0,0.0,0.0,0.0,0.0,0.0,0.0,0.0,0.0,0.0,0.0,0.0,0.0,0.0,0.0,0.0,0.0,0.0,0.0,0.0,0.0,0.0,0.0,0.0,0.0,0.0,0.0,0.0,0.0,0.0,0.0,0.0,0.0,0.0,0.0,0.0,0.0,0.0,0.0,0.0,0.0,0.0,0.0,0.0,0.0,0.0,0.0,-3.2178,-3.3135,-3.3654,-3.3396,-3.302,-3.2582,-3.2083,-3.199,-3.1421,-3.0101,0.0,0.0,0.0,0.0,0.0,0.0,0.0,0.0,0.0,0.0,0.0,0.0,0.0,0.0,0.0,0.0,0.0,0.0,0.0,0.0,0.0,0.0,0.0,0.0,0.0,0.0,0.0,0.0,0.0,0.0,0.0,0.0,0.0,0.0,0.0,0.0,0.0,0.0,0.0,0.0,0.0,0.0,0.0,0.0,0.0,0.0,0.0,0.0,0.0,0.0,0.0,0.0,0.0,0.0,0.0,0.0,0.0,0.0,0.0,0.0,0.0,0.0,0.0,0.0,0.0,0.0,0.0,0.0,0.0,0.0,0.0,0.0,0.0,0.0,0.0,0.0,0.0,0.0,0.0,0.0,0.0,0.0,0.0,0.0,0.0,0.0,0.0,0.0,0.0,0.0,0.0,0.0,0.0,0.0,0.0,0.0,0.0,0.0,0.0,0.0,0.0,0.0,-3.1847,-3.2195,-3.2386,-3.2386,-3.1657,-3.1174,-3.1174,-3.1179,-3.0811,-2.9938,0.0,0.0,0.0,0.0,0.0,0.0,0.0,0.0,0.0,0.0,0.0,0.0,0.0,0.0,0.0,0.0,0.0,0.0,0.0,0.0,0.0,0.0,0.0,0.0,0.0,0.0,0.0,0.0,0.0,0.0,0.0,0.0,0.0,0.0,0.0,0.0,0.0,0.0,0.0,0.0,0.0,0.0,0.0,0.0,0.0,0.0,0.0,0.0,0.0,0.0,0.0,0.0,0.0,0.0,0.0,0.0,0.0,0.0,0.0,0.0,-3.5254,0.0,0.0,0.0,0.0,0.0,0.0,0.0,0.0,0.0,0.0,0.0,0.0,0.0,0.0,0.0,0.0,0.0,0.0,0.0,0.0,0.0,0.0,0.0,0.0,0.0,0.0,0.0,0.0,0.0,0.0,0.0,0.0,0.0,0.0,0.0,0.0,0.0,0.0,0.0,0.0,0.0,-2.9972,-3.0409,-3.0702,-3.0702,-3.0508,-3.0366,-3.0366,-3.0774,-3.0715,-2.9938,-2.9044,0.0,0.0,0.0,0.0,0.0,0.0,0.0,0.0,0.0,0.0,0.0,0.0,0.0,0.0,0.0,0.0,0.0,0.0,0.0,0.0,0.0,0.0,0.0,0.0,0.0,0.0,0.0,0.0,0.0,0.0,0.0,0.0,0.0,0.0,0.0,0.0,0.0,0.0,0.0,0.0,0.0,0.0,0.0,0.0,0.0,0.0,0.0,0.0,0.0,0.0,0.0,0.0,0.0,0.0,0.0,0.0,0.0,0.0,0.0,0.0,-3.5396,0.0,0.0,0.0,0.0,0.0,0.0,0.0,0.0,0.0,0.0,0.0,0.0,0.0,0.0,0.0,0.0,0.0,0.0,0.0,0.0,0.0,0.0,0.0,0.0,0.0,0.0,0.0,0.0,0.0,0.0,0.0,0.0,0.0,0.0,0.0,0.0,0.0,0.0,0.0,0.0,-2.9298,-2.9802,-3.0149,-3.0149,-3.011,-3.0205,-3.0521,-3.0833,-3.0787,-3.0322,-2.9485,0.0,0.0,0.0,0.0,0.0,0.0,0.0,0.0,0.0,0.0,0.0,0.0,0.0,0.0,0.0,0.0,0.0,0.0,0.0,0.0,0.0,0.0,0.0,0.0,0.0,0.0,0.0,0.0,0.0,0.0,0.0,0.0,0.0,0.0,0.0,0.0,0.0,0.0,0.0,0.0,0.0,0.0,0.0,0.0,0.0,0.0,0.0,0.0,0.0,0.0,0.0,0.0,0.0,-3.5389,-3.519,-3.5096,-3.4879,-3.4956,-3.5231,-3.4456,-3.485,-3.5958,0.0,0.0,0.0,0.0,0.0,0.0,0.0,0.0,0.0,0.0,0.0,0.0,0.0,0.0,0.0,0.0,0.0,0.0,0.0,0.0,0.0,0.0,0.0,0.0,0.0,-3.5684,-3.4776,0.0,0.0,0.0,0.0,0.0,0.0,0.0,0.0,0.0,0.0,0.0,0.0,-2.9175,-2.9473,-2.9734,-2.9888,-2.9922,-3.0135,-3.0763,-3.0928,-3.0895,-3.0712,-2.9952,-2.8867,0.0,0.0,0.0,0.0,0.0,0.0,0.0,0.0,0.0,0.0,0.0,0.0,0.0,0.0,0.0,0.0,0.0,0.0,0.0,0.0,0.0,0.0,0.0,0.0,0.0,0.0,0.0,0.0,0.0,0.0,0.0,0.0,-2.7426,-2.9065,0.0,0.0,0.0,0.0,0.0,0.0,0.0,0.0,0.0,0.0,0.0,0.0,0.0,0.0,-3.662,-3.6639,-3.6599,-3.6519,-3.5806,-3.532,-3.5096,-3.4841,-3.4586,-3.4344,-3.4004,0.0,-3.5117,-3.5597,0.0,0.0,0.0,0.0,0.0,0.0,0.0,0.0,0.0,0.0,0.0,0.0,0.0,0.0,0.0,0.0,0.0,0.0,0.0,0.0,0.0,0.0,-3.6199,-3.6254,-3.6025,-3.5609,0.0,-3.3527,-3.2474,-3.2685,0.0,0.0,0.0,0.0,0.0,0.0,0.0,0.0,-2.9102,-2.8521,-2.8365,-2.9077,-2.9145,-2.9377,-2.9991,-3.0586,-3.0851,-3.0712,-2.9729,-2.905,-2.8829,-2.6841,0.0,0.0,0.0,0.0,0.0,0.0,0.0,0.0,0.0,0.0,0.0,0.0,0.0,0.0,0.0,0.0,0.0,0.0,0.0,0.0,0.0,0.0,0.0,0.0,0.0,0.0,0.0,0.0,0.0,-2.7914,-2.9085,-3.0803,-3.1066,-3.1269,0.0,0.0,0.0,0.0,0.0,0.0,0.0,0.0,0.0,-3.5742,-3.6568,-3.7167,-3.746,-3.7459,-3.7214,-3.6692,-3.6072,-3.5454,-3.4851,-3.4431,-3.4148,-3.3974,-3.3855,-3.3954,-3.4209,-3.4556,-3.4484,-3.4146,0.0,0.0,0.0,0.0,0.0,-3.3713,-3.3352,-3.3608,0.0,0.0,0.0,0.0,0.0,0.0,0.0,0.0,0.0,0.0,0.0,0.0,0.0,-3.5845,-3.5409,-3.4911,-3.516,-3.4005,-3.2876,0.0,-3.2216,-3.1458,-3.0508,0.0,0.0,0.0,0.0,-2.9101,-2.9085,-2.8742,-2.8584,-2.8868,-2.9256,-2.9719,-3.0302,-3.061,-3.0671,-3.0443,-2.9978,-2.9412,-2.8731,-2.7793,-2.6623,0.0,0.0,0.0,0.0,0.0,0.0,0.0,0.0,0.0,0.0,0.0,0.0,0.0,0.0,0.0,0.0,0.0,0.0,0.0,0.0,0.0,0.0,0.0,0.0,0.0,0.0,0.0,0.0,-2.9494,-3.0627,-3.2542,-3.3139,-3.3457,0.0,0.0,0.0,0.0,0.0,0.0,-3.4974,-3.5646,-3.6383,-3.7179,-3.7997,-3.8407,-3.8332,-3.833,-3.7892,-3.7019,-3.6384,-3.5589,-3.4674,-3.4208,-3.3902,-3.3807,-3.3793,-3.3712,-3.3623,-3.3824,-3.4076,-3.4316,-3.3813,-3.3421,-3.3101,-3.3055,-3.3165,-3.3342,-3.3158,-3.3733,-3.4292,-3.2944,0.0,-3.2936,-3.1742,0.0,0.0,0.0,0.0,-3.3561,-3.3879,0.0,-3.3583,-3.4771,-3.4012,-3.3269,-3.4249,-3.3608,-3.2818,0.0,-3.2581,-3.2108,-3.1081,0.0,0.0,0.0,0.0,-2.9012,-2.9031,-2.8636,-2.8394,-2.8471,-2.9143,-2.9825,-3.0362,-3.0534,-3.0468,-3.021,-3.0081,-2.9621,-2.8724,-2.8603,-2.7683,-2.5844,0.0,0.0,0.0,0.0,0.0,0.0,0.0,0.0,0.0,0.0,0.0,0.0,0.0,0.0,0.0,0.0,0.0,0.0,0.0,0.0,0.0,0.0,0.0,0.0,0.0,0.0,0.0,0.0,0.0,-3.4265,-3.3825,0.0,0.0,0.0,0.0,-3.4381,-3.4376,-3.5046,-3.669,-3.6826,-3.7203,-3.8009,-3.889,-3.9292,-3.9246,-3.9227,-3.8796,-3.793,-3.6818,-3.5723,-3.4684,-3.4345,-3.4043,-3.3807,-3.3739,-3.3657,-3.366,-3.4411,-3.4233,-3.3523,-3.4055,-3.3779,-3.3086,-3.2963,-3.3398,-3.3967,-3.3324,-3.362,-3.4222,-3.3548,-3.285,-3.2248,-3.2176,-3.2176,0.0,0.0,-3.3027,-3.438,-3.3704,-3.3002,-3.2564,-3.2952,-3.1642,-3.0705,-3.213,-3.1836,-3.1715,0.0,-3.2801,-3.2297,-3.2229,0.0,-3.1159,-3.1159,-2.9812,-2.8811,-2.8811,-2.7528,-2.6889,-2.7576,-2.833,-2.8994,-2.9596,-3.0059,-3.0284,-3.021,-2.9782,-2.9499,-2.9445,-2.8599,-2.8069,-2.7936,-2.6066,0.0,0.0,0.0,0.0,0.0,0.0,0.0,0.0,0.0,0.0,0.0,0.0,0.0,0.0,0.0,0.0,0.0,0.0,0.0,0.0,0.0,0.0,0.0,0.0,0.0,0.0,0.0,0.0,-3.5286,-3.5193,0.0,-3.5468,-3.5068,-3.4921,-3.5308,-3.5747,-3.6265,-3.6864,-3.7924,-3.8646,-3.8929,-3.973,-4.0137,-4.0073,-4.0073,-3.9635,-3.877,-3.7499,-3.6393,-3.5442,-3.4414,-3.3889,-3.3807,-3.3726,-3.3657,-3.3609,-3.3724,-3.3536,-3.3229,-3.3438,-3.321,-3.2768,-3.2721,-3.2882,-3.3094,-3.2859,-3.34,-3.4155,-3.4027,-3.3518,-3.2977,-3.2977,-3.2977,-3.2885,-3.2434,-3.27,-3.2888,-3.1829,-3.1249,-3.0928,-3.0959,-3.0093,-2.9538,-3.0477,-3.0491,-3.0454,-3.0975,-3.1365,-3.1599,-3.1599,-3.13,-3.0923,-3.0434,-2.9431,-2.855,-2.8098,-2.756,-2.7272,-2.7451,-2.8133,-2.881,-2.941,-2.9506,-2.9464,-2.9311,-2.8973,-2.8541,-2.7995,-2.7617,-2.7225,-2.6751,-2.6483,-2.5535,0.0,0.0,0.0,0.0,0.0,0.0,0.0,0.0,0.0,0.0,0.0,0.0,0.0,0.0,0.0,0.0,0.0,0.0,0.0,0.0,0.0,0.0,0.0,0.0,0.0,0.0,-3.4371,-3.5836,-3.5936,-3.5932,-3.5996,-3.5829,-3.5733,-3.5786,-3.6478,-3.7038,-3.7328,-3.8646,-3.9522,-3.9797,-4.0314,-4.0573,-4.0496,-4.0496,-4.0018,-3.9059,-3.8068,-3.6963,-3.5732,-3.4683,-3.405,-3.3766,-3.3698,-3.3633,-3.3549,-3.3283,-3.3052,-3.2864,-3.2816,-3.2654,-3.2454,-3.2386,-3.2438,-3.254,-3.2589,-3.3075,-3.3718,-3.3813,-3.3548,-3.3244,-3.3244,-3.315,-3.2959,-3.2554,-3.2317,-3.19,-3.06,-3.002,-2.9673,-2.9233,-2.8572,-2.8217,-2.8919,-2.9049,-2.9133,-2.9384,-3.032,-3.1092,-3.1092,-3.1032,-3.0787,-3.032,-2.9317,-2.8457,-2.7972,-2.7452,-2.7063,-2.6917,-2.7545,-2.8216,-2.8787,-2.8841,-2.8913,-2.9044,-2.858,-2.8027,-2.7462,-2.7225,-2.6878,-2.6388,-2.6609,-2.604,-2.4618,0.0,0.0,0.0,0.0,0.0,0.0,0.0,0.0,0.0,0.0,0.0,0.0,0.0,0.0,0.0,0.0,0.0,0.0,0.0,0.0,0.0,0.0,0.0,-3.458,-3.4719,-3.5055,-3.5897,-3.5935,-3.5931,-3.5996,-3.5824,-3.5733,-3.5786,-3.6478,-3.7284,-3.8154,-3.8955,-3.9773,-4.0575,-4.061,-4.0565,-4.0496,-4.0496,-3.9942,-3.8833,-3.8496,-3.737,-3.5529,-3.5132,-3.4504,-3.3698,-3.3633,-3.3563,-3.3462,-3.3193,-3.2798,-3.2368,-3.2266,-3.2197,-3.2162,-3.1966,-3.2073,-3.237,-3.2469,-3.265,-3.2829,-3.2813,-3.283,-3.2864,-3.2848,-3.2636,-3.2317,-3.1984,-3.1914,-3.1616,-3.0131,-2.9448,-2.8884,-2.7817,-2.7005,-2.6703,-2.739,-2.7558,-2.7792,-2.8529,-2.9853,-3.0858,-3.0858,-3.0875,-3.0892,-3.0858,-2.9502,0.0,-2.8474,-2.7118,-2.6114,-2.5934,-2.652,-2.7147,-2.7644,-2.811,-2.8654,-2.9349,-2.8567,-2.8047,-2.8031,-2.7415,-2.7099,-2.713,-2.6419,-2.604,-2.6072,0.0,0.0,0.0,0.0,0.0,0.0,0.0,0.0,0.0,0.0,0.0,0.0,0.0,0.0,0.0,0.0,0.0,0.0,0.0,0.0,0.0,0.0,-3.3709,-3.4587,-3.5233,-3.5722,-3.5976,-3.5931,-3.5927,-3.5996,-3.5824,-3.5733,-3.5786,-3.6478,-3.7278,-3.8143,-3.8955,-3.9771,-4.0564,-4.0546,-4.0523,-4.0496,-4.0496,-4.0213,-3.9661,-3.8233,-3.7126,-3.6316,-3.48,-3.3968,-3.3698,-3.3633,-3.3473,-3.3268,-3.3039,-3.2537,-3.1914,-3.2109,-3.1984,-3.1691,-3.1635,-3.1439,-3.1168,-3.0662,-3.0717,-3.0987,-3.0778,-3.131,-3.1963,-3.1574,-3.1877,-3.2266,-3.1638,-3.1133,-3.0462,-2.9204,-2.8448,-2.7819,-2.6885,-2.6498,-2.6396,-2.6542,-2.7007,-2.7441,-2.7657,-2.8835,-2.9872,-3.0065,-3.046,-3.0569,-3.0036,-2.9071,0.0,-2.7493,-2.6582,-2.5952,-2.5915,-2.595,-2.6319,-2.713,-2.7485,-2.755,-2.7272,-2.7344,-2.7146,-2.6609,-2.6404,-2.6783,-2.781,-2.7146,-2.7036,0.0,0.0,0.0,0.0,0.0,0.0,0.0,0.0,0.0,0.0,0.0,0.0,0.0,0.0,0.0,0.0,0.0,0.0,0.0,0.0,0.0,0.0,-3.3436,-3.4667,-3.5175,-3.5371,-3.5586,-3.5957,-3.5642,-3.5562,-3.5957,-3.5878,-3.5797,-3.5791,-3.6518,-3.7309,-3.8157,-3.8961,-3.9776,-4.0569,-4.0531,-4.0496,-4.0496,-4.0135,-3.9731,-3.9309,-3.7845,-3.674,-3.594,-3.4779,-3.4037,0.0,-3.3591,-3.3401,-3.3111,-3.2491,-3.2019,0.0,0.0,0.0,0.0,0.0,-3.0672,-3.011,-2.9679,-2.9693,-2.9857,-2.9708,-3.012,-3.0636,-3.0334,-3.0543,-3.0783,-3.0362,-2.9888,-2.9269,-2.8246,-2.767,-2.7155,-2.6424,-2.6188,-2.6117,-2.6079,-2.6409,-2.6687,-2.6597,0.0,0.0,-2.848,-2.9363,-2.9877,-2.9466,-2.8418,-2.7492,-2.6951,-2.6227,-2.5733,-2.5659,-2.5546,-2.5763,-2.6509,-2.6718,0.0,0.0,0.0,-2.6451,-2.6024,-2.5724,0.0,0.0,0.0,0.0,0.0,0.0,0.0,0.0,-2.7032,-2.7103,0.0,0.0,0.0,0.0,0.0,0.0,0.0,0.0,0.0,0.0,0.0,0.0,0.0,0.0,0.0,0.0,-3.4277,-3.5859,-3.5859,-3.5098,-3.4902,-3.5879,-3.5312,-3.5156,-3.5918,-3.5948,-3.5882,-3.5824,-3.6467,-3.7259,-3.8156,0.0,0.0,0.0,0.0,-4.0458,-4.0362,-3.9592,-3.8867,-3.8244,-3.7374,-3.6279,-3.499,-3.4838,-3.4333,-3.3591,-3.3506,-3.3331,-3.2986,-3.1858,-3.1428,-3.1445,-3.1329,-3.1077,-3.0757,-3.0238,-2.9635,0.0,0.0,0.0,0.0,-2.9006,-2.9075,-2.9144,-2.9073,-2.8911,-2.8758,-2.8686,-2.8481,-2.8089,-2.7408,-2.7045,-2.6738,-2.6261,-2.6005,-2.5879,-2.5879,-2.5879,-2.5807,-2.5624,-2.6189,-2.6711,-2.6711,-2.796,-2.8944,-2.8944,-2.7675,0.0,-2.6672,-2.6021,-2.5508,-2.5314,0.0,0.0,-2.5876,-2.5961,-2.6225,-2.6809,-2.6283,-2.5967,-2.5967,-2.5467,-2.5783,-2.7046,-2.6409,-2.6672,-2.7879,-2.761,-2.754,-2.7678,-2.7665,-2.7557,0.0,0.0,0.0,0.0,0.0,0.0,0.0,0.0,0.0,0.0,0.0,0.0,0.0,0.0,0.0,-3.3046,-3.416,-3.4941,-3.4941,-3.4199,-3.4238,-3.5801,-3.5859,-3.5801,-3.5976,-3.5948,-3.5892,-3.5885,-3.5921,-3.66,-3.8119,-3.8241,0.0,-4.0466,-4.0516,-4.0189,-3.9534,-3.9304,-3.859,-3.7346,0.0,0.0,-3.4897,-3.4224,-3.3775,-3.3506,-3.3327,-3.3147,-3.2898,-3.2279,-3.1232,-2.9998,-2.9855,-2.9772,-2.9546,-2.8346,-2.7836,-2.771,-2.7264,-2.7148,-2.7199,-2.7148,-2.7674,-2.822,-2.7629,-2.7973,0.0,-2.8106,-2.7653,-2.7197,-2.6899,-2.6479,-2.6059,-2.578,-2.5694,-2.5661,-2.5661,-2.5661,-2.5659,-2.5605,-2.6189,-2.6711,-2.6711,-2.7449,-2.8038,-2.8038,-2.7283,-2.6633,-2.6471,-2.5805,-2.5352,-2.5314,-2.5143,-2.5167,-2.5408,-2.5794,-2.5794,-2.5282,-2.5566,-2.5759,-2.5759,-2.615,-2.6547,-2.6916,-2.6688,-2.6567,-2.6586,-2.708,-2.7003,-2.6391,-2.7136,-2.7524,0.0,0.0,0.0,0.0,0.0,0.0,0.0,0.0,0.0,0.0,0.0,-2.9863,-3.0742,0.0,-3.3066,-3.3906,-3.4414,-3.4707,-3.4707,-3.3945,-3.3711,-3.4609,-3.4336,-3.4434,-3.5273,-3.531,-3.5479,-3.5876,-3.5803,-3.6284,-3.7487,-3.7842,-3.8582,-3.9861,-3.9858,-3.9658,-3.9254,-3.8346,-3.742,-3.6484,-3.5587,-3.4852,-3.4265,-3.3812,-3.3563,-3.3495,-3.3253,-3.2742,-3.2017,-3.0837,-2.9677,-2.8602,-2.8217,-2.8066,-2.7968,-2.7262,-2.6789,-2.6467,-2.6196,-2.6136,-2.6137,-2.61,-2.6439,-2.6776,-2.6403,-2.6648,-2.7008,-2.6772,-2.6509,-2.6271,-2.6194,-2.5878,-2.56,-2.56,-2.5527,-2.5451,-2.5451,-2.5451,-2.5432,-2.532,-2.5605,-2.5846,-2.5846,-2.6154,-2.6563,-2.7018,-2.639,-2.5806,-2.5723,-2.5381,-2.5158,-2.5158,-2.5045,-2.5025,-2.5143,-2.5318,-2.5224,-2.4833,-2.5014,-2.5316,-2.5665,-2.5431,-2.55,-2.5942,-2.5282,-2.5031,-2.5191,-2.539,-2.5449,-2.5383,-2.6079,-2.7047,0.0,0.0,0.0,0.0,0.0,0.0,0.0,0.0,-2.8809,-2.9668,-2.9844,-3.0332,-3.1914,-3.2851,-3.3691,-3.4551,-3.4707,-3.4648,-3.4473,-3.3711,-3.3105,-3.293,-3.2637,-3.3027,-3.4551,-3.4707,-3.5038,-3.5863,-3.5831,-3.6117,-3.6871,-3.7443,-3.8152,-3.9,-3.8969,-3.8877,-3.8696,-3.7242,-3.6234,-3.5641,-3.4761,-3.4105,-3.3671,-3.3549,-3.3462,-3.3404,-3.2924,-3.2083,-3.092,-2.9216,-2.8072,-2.7385,-2.6859,-2.6532,-2.6383,-2.6461,-2.6088,-2.5565,-2.5586,-2.5567,-2.5565,-2.5586,-2.5605,-2.5586,-2.5543,-2.5543,-2.553,-2.5492,-2.5511,-2.553,-2.5492,-2.5394,-2.5333,-2.5454,-2.5355,-2.5236,-2.5236,-2.5236,-2.5182,-2.5025,-2.5005,-2.5005,-2.5005,-2.5005,-2.527,-2.6003,-2.5469,-2.5005,-2.5005,-2.5005,-2.5005,-2.5005,-2.4906,-2.4771,-2.4655,-2.4609,-2.4564,-2.4467,-2.4328,-2.4533,-2.513,-2.421,-2.3986,-2.4601,-2.3637,-2.3377,-2.3839,-2.3705,-2.3885,-2.4324,-2.4894,-2.6273,-2.5679,-2.5681,-2.5877,-2.6658,-2.6931,-2.7419,0.0,0.0,-2.9707,-3.0566,-3.0742,-3.1055,-3.2012,-3.2851,-3.3691,-3.4551,-3.4707,-3.4434,-3.3652,-3.2851,-3.2051,-3.1269,-3.2402,-3.3633,-3.4609,-3.4707,-3.5058,-3.5916,-3.5819,-3.6082,-3.6938,-3.6895,-3.7224,-3.804,-3.8051,-3.7663,-3.6895,-3.6457,-3.5732,-3.4743,-3.4335,-3.3959,-3.3619,-3.3534,-3.3375,-3.3081,-3.1846,-3.0907,-3.0125,-2.8973,-2.7734,-2.6543,-2.6463,-2.5911,-2.5234,-2.5602,-2.5554,-2.5355,-2.553,-2.5473,-2.5355,-2.553,-2.5605,-2.5584,-2.5391,-2.5333,-2.5314,-2.5123,-2.5217,-2.5278,-2.5103,-2.5182,-2.5256,-2.5103,-2.5045,-2.5025,-2.5025,-2.5025,-2.5025,-2.5005,-2.5005,-2.5005,-2.5005,-2.5005,-2.5037,-2.5136,-2.5072,-2.5005,-2.5005,-2.5005,-2.5005,-2.5005,-2.4528,-2.3979,-2.3457,-2.3724,-2.3702,-2.3223,-2.3143,-2.312,-2.3215,-2.3075,-2.3083,-2.3216,-2.3016,-2.2791,-2.2505,-2.3174,-2.3348,-2.303,-2.3867,-2.5111,-2.5544,-2.5701,-2.5675,0.0,-2.5871,-2.6421,-2.7166,-2.8124,-2.9082,-2.9961,-3.0547,-3.1172,-3.2031,-3.2461,-3.3144,0.0,-3.3887,-3.3281,-3.3398,-3.2266,-3.1309,-3.0937,-3.1973,-3.3027,-3.3867,-3.3945,-3.4512,-3.5897,-3.5882,-3.593,-3.6239,-3.6566,-3.6883,-3.7187,-3.716,-3.6976,-3.6607,-3.5957,-3.5249,-3.4486,-3.4307,-3.3974,-3.3534,-3.336,-3.2883,-3.2054,-3.0171,-2.9315,-2.9093,-2.7361,-2.6444,-2.612,-2.5727,-2.5354,-2.5025,-2.5201,-2.5201,-2.5143,-2.522,-2.5201,-2.5143,-2.522,-2.5243,-2.524,-2.5143,-2.5139,-2.5119,-2.5025,-2.5045,-2.5119,-2.5025,-2.5045,-2.5103,-2.5025,-2.5005,-2.5005,-2.5005,-2.5005,-2.5005,-2.5005,-2.5005,-2.5005,-2.5005,-2.5005,-2.4966,-2.4902,-2.4946,-2.4966,-2.4902,-2.4866,-2.4846,-2.4786,-2.4549,-2.4168,-2.3651,-2.3724,-2.3573,-2.3024,-2.2942,-2.2889,-2.2889,-2.2655,-2.2518,-2.2535,-2.2203,-2.1945,-2.1779,-2.2114,-2.218,-2.2027,-2.2915,-2.3685,-2.5234,-2.5338,0.0,-2.4568,-2.4876,-2.5408,-2.5644,-2.6679,-2.7832,-2.8691,-2.9375,-3.0234,-3.1561,-3.1815,-3.2361,-3.4038,-3.3103,-3.2381,-3.2967,-3.1816,-3.0996,-3.123,-3.1816,-3.2617,-3.3652,-3.3535,-3.4121,-3.5877,-3.5476,-3.5316,-3.5671,-3.5933,-3.6138,-3.63,-3.627,-3.6222,-3.6181,-3.5448,-3.4822,-3.4364,-3.4237,-3.3793,-3.3107,-3.2559,-3.1887,-3.1016,-2.8936,-2.8114,-2.8119,-2.6108,-2.5481,-2.5677,-2.5191,-2.5005,-2.5005,-2.5005,-2.5005,-2.5005,-2.5005,-2.5005,-2.5005,-2.5005,-2.5005,-2.5005,-2.5005,-2.5005,-2.5005,-2.5005,-2.5005,-2.5005,-2.5005,-2.5005,-2.5005,-2.5005,-2.4966,-2.4946,-2.4946,-2.4906,-2.4886,-2.4886,-2.4886,-2.4886,-2.4886,-2.4886,-2.4866,-2.4746,-2.4826,-2.4846,-2.4762,-2.4645,-2.439,-2.4006,-2.4069,-2.39,-2.3245,-2.3312,-2.3135,-2.2575,-2.2512,-2.2503,-2.2503,-2.217,-2.1996,-2.1996,-2.1616,-2.1399,-2.1399,-2.1399,-2.1399,-2.1412,-2.2106,-2.2506,0.0,0.0,-2.4436,-2.4409,-2.4413,-2.4668,-2.5507,-2.5742,-2.6035,-2.6908,-2.7107,-2.787,-3.0376,-3.0841,-3.14,-3.307,-3.2641,-3.2112,-3.2131,-3.1423,-3.1211,-3.2051,-3.2187,-3.2851,0.0,-3.3906,-3.4121,-3.5875,-3.4315,-3.3997,-3.5605,-3.4722,-3.4534,-3.5315,-3.5346,-3.5286,-3.5158,-3.487,-3.4588,-3.4305,-3.3972,-3.3223,-3.2094,-3.0924,-3.0325,-3.0145,-2.8527,-2.7668,-2.7331,-2.5897,-2.5178,-2.5037,-2.5001,-2.5005,-2.5005,-2.5005,-2.5005,-2.5005,-2.5005,-2.5005,-2.5005,-2.5005,-2.5005,-2.5005,-2.5005,-2.5005,-2.5005,-2.5005,-2.5005,-2.5005,-2.5005,-2.5005,-2.5005,-2.5005,-2.4902,-2.4802,-2.4802,-2.4706,-2.4609,-2.4609,-2.4609,-2.4609,-2.4609,-2.4609,-2.4609,-2.4609,-2.4609,-2.4609,-2.4609,-2.4209,-2.3522,-2.2475,-2.2793,-2.262,-2.1578,-2.1959,-2.2006,-2.1482,-2.1447,-2.1447,-2.1447,-2.1423,-2.1423,-2.1423,-2.1423,-2.1399,-2.1399,-2.1399,-2.1399,-2.1399,-2.1437,-2.1762,-2.3617,0.0,-2.3397,-2.2822,-2.2667,-2.2742,-2.3049,-2.3538,-2.4164,-2.5033,-2.5679,-2.6672,-2.8642,-2.901,-2.9769,-3.2051,-3.1733,-3.1377,-3.1943,-3.1833,-3.1808,-3.2101,-3.3143,0.0,0.0,0.0,0.0,-3.5874,-3.4846,-3.4583,-3.5643,-3.5281,-3.511,-3.5296,-3.5266,-3.4917,-3.4234,-3.4726,-3.442,-3.3366,-3.2861,-3.2018,-3.0871,-2.9892,-2.9372,-2.9181,-2.7488,-2.6683,-2.6525,-2.5515,-2.5045,-2.5005,-2.5005,-2.5005,-2.4985,-2.4902,-2.4862,-2.4882,-2.4982,-2.5005,-2.5005,-2.5005,-2.5005,-2.5005,-2.5005,-2.5005,-2.5005,-2.5005,-2.4942,-2.4862,-2.4862,-2.4806,-2.4731,-2.4731,-2.469,-2.4666,-2.4666,-2.463,-2.4609,-2.4609,-2.4609,-2.4609,-2.4609,-2.4609,-2.4569,-2.4544,-2.4523,-2.4523,-2.4523,-2.4057,-2.3558,-2.3209,-2.3031,-2.2649,-2.1983,-2.2114,-2.1973,-2.1423,-2.1399,-2.1399,-2.1399,-2.1399,-2.1399,-2.1399,-2.1399,-2.1399,-2.1399,-2.1399,-2.1399,-2.1399,-2.1399,-2.1711,-2.2717,-2.2626,-2.2396,-2.1554,-2.1338,-2.1329,-2.1315,-2.169,-2.2416,-2.3589,-2.4271,-2.526,-2.7234,-2.7626,-2.836,-3.0626,-3.0555,-3.0614,-3.1804,-3.2004,-3.2264,-3.287,-3.3972,-3.4782,0.0,0.0,0.0,-3.5894,-3.4836,-3.4583,-3.5635,-3.4993,-3.4681,-3.4833,-3.4472,-3.3963,-3.3308,-3.3824,-3.3513,-3.2347,-3.1451,-3.0585,-2.9814,-2.8916,-2.8428,-2.8209,-2.6809,-2.6193,-2.6105,-2.5323,-2.4966,-2.4942,-2.4942,-2.4886,-2.4846,-2.4766,-2.4726,-2.4746,-2.4826,-2.4866,-2.4866,-2.4906,-2.4886,-2.4866,-2.4906,-2.4886,-2.4866,-2.4866,-2.4806,-2.4726,-2.4726,-2.4666,-2.4609,-2.4609,-2.4569,-2.4564,-2.4564,-2.4544,-2.4487,-2.4487,-2.4487,-2.4487,-2.4487,-2.4487,-2.4467,-2.4436,-2.4297,-2.4193,-2.4193,-2.3846,-2.3465,-2.3135,-2.2822,-2.2434,-2.1973,-2.1864,-2.1712,-2.135,-2.1277,-2.1253,-2.1253,-2.1253,-2.1277,-2.1326,-2.1326,-2.135,-2.1399,-2.1399,-2.1375,-2.1326,-2.1326,-2.1504,-2.1912,-2.1673,-2.1432,-2.0665,-2.0476,-2.0471,-2.0409,-2.0432,-2.0928,-2.2588,-2.295,-2.373,-2.6174,0.0,-2.7319,-2.8937,-2.9294,-2.9959,-3.1658,-3.1939,-3.2608,0.0,0.0,0.0,0.0,0.0,0.0,-3.5933,0.0,-3.4055,-3.5614,-3.4021,-3.3346,-3.3979,-3.3091,-3.252,-3.2349,-3.2232,-3.1896,-3.1298,-2.9879,-2.9104,-2.8911,-2.801,-2.7513,-2.7329,-2.6539,-2.6158,-2.5998,-2.5285,-2.4906,-2.4802,-2.4782,-2.4706,-2.4609,-2.4589,-2.4589,-2.4589,-2.4589,-2.4589,-2.4609,-2.4762,-2.4706,-2.4609,-2.4762,-2.4706,-2.4609,-2.4609,-2.4609,-2.4589,-2.4589,-2.4589,-2.4589,-2.4589,-2.4544,-2.4498,-2.4498,-2.438,-2.4302,-2.4302,-2.4302,-2.4302,-2.4297,-2.4261,-2.4261,-2.424,-2.3846,-2.3551,-2.361,-2.3551,-2.3201,-2.2301,-2.2184,-2.1949,-2.1423,-2.1277,-2.1204,-2.118,-2.1082,-2.1021,-2.0997,-2.0997,-2.1057,-2.118,-2.118,-2.1253,-2.1375,-2.1375,-2.1302,-2.118,-2.118,-2.1144,-2.0388,-2.0598,-2.0465,-2.0321,-2.0286,-2.0295,-2.0318,-2.0824,-2.142,-2.1868,-2.2423,-2.3446,-2.5372,-2.623,0.0,-2.8922,-2.9791,0.0,-3.1685,-3.2431,0.0,-3.4372,0.0,-3.5591,-3.5872,-3.5706,0.0,0.0,-3.4883,-3.463,-3.5653,-3.4558,-3.3922,-3.3999,-3.3091,-3.2243,-3.1514,-3.0928,-3.053,-3.0258,-2.9447,-2.8669,-2.7942,-2.76,-2.7263,-2.6907,-2.6367,-2.5944,-2.5615,-2.5068,-2.4842,-2.4782,-2.4686,-2.463,-2.4589,-2.4544,-2.4539,-2.4503,-2.4405,-2.4467,-2.4609,-2.463,-2.463,-2.4609,-2.463,-2.463,-2.4609,-2.4609,-2.4564,-2.4539,-2.4539,-2.4462,-2.4364,-2.4364,-2.4364,-2.4359,-2.4359,-2.4317,-2.4302,-2.4302,-2.4302,-2.4281,-2.4229,-2.3888,-2.3616,-2.3493,-2.3084,-2.2987,-2.353,-2.2979,-2.2472,-2.2231,-2.1841,-2.152,-2.1277,-2.1302,-2.1253,-2.1057,-2.1106,-2.1106,-2.0997,-2.0997,-2.1008,-2.1033,-2.1033,-2.1057,-2.1106,-2.1106,-2.1082,-2.1033,-2.1033,-2.1272,-1.9495,-1.985,-1.9945,-2.0044,-2.0072,-2.0187,-2.0638,-2.1116,-2.1686,-2.2485,-2.2992,-2.3703,-2.5057,-2.601,0.0,0.0,0.0,0.0,-3.2162,-3.3083,-3.397,0.0,-3.5402,0.0,-3.5805,-3.5522,-3.5359,0.0,-3.5232,-3.5137,-3.5081,-3.4163,-3.3391,-3.2833,-3.189,-3.1092,-3.0506,-2.9802,-2.9387,-2.9282,-2.8667,-2.8082,-2.7513,-2.7438,-2.7233,-2.6907,0.0,-2.589,-2.5577,-2.4954,-2.4686,-2.4661,-2.4584,-2.4508,-2.4467,-2.4421,-2.4215,-2.3952,-2.3891,-2.3752,-2.3696,-2.4342,-2.4523,-2.4487,-2.4544,-2.4523,-2.4467,-2.4467,-2.4441,-2.44,-2.44,-2.4359,-2.4302,-2.4302,-2.4302,-2.4302,-2.4302,-2.4302,-2.4302,-2.4302,-2.4302,-2.4276,-2.4208,-2.376,-2.3363,-2.3216,-2.2626,-2.2342,-2.2777,-2.2526,-2.2249,-2.2067,-2.1746,-2.1447,-2.1131,-2.1144,-2.1109,-2.0974,-2.0972,-2.0947,-2.0873,-2.0873,-2.0911,-2.0936,-2.0974,-2.0985,-2.0997,-2.0997,-2.0972,-2.0974,-2.0974,-2.1108,-1.8846,-1.9217,-1.957,-1.9716,-1.9875,-2.0199,-2.1043,-2.1415,-2.204,-2.361,0.0,-2.4304,-2.5179,-2.6085,-2.6987,-2.7898,0.0,-3.0964,-3.275,-3.351,-3.4275,-3.5302,-3.5342,-3.5277,-3.5353,-3.4795,-3.4411,-3.4446,-3.519,-3.5208,-3.4212,-3.3252,-3.2237,-3.1153,-3.0253,-2.9728,-2.9598,-2.8948,-2.8566,-2.8485,-2.7886,-2.7476,-2.7236,-2.7236,-2.7042,-2.6698,0.0,0.0,-2.5391,-2.463,-2.4346,-2.4358,-2.4245,-2.4184,-2.4164,-2.4071,-2.3671,-2.3163,-2.3163,-2.2778,-2.2505,-2.3792,-2.4138,-2.4061,-2.4178,-2.4138,-2.4056,-2.4148,-2.4179,-2.4194,-2.4287,-2.4302,-2.4302,-2.4302,-2.4302,-2.4302,-2.4302,-2.4302,-2.4302,-2.4302,-2.4281,-2.4234,-2.4088,-2.3631,-2.3187,-2.2995,-2.2212,-2.1664,-2.1664,-2.2039,-2.2156,-2.1722,-2.1688,-2.1496,-2.1021,-2.0949,-2.0913,-2.0888,-2.0775,-2.0712,-2.0699,-2.0699,-2.0737,-2.0863,-2.0863,-2.0899,-2.0972,-2.0972,-2.0936,-2.0863,-2.0863,-2.08,-1.7557,-1.8288,-1.8679,-1.893,-1.9708,-2.0484,-2.0819,-2.2034,0.0,0.0,-2.4239,-2.5076,-2.5946,-2.6705,-2.7539,-2.8706,-2.9551,-3.0759,-3.2719,-3.2543,-3.2794,0.0,-3.3898,-3.3499,-3.3626,0.0,0.0,0.0,0.0,-3.367,-3.3402,-3.2455,-3.1373,-3.0184,-2.9872,-2.9682,-2.9598,-2.8948,-2.8566,-2.8485,-2.7844,-2.7118,-2.6402,-2.6344,-2.5771,-2.4769,0.0,0.0,-2.3524,-2.3058,-2.3188,-2.3599,-2.2948,-2.3013,-2.3409,-2.284,-2.2563,-2.2455,-2.2455,-2.2413,-2.2351,-2.2601,-2.2659,-2.2659,-2.2678,-2.2659,-2.2748,-2.3317,-2.3471,-2.3594,-2.4164,-2.4302,-2.4302,-2.4302,-2.4302,-2.4302,-2.4302,-2.4302,-2.4302,-2.4302,-2.4271,-2.4046,-2.3471,-2.2883,-2.2314,-2.1779,-2.124,-2.0898,-2.0898,-2.1106,-2.1229,-2.1155,-2.1131,-2.1071,-2.0938,-2.0974,-2.0911,-2.0737,-2.0825,-2.0825,-2.0699,-2.0699,-2.0699,-2.0737,-2.0737,-2.0737,-2.0749,-2.0749,-2.0762,-2.0737,-2.0737,-2.0712,-1.5928,-1.6887,-1.7749,-1.7842,-1.8833,-2.0029,-2.0954,0.0,0.0,0.0,-2.4456,-2.5068,-2.5979,-2.6749,0.0,-2.8751,-2.9894,-3.1178,-3.2737,-3.2627,0.0,-3.4096,-3.348,-3.2995,0.0,0.0,0.0,0.0,0.0,-3.2112,-3.249,-3.1479,-3.0331,-2.9166,-2.9015,-2.8746,-2.8288,-2.7731,-2.7344,-2.7139,-2.668,-2.6147,-2.5564,-2.551,-2.5122,-2.4489,-2.3901,0.0,-2.3207,-2.2626,-2.2597,-2.284,-2.2463,-2.2486,-2.2732,-2.2428,-2.2089,-2.1781,-2.1781,-2.1513,-2.1151,-2.1151,-2.1664,-2.2305,-2.2305,-2.2305,-2.2443,-2.3102,-2.3302,-2.3456,-2.4133,-2.4302,-2.4302,-2.4302,-2.4302,-2.4297,-2.4271,-2.4234,-2.4234,-2.4172,-2.4109,-2.3897,-2.3268,-2.2694,-2.2095,-2.1482,-2.0997,-2.0699,-2.0699,-2.0774,-2.0848,-2.0848,-2.0848,-2.0823,-2.08,-2.0837,-2.0799,-2.0699,-2.0762,-2.0775,-2.0699,-2.0399,-2.0373,-2.0699,-2.0386,-2.0386,-2.0699,-2.0699,-2.0699,-2.0699,-2.0699,-2.0699,-1.4479,-1.5467,-1.6671,-1.6765,-1.7947,-1.947,-2.1,-2.2075,0.0,-2.4081,-2.4414,-2.4806,-2.5801,-2.6558,-2.7423,0.0,-2.9904,-3.1225,-3.2575,-3.249,-3.2697,0.0,-3.2974,0.0,0.0,0.0,0.0,0.0,0.0,0.0,-3.1326,-3.0383,-2.9342,-2.824,-2.8099,-2.7746,-2.712,-2.6581,-2.6195,-2.5907,-2.5578,-2.5167,-2.4718,-2.466,-2.4484,-2.4164,-2.3453,0.0,0.0,-2.2261,-2.2025,-2.2074,-2.1935,-2.1966,-2.2074,-2.192,-2.1516,-2.1037,-2.1037,-2.0612,-2.008,-2.008,-2.0852,-2.1799,-2.1799,-2.1906,-2.2167,-2.2827,-2.3135,-2.3395,-2.405,-2.4234,-2.4234,-2.4234,-2.4234,-2.4234,-2.4166,-2.4145,-2.4124,-2.4024,-2.3982,-2.3775,-2.3194,-2.2626,-2.2072,-2.1482,-2.0997,-2.0687,-2.0662,-2.0662,-2.0624,-2.0599,-2.0649,-2.0699,-2.0699,-2.0699,-2.0699,-2.0699,-2.0594,-2.0581,-2.0699,-2.0007,-1.9943,-2.0699,-2.01,-2.0087,-2.0699,-2.0699,-2.0699,-2.0699,-2.0699,-2.0699,-1.3726,-1.4298,-1.5342,-1.5938,-1.756,-1.9323,-2.0585,0.0,-2.2976,-2.327,-2.3813,-2.4585,-2.5694,-2.6217,-2.7001,0.0,0.0,-3.0007,-3.2064,-3.1196,-3.1006,-3.272,0.0,0.0,0.0,0.0,0.0,0.0,0.0,0.0,-2.9584,-2.9201,-2.8575,-2.7616,-2.7332,-2.7176,-2.7101,-2.6443,-2.6044,-2.5895,-2.5376,-2.4662,-2.3824,-2.381,-2.338,-2.2595,0.0,0.0,0.0,-2.1084,-2.1124,-2.1334,-2.0718,-2.0875,-2.1319,-2.0703,-2.0373,-2.0207,-2.0207,-2.0124,-2.0023,-2.0023,-2.0099,-2.0223,-2.0223,-2.0649,-2.1272,-2.1941,-2.2565,-2.3188,-2.3842,-2.4024,-2.4024,-2.4024,-2.4024,-2.4024,-2.4024,-2.4024,-2.4003,-2.4003,-2.3903,-2.3668,-2.3172,-2.2558,-2.1955,-2.1458,-2.0997,-2.0662,-2.0537,-2.0511,-2.0461,-2.0258,-2.0524,-2.0699,-2.0699,-2.0699,-2.0699,-2.0699,-2.0203,-2.0137,-2.0686,-1.9577,-1.9512,-2.0686,-2.01,-2.0087,-2.0699,-2.0699,-2.0699,-2.0699,-2.0699,-2.0699,-1.3192,-1.3653,-1.44,-1.4662,-1.6731,-1.8965,-1.9966,0.0,-2.2853,-2.3081,-2.3419,-2.4082,-2.5464,-2.5798,-2.6453,0.0,-2.8555,-2.9175,-3.0977,-3.0283,-3.0196,-3.1775,-3.092,0.0,0.0,0.0,0.0,0.0,0.0,0.0,-2.7857,-2.8467,-2.8166,-2.669,-2.6437,-2.6068,-2.5538,-2.5186,-2.4834,-2.4448,-2.4157,-2.3663,-2.3038,-2.2942,-2.2719,-2.2377,0.0,0.0,0.0,-2.1023,-2.0885,-2.0936,-2.0466,-2.0406,-2.0553,-2.0292,-2.0115,-2.0043,-2.0043,-1.9973,-1.9944,-2.0352,-2.0183,-1.9924,-2.044,-2.0795,-2.122,-2.2297,-2.2783,-2.3153,-2.3836,-2.4003,-2.4003,-2.4003,-2.4003,-2.3982,-2.3903,-2.3882,-2.3861,-2.376,-2.3501,-2.3091,-2.2581,-2.2049,-2.153,-2.1033,-2.0749,-2.0562,-2.0511,-2.0398,-2.0168,-1.9759,-1.9832,-1.993,-1.993,-1.962,-1.945,-1.945,-1.9206,-1.9193,-1.9437,-1.8975,-1.9152,-2.0027,-1.9796,-2.0014,-2.0699,-2.0699,-2.0699,-2.0699,-2.0699,-2.0699,-1.3331,-1.3627,-1.4198,-1.4357,-1.6296,-1.8451,-1.9564,-2.1069,-2.2303,-2.2617,-2.291,-2.3462,-2.4673,-2.5169,-2.587,0.0,-2.7911,-2.8621,-3.008,-2.988,-3.0103,0.0,0.0,0.0,0.0,0.0,0.0,0.0,0.0,0.0,0.0,-2.7637,-2.7402,-2.5818,-2.5531,-2.5121,-2.4518,-2.4284,-2.3959,-2.35,-2.3306,-2.2993,-2.2569,-2.2446,-2.2377,-2.2349,0.0,0.0,0.0,-2.1166,-2.0893,-2.0761,-2.0392,-2.0185,-2.01,-2.008,-2.0025,-1.9937,-1.9937,-1.9866,-1.9855,-2.0321,-2.0254,-2.016,-2.0967,-2.1201,-2.1398,-2.2354,-2.2899,-2.3292,-2.3761,-2.3882,-2.3882,-2.3882,-2.3882,-2.3861,-2.376,-2.3739,-2.3717,-2.3616,-2.3334,-2.2942,-2.2443,-2.1931,-2.1458,-2.0997,-2.0699,-2.0511,-2.0423,-2.0296,-2.0029,-1.9583,-1.9227,-1.9071,-1.9168,-1.8832,-1.8601,-1.8601,-1.8446,-1.8498,-1.8808,-1.8503,-1.8793,-1.9765,-1.9612,-1.9867,-2.0549,-2.038,-2.0326,-2.0326,-2.0326,-2.0442,-1.4402,-1.4331,-1.492,-1.5448,-1.6449,-1.7764,-1.9499,-2.0525,-2.1228,-2.1632,-2.2192,-2.2726,-2.3152,-2.4259,-2.5316,-2.5924,-2.707,-2.8352,-2.9633,-3.0098,-3.0761,0.0,0.0,0.0,0.0,0.0,0.0,0.0,0.0,0.0,0.0,-2.6612,-2.6061,-2.5049,-2.4689,-2.4518,-2.45,-2.4096,-2.3774,-2.35,-2.317,-2.2829,-2.2501,-2.2432,-2.2349,0.0,0.0,0.0,0.0,-2.1432,-2.1103,-2.0761,-2.0273,-2.01,-2.0098,-2.0025,-1.9919,-1.9797,-1.9797,-1.9762,-1.9708,-1.9708,-2.0154,-2.0808,-2.1485,-2.168,-2.1695,-2.1695,-2.2622,-2.3595,-2.3595,-2.3595,-2.3595,-2.3595,-2.3595,-2.3595,-2.3595,-2.3595,-2.3595,-2.3595,-2.3595,-2.3443,-2.2979,-2.2443,-2.1931,-2.1458,-2.0997,-2.0574,-2.0258,-2.0207,-2.0093,-1.9824,-1.8844,-1.8322,-1.859,-1.8601,-1.8601,-1.8601,-1.8029,-1.8221,-1.9336,-1.8323,-1.8492,-2.0169,-1.9682,-1.9669,-2.0195,-1.9669,-1.94,-1.94,-1.94,-1.9806,-1.5882,-1.5614,-1.5576,-1.5984,-1.7289,-1.8653,-1.9404,-2.0495,-2.14,-2.1479,-2.1866,-2.2343,-2.2912,-2.3456,-2.4271,-2.5513,0.0,0.0,0.0,0.0,0.0,0.0,0.0,0.0,0.0,0.0,0.0,0.0,0.0,0.0,0.0,-2.5756,-2.5403,-2.4956,-2.4697,-2.4478,-2.4303,-2.4163,-2.3969,-2.3703,-2.3318,-2.3012,-2.2756,-2.2474,0.0,0.0,0.0,0.0,0.0,-2.1524,-2.1245,-2.1087,-2.0461,-2.0148,-2.0025,-2.0023,-1.9884,-1.9726,-1.9726,-1.9726,-1.9857,-2.0767,-2.0902,-2.0897,-2.2044,-2.2388,-2.2478,-2.2877,-2.3295,-2.3595,-2.3595,-2.3595,-2.3595,-2.3595,-2.3595,-2.3595,-2.3595,-2.3355,-2.3113,-2.3113,-2.2558,-2.2049,-2.1898,-2.1482,-2.1093,-2.0934,-2.0586,-2.0309,-2.0207,-2.0042,-1.9749,-1.9309,-1.8945,-1.863,-1.8347,-1.7624,-1.7147,-1.7147,-1.6995,-1.7235,-1.8004,-1.8044,-1.8497,-1.9495,-1.9342,-1.9392,-1.9656,-1.9116,-1.8847,-1.8847,-1.8847,-1.8984,-1.7274,-1.6952,-1.6771,-1.7003,-1.7957,-1.897,-1.9446,-2.0414,-2.1198,-2.1214,-2.1721,-2.2327,-2.2777,-2.3465,-2.4324,-2.5359,-2.5828,0.0,0.0,0.0,0.0,0.0,0.0,0.0,0.0,0.0,0.0,0.0,0.0,0.0,0.0,0.0,-2.5211,-2.498,-2.4715,-2.4468,-2.4229,-2.4191,-2.4027,-2.3764,-2.3357,-2.3056,-2.2846,-2.2457,0.0,0.0,0.0,0.0,0.0,-2.1678,-2.1339,-2.1118,-2.0562,-2.0183,-1.9919,-1.9902,-1.9797,-1.9708,-1.9708,-1.9872,-2.0213,-2.1051,-2.138,-2.165,-2.2733,-2.2882,-2.2823,-2.343,-2.3595,-2.3595,-2.3595,-2.3595,-2.3595,-2.3595,-2.3595,-2.3595,-2.3595,-2.3224,-2.2889,-2.2889,-2.2235,-2.1612,-2.1423,-2.0944,-2.0598,-2.0623,-2.0217,-1.9939,-2.0105,-1.9978,-1.9736,-1.9334,-1.9121,-1.8782,-1.8254,-1.7363,-1.6748,-1.6513,-1.65,-1.6773,-1.7385,-1.7714,-1.8201,-1.8815,-1.8827,-1.8852,-1.8935,-1.8399,-1.8155,-1.8155,-1.8201,-1.8326,0.0,-1.8319,-1.8323,-1.8382,-1.8554,-1.8892,-1.968,-2.0289,0.0,-2.0957,-2.1795,-2.2573,-2.28,-2.4034,-2.5095,-2.5347,0.0,0.0,0.0,0.0,0.0,0.0,0.0,0.0,0.0,0.0,0.0,0.0,0.0,0.0,0.0,0.0,-2.5286,-2.5026,-2.4582,-2.43,-2.4238,-2.4034,-2.3794,-2.3551,-2.3193,-2.2925,-2.273,-2.2443,0.0,0.0,0.0,0.0,0.0,-2.1814,-2.1402,-2.0975,-2.053,-2.0135,-1.978,-1.9726,-1.9708,-1.9708,-1.9753,-2.0183,-2.0718,-2.0808,-2.171,-2.2868,-2.343,-2.3212,-2.2882,-2.343,-2.3595,-2.3595,-2.3595,-2.3595,-2.3595,-2.3595,-2.3595,-2.3595,-2.3595,-2.3224,-2.2889,-2.2889,-2.2443,-2.1908,-2.1458,-2.0803,-2.0353,-2.0419,-1.9806,-1.9442,-1.9826,-1.9876,-1.9813,-1.9685,-1.9233,-1.8719,-1.8191,-1.7677,-1.7137,-1.6538,-1.65,-1.6773,-1.7385,-1.741,-1.7639,-1.8191,-1.8166,-1.8129,-1.8091,-1.7564,-1.7348,-1.7348,-1.747,-1.7794,-1.9635,0.0,-1.9343,-1.9379,-1.9521,-1.9775,0.0,-2.0527,-2.0969,-2.1676,-2.2182,-2.2688,-2.3308,-2.3868,-2.4464,-2.5062,0.0,0.0,0.0,0.0,0.0,0.0,0.0,0.0,0.0,0.0,0.0,0.0,0.0,0.0,0.0,0.0,-2.4415,-2.4189,-2.3291,-2.3048,-2.3523,-2.2692,-2.2228,-2.2172,-2.2235,-2.223,-2.2194,-2.2268,0.0,0.0,0.0,0.0,-2.2154,-2.1508,-2.115,-2.0942,-2.0325,-1.9973,-1.9797,-1.978,-1.9744,-1.9783,-2.0288,-2.0554,-2.0868,-2.1889,-2.2763,-2.3415,-2.355,-2.349,-2.3415,-2.355,-2.3595,-2.3595,-2.3595,-2.3595,-2.3595,-2.3595,-2.3595,-2.3595,-2.3595,-2.3224,-2.2889,-2.2889,-2.2081,-2.1369,-2.1261,-2.0358,-1.9633,-1.9653,-1.907,-1.8668,-1.8748,-1.8677,-1.8605,-1.8581,-1.8468,-1.8179,-1.7614,-1.7473,-1.7137,-1.6538,-1.65,-1.6773,-1.7385,-1.741,-1.7639,-1.8191,-1.779,-1.735,-1.6889,-1.6763,-1.6701,-1.6722,-1.6732,-1.6829,-2.0306,-2.0256,-2.03,-2.03,-2.0466,-2.0681,-2.0824,-2.0898,-2.1165,-2.1933,0.0,-2.3191,-2.3958,-2.454,0.0,0.0,-2.5746,0.0,0.0,0.0,0.0,0.0,0.0,0.0,0.0,0.0,0.0,0.0,0.0,0.0,0.0,0.0,-2.3953,-2.3415,-2.2381,-2.2111,-2.2707,-2.2002,-2.1643,-2.1643,-2.1522,-2.1439,-2.1411,-2.1613,0.0,0.0,0.0,0.0,-2.2077,-2.1688,-2.1275,-2.0861,-2.051,-2.0115,-1.9789,-2.0104,-2.019,-2.0243,-2.0932,-2.1365,-2.1784,-2.2793,-2.3325,-2.3595,-2.3595,-2.3595,-2.3595,-2.3595,-2.3595,-2.3595,-2.3595,-2.3595,-2.3595,-2.3595,-2.3595,-2.3588,-2.3545,-2.3157,-2.2799,-2.2717,-2.2049,-2.1325,-2.0828,-1.9951,-1.9216,-1.8992,-1.8378,-1.812,-1.8601,-1.8415,-1.8304,-1.8531,-1.8355,-1.7978,-1.7461,-1.741,-1.7137,-1.6538,-1.65,-1.666,-1.6974,-1.6986,-1.7124,-1.7403,-1.7137,-1.6835,-1.65,-1.65,-1.65,-1.65,-1.65,-1.65,-2.0856,-2.1007,-2.1247,-2.0996,-2.1229,-2.1457,-2.1366,0.0,0.0,0.0,0.0,0.0,-2.4709,-2.5435,0.0,0.0,0.0,0.0,0.0,0.0,0.0,0.0,0.0,0.0,0.0,0.0,0.0,0.0,0.0,0.0,0.0,0.0,0.0,-2.2619,-2.1627,-2.1278,-2.1652,-2.1387,-2.1242,-2.1234,-2.0845,-2.062,-2.0527,-2.0888,-2.1063,0.0,0.0,0.0,-2.1984,-2.194,-2.1461,-2.0794,-2.0745,-2.0291,-1.9768,-2.0348,-2.0557,-2.0662,-2.1425,-2.2209,-2.2927,-2.343,-2.3595,-2.3595,-2.3595,-2.3595,-2.3573,-2.3573,-2.3588,-2.3595,-2.3588,-2.3573,-2.3588,-2.3566,-2.3551,-2.3545,-2.3487,-2.3061,-2.2626,-2.2512,-2.2039,-2.1339,-2.0331,-1.9549,-1.8865,-1.8336,-1.7693,-1.7589,-1.8506,-1.8218,-1.8105,-1.8569,-1.8205,-1.7752,-1.7287,-1.725,-1.7036,-1.6525,-1.65,-1.65,-1.65,-1.65,-1.65,-1.65,-1.65,-1.65,-1.65,-1.65,-1.6457,-1.638,-1.6466,-1.6423,-2.1825,-2.2256,-2.2312,-2.1047,-2.1291,-2.1696,-2.126,-2.1119,0.0,0.0,0.0,0.0,0.0,-2.5854,-2.599,0.0,0.0,0.0,0.0,0.0,0.0,0.0,0.0,0.0,0.0,0.0,0.0,0.0,0.0,0.0,0.0,0.0,0.0,-2.1714,-2.0718,-2.0142,-2.005,-1.9844,-1.9683,-1.9567,-1.9882,-1.9916,-1.9719,-2.0833,-2.123,0.0,0.0,-2.1984,-2.1882,-2.16,-2.123,-2.0778,-2.0429,-2.005,-1.9708,-1.9828,-1.9839,-2.0019,-2.1261,-2.2473,-2.3475,-2.3565,-2.3595,-2.3595,-2.3595,-2.3545,-2.3531,-2.3531,-2.356,-2.3588,-2.3538,-2.3531,-2.3487,-2.3385,-2.3363,-2.3326,-2.3341,-2.2912,-2.2512,-2.2512,-2.1657,-2.0771,-2.0139,-1.9091,-1.8181,-1.7622,-1.7033,-1.6688,-1.6851,-1.6801,-1.6789,-1.6876,-1.6801,-1.6726,-1.666,-1.6647,-1.6588,-1.65,-1.65,-1.65,-1.65,-1.65,-1.65,-1.65,-1.65,-1.65,-1.65,-1.65,-1.6293,-1.5932,-1.6315,-1.6076,-2.197,-2.2411,-2.2584,-2.1939,-2.2463,-2.3112,-2.2915,-2.2665,0.0,0.0,0.0,0.0,0.0,0.0,-2.6151,0.0,0.0,0.0,0.0,0.0,0.0,0.0,0.0,0.0,0.0,0.0,0.0,0.0,0.0,0.0,0.0,0.0,0.0,0.0,-2.037,-1.9991,-1.9695,-1.9565,-1.9383,-1.9142,-1.9246,-1.9151,-1.8885,-1.9728,-2.0171,-2.0338,0.0,-2.1561,-2.1899,-2.172,-2.1433,-2.1039,-2.0679,-2.0292,-1.999,-2.0167,-2.0711,-2.1355,-2.1605,-2.2532,-2.355,-2.3227,-2.3059,-2.3076,-2.3455,-2.322,-2.2919,-2.3296,-2.3414,-2.3436,-2.3407,-2.3385,-2.3385,-2.3319,-2.3297,-2.3275,-2.3201,-2.2768,-2.2374,-2.2342,-2.1694,-2.0855,-2.003,-1.9196,-1.8339,-1.7531,-1.6886,-1.6613,-1.6936,-1.671,-1.6613,-1.6948,-1.6688,-1.65,-1.65,-1.65,-1.65,-1.65,-1.65,-1.65,-1.65,-1.65,-1.65,-1.65,-1.65,-1.65,-1.65,-1.65,-1.638,-1.6173,-1.6402,-1.6141,-2.195,-2.2325,-2.2638,-2.2883,0.0,-2.3901,-2.4184,-2.3807,0.0,0.0,0.0,0.0,0.0,-2.6151,0.0,0.0,0.0,0.0,0.0,0.0,0.0,0.0,0.0,0.0,0.0,0.0,0.0,0.0,0.0,0.0,0.0,0.0,0.0,0.0,-2.0234,-2.0055,-1.9732,-1.9638,-1.9429,-1.9107,-1.8905,-1.8631,-1.8325,-1.8828,-1.9283,-1.9711,-2.0459,-2.1204,-2.1884,-2.1884,-2.1601,-2.1151,-2.0893,-2.0512,-2.0111,-2.0366,-2.1216,-2.2164,-2.1635,-2.2203,-2.3071,-2.2628,-2.2381,-2.2381,-2.3056,-2.2683,-2.2172,-2.2841,-2.2914,-2.2848,-2.3157,-2.3253,-2.3246,-2.3209,-2.312,-2.3008,-2.291,-2.2365,-2.1884,-2.1827,-2.1382,-2.072,-1.9792,-1.9173,-1.85,-1.7554,-1.6886,-1.6663,-1.7124,-1.6798,-1.6685,-1.7137,-1.6785,-1.65,-1.65,-1.65,-1.65,-1.65,-1.65,-1.65,-1.65,-1.65,-1.65,-1.65,-1.638,-1.6337,-1.6337,-1.6228,-1.6163,-1.6163,-1.6272,-1.6086,-2.2116,-2.2445,-2.2769,-2.3457,-2.3162,0.0,-2.3669,-2.3276,0.0,-2.4675,0.0,0.0,0.0,0.0,0.0,0.0,0.0,0.0,0.0,0.0,0.0,0.0,0.0,0.0,0.0,0.0,0.0,0.0,0.0,0.0,0.0,0.0,0.0,0.0,0.0,-2.0074,-1.9794,-1.9657,-1.9429,-1.9107,-1.8965,-1.868,-1.8307,-1.8905,-1.9331,-1.9647,-2.0387,-2.1133,-2.1812,-2.1812,-2.1433,-2.0827,-2.0811,-2.0359,-1.9744,-1.9753,-2.0228,-2.0838,-2.0778,-2.1246,-2.1829,-2.1784,-2.1675,-2.1693,-2.2367,-2.1975,-2.1427,-2.2102,-2.1739,-2.1472,-2.2798,-2.3105,-2.3082,-2.2955,-2.2615,-2.2278,-2.2278,-2.1444,-2.0734,-2.0709,-2.0283,-1.9737,-1.9157,-1.8616,-1.8062,-1.7486,-1.6886,-1.6513,-1.655,-1.6525,-1.6513,-1.655,-1.6525,-1.65,-1.65,-1.65,-1.65,-1.65,-1.65,-1.65,-1.65,-1.65,-1.65,-1.65,-1.6064,-1.5854,-1.5854,-1.5412,-1.5198,-1.5221,-1.5645,-1.5601,-2.1687,-2.2417,-2.302,-2.3175,-2.301,0.0,0.0,-2.4263,-2.4395,-2.552,-2.5773,0.0,0.0,0.0,0.0,0.0,0.0,0.0,0.0,0.0,0.0,0.0,0.0,0.0,0.0,0.0,0.0,0.0,0.0,0.0,0.0,0.0,0.0,0.0,0.0,-2.0046,-1.9745,-1.9644,-1.9429,-1.9107,-1.8955,-1.8735,-1.8422,-1.8496,-1.8728,-1.9148,-1.9751,-2.0439,-2.1149,-2.1613,-2.1525,-2.1071,-2.0613,-2.012,-1.9708,-1.9708,-2.0124,-2.0628,-2.0169,-2.0701,-2.1501,-2.1045,-2.0813,-2.0833,-2.1501,-2.1149,-2.0648,-2.1289,-2.1233,-2.1125,-2.1655,-2.1792,-2.1808,-2.1833,-2.1716,-2.1587,-2.1683,-2.1115,-2.061,-2.061,-2.0156,-1.9748,-1.9547,-1.9045,-1.853,-1.7978,-1.7413,-1.6923,-1.6538,-1.65,-1.65,-1.65,-1.65,-1.65,-1.65,-1.65,-1.65,-1.65,-1.65,-1.65,-1.65,-1.65,-1.65,-1.65,-1.6337,-1.625,-1.6216,-1.5756,-1.5534,-1.5534,-1.5434,-1.5119,-2.1592,-2.2339,-2.2956,-2.3083,0.0,0.0,-2.4746,-2.4844,-2.496,-2.6075,-2.6311,0.0,0.0,0.0,0.0,0.0,0.0,0.0,0.0,0.0,0.0,0.0,0.0,0.0,0.0,0.0,0.0,0.0,0.0,0.0,0.0,0.0,0.0,0.0,0.0,-2.0055,-1.9806,-1.9612,-1.9419,-1.9164,-1.893,-1.8671,-1.8442,-1.818,-1.8297,-1.8738,-1.9087,-1.9796,-2.0735,-2.1249,-2.1328,-2.1087,-2.0447,-1.9997,-1.9708,-1.9708,-1.9989,-2.0314,-1.9793,-2.0169,-2.0817,-2.0262,-2.0019,-2.004,-2.0704,-2.0376,-1.9914,-2.0538,-2.0553,-2.0393,-2.0393,-2.0698,-2.1064,-2.1375,-2.1304,-2.1293,-2.1594,-2.1091,-2.061,-2.061,-2.0156,-1.9798,-1.9798,-1.9196,-1.8619,-1.8267,-1.7576,-1.6974,-1.655,-1.65,-1.65,-1.65,-1.65,-1.65,-1.65,-1.65,-1.65,-1.65,-1.65,-1.65,-1.65,-1.65,-1.65,-1.65,-1.6358,-1.6272,-1.6272,-1.58,-1.5656,-1.5788,-1.5322,-1.5006,-2.1979,-2.2255,-2.2514,0.0,0.0,0.0,-2.5029,-2.4729,-2.4546,-2.615,0.0,-2.6314,-2.6452,0.0,0.0,0.0,0.0,0.0,0.0,0.0,0.0,0.0,0.0,0.0,0.0,0.0,0.0,0.0,0.0,0.0,0.0,0.0,0.0,0.0,0.0,0.0,-1.9993,-1.9591,-1.9365,-1.9289,-1.8816,-1.8489,-1.829,-1.8085,-1.8182,-1.8489,-1.8505,-1.9329,-2.0685,-2.0671,-2.0719,-2.0761,-2.0361,-1.9997,-1.9708,-1.9708,-1.9708,-1.969,-1.9629,-1.9593,-1.9574,-1.9446,-1.9358,-1.9419,-2.0011,-1.9686,-1.9232,-1.9899,-1.9609,-1.9101,-1.9101,-2.0045,-2.1148,-2.1815,-2.1561,-2.1361,-2.203,-2.1348,-2.061,-2.061,-2.0156,-1.9798,-1.9798,-1.892,-1.8216,-1.8204,-1.7215,-1.65,-1.65,-1.65,-1.65,-1.65,-1.65,-1.65,-1.65,-1.65,-1.65,-1.65,-1.65,-1.65,-1.65,-1.65,-1.6488,-1.6488,-1.6042,-1.5788,-1.5788,-1.5322,-1.5322,-1.5788,-1.53,-1.5322,-2.2075,-2.276,0.0,-2.3367,0.0,0.0,0.0,-2.4761,0.0,0.0,0.0,-2.4204,0.0,0.0,0.0,0.0,0.0,0.0,0.0,0.0,0.0,0.0,0.0,0.0,0.0,0.0,0.0,0.0,0.0,0.0,0.0,0.0,0.0,0.0,0.0,0.0,-1.9857,-1.9545,-1.9335,-1.9232,-1.8798,-1.8526,-1.8365,-1.8106,-1.7974,-1.7964,-1.8336,-1.8702,-1.9044,-1.9521,-2.0034,-2.0461,-1.9871,-1.9581,-1.9487,-1.9487,-1.9487,-1.9487,-1.9413,-1.9395,-1.9376,-1.9228,-1.9176,-1.9186,-1.9357,-1.9265,-1.9145,-1.9348,-1.9261,-1.9101,-1.9101,-1.9377,-1.9749,-2.0024,-2.0352,-2.0634,-2.0891,-2.106,-2.1066,-2.0684,-2.0485,-2.0232,-1.9875,-1.9233,-1.8619,-1.8267,-1.7589,-1.6974,-1.655,-1.65,-1.65,-1.65,-1.65,-1.65,-1.65,-1.65,-1.65,-1.65,-1.65,-1.65,-1.65,-1.6173,-1.602,-1.602,-1.5546,-1.53,-1.53,-1.4834,-1.4674,-1.48,-1.4292,-1.4118,-2.3638,-2.4064,0.0,-2.4571,-2.4746,-2.4756,-2.4292,0.0,0.0,0.0,0.0,0.0,0.0,0.0,0.0,0.0,0.0,0.0,0.0,0.0,0.0,0.0,0.0,0.0,0.0,0.0,0.0,0.0,0.0,0.0,0.0,0.0,0.0,0.0,0.0,0.0,-1.9838,-1.9472,-1.924,-1.9168,-1.8744,-1.8485,-1.8311,-1.8091,-1.7889,-1.7737,-1.8199,-1.8516,-1.87,-1.9276,-1.984,-2.0342,-1.9803,-1.9527,-1.9395,-1.9395,-1.9395,-1.9395,-1.9321,-1.9302,-1.9284,-1.9139,-1.9101,-1.9101,-1.9101,-1.9101,-1.9101,-1.9101,-1.9101,-1.9101,-1.9101,-1.9101,-1.9185,-1.9544,-1.9939,-2.0324,-2.0652,-2.0875,-2.0863,-2.0392,-2.011,-1.9798,-1.9258,-1.8731,-1.8254,-1.7928,-1.74,-1.6911,-1.6538,-1.65,-1.65,-1.65,-1.65,-1.65,-1.65,-1.65,-1.65,-1.65,-1.6337,-1.6216,-1.6216,-1.6129,-1.6086,-1.6086,-1.5623,-1.539,-1.539,-1.4915,-1.4674,-1.4674,-1.4163,-1.3928,-2.587,-2.5612,0.0,-2.6291,-2.5796,0.0,-2.2649,-2.3298,-2.3881,-2.2398,0.0,0.0,0.0,0.0,0.0,0.0,0.0,0.0,0.0,0.0,0.0,0.0,0.0,0.0,0.0,0.0,0.0,0.0,0.0,0.0,0.0,0.0,0.0,0.0,0.0,0.0,-1.9904,-1.9371,-1.9101,0.0,-1.8697,-1.8438,-1.8308,-1.8104,-1.79,-1.7721,-1.8046,-1.8531,-1.9139,-1.9506,-1.9893,-2.0232,-1.9971,-1.9663,-1.9376,-1.9376,-1.9376,-1.9358,-1.9302,-1.9284,-1.9265,-1.9139,-1.9101,-1.9101,-1.9101,-1.9101,-1.9101,-1.9101,-1.9101,-1.9101,-1.9101,-1.9101,-1.9261,-1.987,-2.0059,-2.0272,-2.0953,-2.073,-2.028,-1.9859,-1.9359,-1.8843,-1.8292,-1.7775,-1.7385,-1.7335,-1.6861,-1.65,-1.65,-1.65,-1.65,-1.65,-1.65,-1.65,-1.65,-1.65,-1.65,-1.65,-1.6107,-1.5854,-1.5854,-1.6163,-1.6315,-1.6315,-1.5832,-1.5611,-1.5611,-1.5175,-1.4971,-1.4949,-1.4535,-1.4326,-2.5197,-2.4779,0.0,0.0,-2.5372,-2.4525,-2.2688,-2.255,-2.2316,0.0,0.0,0.0,0.0,0.0,0.0,0.0,0.0,0.0,0.0,0.0,0.0,0.0,0.0,0.0,0.0,0.0,0.0,0.0,0.0,0.0,0.0,0.0,0.0,0.0,0.0,-2.0079,-1.9909,-1.9371,-1.9101,0.0,-1.8697,-1.8751,-1.9195,-1.8481,-1.7986,-1.7676,-1.7404,-1.7679,-1.8342,-1.854,-1.8856,-1.925,-1.9486,-1.9406,-1.9157,-1.9157,-1.9157,-1.9157,-1.9139,-1.9139,-1.9139,-1.9101,-1.9101,-1.9101,-1.9101,-1.9101,-1.9101,-1.9101,-1.9101,-1.9101,-1.9101,-1.9101,-1.9145,-1.9275,-1.9725,-2.0141,-2.0316,-2.0373,-2.0243,-1.9728,-1.9288,-1.8835,-1.8287,-1.7775,-1.7247,-1.6773,-1.6575,-1.65,-1.65,-1.65,-1.65,-1.65,-1.65,-1.65,-1.65,-1.65,-1.65,-1.65,-1.6402,-1.6358,-1.6358,-1.539,-1.4846,-1.4846,-1.4328,-1.4071,-1.4071,-1.3954,-1.3918,-1.3918,-1.3823,-1.3705,-2.5666,0.0,0.0,-2.5153,0.0,-2.3594,-2.227,-2.1296,-2.0437,0.0,0.0,0.0,0.0,0.0,0.0,0.0,0.0,0.0,0.0,0.0,0.0,0.0,0.0,0.0,0.0,0.0,0.0,0.0,0.0,0.0,0.0,0.0,0.0,0.0,-2.0255,-2.0096,-1.9904,-1.9428,-1.9143,-1.9051,-1.8743,-1.8911,-1.9482,-1.9161,-1.8831,-1.8485,-1.8091,-1.8297,-1.8885,-1.8468,-1.8824,-1.9599,-1.9321,-1.9248,-1.9291,-1.9291,-1.9199,-1.9101,-1.9101,-1.9101,-1.9101,-1.9101,-1.9101,-1.9101,-1.9101,-1.9101,-1.9101,-1.9101,-1.9101,-1.9101,-1.9101,-1.9101,-1.9101,-1.9101,-1.9229,-1.9364,-1.9428,-1.9342,-1.9111,-1.8627,-1.8393,-1.8045,-1.7483,-1.7149,-1.6861,-1.6538,-1.65,-1.65,-1.65,-1.65,-1.65,-1.65,-1.65,-1.65,-1.65,-1.65,-1.65,-1.65,-1.6293,-1.6151,-1.6151,-1.5028,-1.4617,-1.5062,-1.4362,-1.3952,-1.3894,-1.3634,-1.3467,-1.342,-1.342,-1.3362,-2.6256,0.0,-2.5364,-2.4827,-2.3815,0.0,-2.1975,-2.0529,0.0,0.0,0.0,0.0,0.0,0.0,0.0,0.0,0.0,0.0,0.0,0.0,0.0,0.0,0.0,0.0,0.0,0.0,0.0,0.0,0.0,0.0,0.0,0.0,-2.0321,-2.0187,-2.005,-1.9818,-1.9475,-1.9073,-1.8783,-1.8595,-1.8618,-1.8931,-1.9502,-1.9918,-1.9887,-1.947,-1.9125,-1.9235,-1.9593,-1.8858,-1.9183,-2.0059,-1.9375,-1.9216,-1.9439,-1.9439,-1.9291,-1.9101,-1.9101,-1.9101,-1.9101,-1.9101,-1.9101,-1.9101,-1.9101,-1.9101,-1.9101,-1.9101,-1.9101,-1.9101,-1.9101,-1.9101,-1.9101,-1.9101,-1.8726,-1.8424,-1.8618,-1.8235,-1.7765,-1.7425,-1.7304,-1.7087,-1.6588,-1.65,-1.65,-1.65,-1.65,-1.65,-1.65,-1.65,-1.65,-1.65,-1.65,-1.65,-1.65,-1.65,-1.65,-1.65,-1.6129,-1.592,-1.592,-1.5017,-1.4892,-1.5634,-1.472,-1.4163,-1.4025,-1.3576,-1.3314,-1.3194,-1.3194,-1.3194,0.0,0.0,-2.5159,0.0,-2.3678,-2.3335,0.0,0.0,0.0,0.0,0.0,0.0,0.0,0.0,0.0,0.0,0.0,0.0,0.0,0.0,0.0,0.0,0.0,0.0,0.0,0.0,0.0,0.0,0.0,0.0,0.0,-2.0146,-1.9995,-1.9303,-1.9139,-1.8647,-1.7733,-1.7399,-1.7125,-1.6923,-1.7892,-1.8728,-1.9449,-2.0458,-2.0527,-1.9809,-1.947,-1.9218,-1.9046,-1.9435,-1.9402,-1.9142,-1.9656,-1.9561,-1.9157,-1.9157,-1.9139,-1.9101,-1.9101,-1.9101,-1.9101,-1.9101,-1.9101,-1.9101,-1.9101,-1.9101,-1.9101,-1.9101,-1.9101,-1.9101,-1.9101,-1.9101,-1.9101,-1.9101,-1.8481,-1.8016,-1.8436,-1.7869,-1.7295,-1.7232,-1.6893,-1.6588,-1.6513,-1.65,-1.65,-1.65,-1.65,-1.65,-1.65,-1.65,-1.65,-1.65,-1.65,-1.65,-1.65,-1.65,-1.65,-1.65,-1.6445,-1.6402,-1.6402,-1.5501,-1.5006,-1.5017,-1.4037,-1.3457,-1.3338,-1.3256,-1.3218,-1.3194,-1.3194,-1.3156,-2.5064,-2.4938,-2.4642,0.0,-2.3788,-2.3488,-2.3068,0.0,0.0,0.0,0.0,0.0,0.0,0.0,0.0,0.0,0.0,0.0,0.0,0.0,0.0,0.0,0.0,0.0,0.0,0.0,0.0,0.0,0.0,0.0,-1.883,-1.9265,-1.9183,-1.8449,-1.8297,-1.7952,-1.7406,-1.7176,-1.6892,-1.6556,-1.6941,-1.7474,-1.8139,-1.8628,-1.9375,-2.0306,-2.041,-2.0263,-1.9956,-1.9862,-1.9861,-1.9928,-1.9699,-1.9606,-1.9581,-1.9384,-1.9232,-1.9101,-1.9101,-1.9101,-1.9101,-1.9101,-1.9101,-1.9101,-1.9101,-1.9101,-1.9101,-1.9101,-1.9101,-1.9101,-1.9101,-1.8917,-1.8765,-1.8765,-1.8088,-1.7516,-1.774,-1.7269,-1.682,-1.682,-1.665,-1.65,-1.65,-1.65,-1.65,-1.65,-1.65,-1.65,-1.65,-1.65,-1.65,-1.65,-1.65,-1.65,-1.65,-1.65,-1.65,-1.65,-1.65,-1.6479,-1.6457,-1.5568,-1.496,-1.4675,-1.3826,-1.3324,-1.3152,-1.3152,-1.3104,-1.3031,-1.3031,-1.3017,0.0,0.0,-2.433,-2.4229,-2.3959,-2.3599,0.0,0.0,0.0,0.0,0.0,0.0,0.0,0.0,0.0,0.0,0.0,0.0,0.0,0.0,0.0,0.0,0.0,0.0,0.0,0.0,0.0,0.0,0.0,0.0,-1.7764,-1.8262,-1.8235,-1.7577,-1.7428,-1.7177,-1.6778,-1.6555,-1.6359,-1.6166,-1.5986,-1.6194,-1.6784,-1.6974,-1.7963,-1.9517,-2.0451,-2.0829,-2.0747,-2.0257,-2.0319,-2.0615,-1.9802,-1.9638,-1.983,-1.9512,-1.9273,-1.9101,-1.9101,-1.9101,-1.9101,-1.9101,-1.9101,-1.9101,-1.9101,-1.9101,-1.9101,-1.9101,-1.9101,-1.9101,-1.9101,-1.8879,-1.8649,-1.8649,-1.8068,-1.7434,-1.7094,-1.6757,-1.65,-1.65,-1.65,-1.65,-1.65,-1.65,-1.65,-1.65,-1.65,-1.65,-1.65,-1.65,-1.65,-1.65,-1.65,-1.65,-1.65,-1.65,-1.65,-1.6479,-1.6358,-1.6216,-1.6141,-1.5288,-1.4651,-1.4342,-1.3671,-1.3224,-1.3061,-1.3061,-1.3002,-1.2905,-1.2905,-1.2905,0.0,-2.4586,0.0,-2.4238,-2.4086,0.0,0.0,0.0,0.0,0.0,0.0,0.0,0.0,0.0,0.0,0.0,0.0,0.0,0.0,0.0,0.0,0.0,0.0,0.0,0.0,0.0,0.0,0.0,0.0,0.0,-1.6848,-1.7326,-1.7275,-1.6597,-1.6495,-1.5993,-1.5036,-1.4635,-1.4733,-1.5264,-1.5127,-1.534,-1.5894,-1.6659,-1.679,-1.6553,-1.8667,-2.0044,-2.0794,-2.0747,-2.063,-2.0393,-2.0085,-1.9785,-1.9479,-1.9217,-1.9101,-1.9101,-1.9101,-1.9101,-1.9101,-1.9101,-1.9101,-1.9101,-1.9101,-1.9101,-1.9101,-1.9101,-1.9101,-1.9101,-1.9101,-1.9082,-1.9064,-1.9064,-1.8745,-1.8074,-1.6808,-1.6522,-1.65,-1.65,-1.65,-1.65,-1.65,-1.65,-1.65,-1.65,-1.65,-1.65,-1.65,-1.65,-1.65,-1.65,-1.65,-1.65,-1.65,-1.65,-1.6479,-1.6414,-1.5942,-1.5599,-1.5456,-1.4548,-1.399,-1.3839,-1.3368,-1.3051,-1.2905,-1.2905,-1.2905,-1.2905,-1.2905,-1.2905,0.0,0.0,0.0,-2.4417,-2.4257,-2.3955,0.0,0.0,0.0,0.0,0.0,0.0,0.0,0.0,0.0,0.0,0.0,0.0,0.0,0.0,0.0,0.0,0.0,0.0,0.0,0.0,0.0,0.0,0.0,0.0,-1.4512,-1.5583,-1.5661,-1.4473,-1.5124,-1.5273,-1.4785,-1.4495,-1.4427,-1.4562,-1.4413,-1.4414,-1.4517,-1.4676,-1.5014,-1.5534,-1.6282,-1.7681,-1.9499,-1.9909,-2.0318,-2.0629,-2.0359,-2.0187,-2.0015,-1.9533,-1.9365,-1.9328,-1.9157,-1.9101,-1.9101,-1.9101,-1.9101,-1.9101,-1.9101,-1.9101,-1.9101,-1.9101,-1.9101,-1.9101,-1.9101,-1.8898,-1.8611,-1.8187,-1.7848,-1.7475,-1.6786,-1.6731,-1.671,-1.6383,-1.6371,-1.6436,-1.6436,-1.6479,-1.65,-1.6436,-1.6479,-1.6479,-1.6436,-1.6479,-1.65,-1.65,-1.6457,-1.6457,-1.65,-1.6371,-1.634,-1.6392,-1.6141,-1.5923,-1.5778,-1.4937,-1.434,-1.4131,-1.344,-1.3027,-1.2905,-1.2905,-1.2905,-1.2905,-1.2905,-1.2905,-2.5259,0.0,0.0,0.0,0.0,-2.4106,0.0,0.0,0.0,0.0,0.0,0.0,0.0,0.0,0.0,0.0,0.0,0.0,0.0,0.0,0.0,0.0,0.0,0.0,0.0,0.0,0.0,0.0,0.0,0.0,-1.2777,-1.4212,-1.4702,-1.3937,-1.4572,-1.4862,-1.4707,-1.4519,-1.4344,-1.4192,-1.4068,-1.3919,-1.3763,-1.356,-1.3824,-1.4443,-1.4549,-1.5991,-1.8351,-1.9013,-1.972,-2.0365,-2.0366,-2.0375,-2.0323,-1.9836,-1.9603,-1.946,-1.9291,-1.9176,-1.9101,-1.9101,-1.9101,-1.9082,-1.9026,-1.9007,-1.8988,-1.8912,-1.895,-1.8988,-1.8912,-1.8611,-1.8226,-1.7767,-1.7482,-1.7193,-1.6795,-1.6795,-1.6752,-1.6297,-1.6275,-1.634,-1.634,-1.6383,-1.6392,-1.6392,-1.6392,-1.6392,-1.6392,-1.6392,-1.6392,-1.6392,-1.6362,-1.6362,-1.6392,-1.611,-1.5957,-1.6032,-1.5623,-1.5333,-1.5198,-1.4479,-1.4001,-1.3836,-1.3306,-1.2988,-1.2905,-1.2905,-1.2905,-1.2905,-1.2905,-1.2905,0.0,0.0,0.0,0.0,0.0,0.0,0.0,0.0,0.0,0.0,0.0,0.0,0.0,0.0,0.0,0.0,0.0,0.0,0.0,0.0,0.0,0.0,0.0,0.0,0.0,0.0,0.0,0.0,0.0,-1.2412,-1.1794,-1.3263,-1.4406,-1.5013,-1.4885,-1.4762,-1.4678,-1.455,-1.4386,-1.421,-1.4061,-1.389,-1.3694,-1.3494,-1.3278,-1.3128,-1.3573,-1.5145,-1.7435,-1.8155,-1.8858,-1.956,-2.0062,-2.0289,-2.027,-2.0061,-1.9762,-1.9479,-1.946,-1.9291,-1.9082,-1.9082,-1.9082,-1.9045,-1.8841,-1.8784,-1.876,-1.8542,-1.8625,-1.876,-1.8542,-1.8254,-1.8022,-1.8022,-1.7754,-1.7353,-1.6816,-1.6689,-1.6595,-1.6253,-1.62,-1.6188,-1.6188,-1.62,-1.6231,-1.6383,-1.6275,-1.6253,-1.6383,-1.6275,-1.62,-1.62,-1.62,-1.62,-1.62,-1.5724,-1.5389,-1.5311,-1.4376,-1.3779,-1.3634,-1.3162,-1.2929,-1.2929,-1.2905,-1.2905,-1.2905,-1.2905,-1.2905,-1.2905,-1.2905,-1.2905,-2.5529,0.0,0.0,0.0,0.0,0.0,0.0,0.0,0.0,0.0,0.0,0.0,0.0,0.0,0.0,0.0,0.0,0.0,0.0,0.0,0.0,0.0,0.0,0.0,0.0,0.0,0.0,0.0,-1.2066,-1.17,-1.0895,-1.1875,-1.281,-1.3552,-1.4236,-1.455,-1.4487,-1.4399,-1.4275,-1.4123,-1.3987,-1.3871,-1.3771,-1.356,-1.3346,-1.3097,-1.3074,-1.3658,-1.4731,-1.6316,-1.7971,-1.9497,-1.9668,-1.9842,-1.9967,-1.9729,-1.9406,-1.9039,-1.8841,-1.8736,-1.8673,-1.8673,-1.8673,-1.8673,-1.86,-1.8581,-1.8562,-1.8517,-1.8537,-1.8562,-1.8517,-1.8327,-1.8149,-1.8149,-1.7781,-1.7318,-1.6926,-1.6616,-1.6303,-1.5991,-1.5991,-1.6066,-1.6066,-1.6144,-1.6188,-1.611,-1.6166,-1.6188,-1.611,-1.6166,-1.62,-1.62,-1.611,-1.6088,-1.6188,-1.5903,-1.5568,-1.5311,-1.4949,-1.4536,-1.4118,-1.3658,-1.3416,-1.3416,-1.3065,-1.2905,-1.2905,-1.2905,-1.2905,-1.2905,-1.2905,-1.2905,-2.5602,-2.5517,0.0,0.0,0.0,0.0,0.0,-2.3911,0.0,0.0,0.0,0.0,0.0,0.0,0.0,0.0,0.0,0.0,0.0,0.0,0.0,0.0,0.0,0.0,0.0,0.0,0.0,0.0,-1.1751,-1.1486,-1.0994,-1.1386,-1.205,-1.2968,-1.3925,-1.4421,-1.4447,-1.435,-1.4249,-1.4139,-1.3941,-1.3826,-1.3756,-1.3552,-1.3329,-1.3132,-1.297,-1.3151,-1.3664,-1.4754,-1.6507,-1.8594,-1.9231,-1.9722,-2.0085,-1.9788,-1.9464,-1.9095,-1.8784,-1.8586,-1.8498,-1.8498,-1.8498,-1.8478,-1.84,-1.838,-1.8361,-1.8282,-1.8262,-1.8282,-1.8361,-1.8109,-1.7828,-1.7686,-1.7289,-1.6837,-1.65,-1.6262,-1.6032,-1.5836,-1.5859,-1.5913,-1.5913,-1.5991,-1.6035,-1.5988,-1.6022,-1.6035,-1.5988,-1.6022,-1.6025,-1.6025,-1.5957,-1.5947,-1.6025,-1.5703,-1.5424,-1.5232,-1.4754,-1.4328,-1.4025,-1.3573,-1.332,-1.332,-1.3041,-1.2905,-1.2905,-1.2905,-1.2905,-1.2905,-1.2905,-1.2905,-2.5623,-2.5604,0.0,0.0,0.0,0.0,-2.468,-2.3999,0.0,0.0,0.0,0.0,0.0,0.0,0.0,0.0,0.0,0.0,0.0,0.0,0.0,0.0,0.0,0.0,0.0,-1.1803,-1.177,-1.1526,-1.1493,-1.147,-1.1383,-1.1329,-1.1762,-1.2755,-1.365,-1.4211,-1.4416,-1.4325,-1.4224,-1.4143,-1.3916,-1.3756,-1.3671,-1.3486,-1.3329,-1.3201,-1.3051,-1.3218,-1.3582,-1.3516,-1.4912,-1.7223,-1.8532,-1.9521,-2.0179,-1.9893,-1.9606,-1.9332,-1.8968,-1.8674,-1.8439,-1.8439,-1.8439,-1.84,-1.8222,-1.8163,-1.8123,-1.7942,-1.7902,-1.7942,-1.8123,-1.7814,-1.7385,-1.7086,-1.668,-1.6281,-1.5991,-1.5859,-1.5792,-1.5792,-1.5792,-1.5792,-1.5792,-1.5792,-1.5836,-1.5957,-1.5869,-1.5836,-1.5957,-1.5869,-1.5792,-1.5792,-1.5792,-1.577,-1.5726,-1.5334,-1.5062,-1.4949,-1.4082,-1.3573,-1.3525,-1.3113,-1.2905,-1.2905,-1.2905,-1.2905,-1.2905,-1.2905,-1.2905,-1.2905,-1.2905,-1.2905,-2.5681,-2.5645,-2.56,-2.5547,0.0,0.0,-2.426,-2.3878,-2.348,0.0,0.0,0.0,0.0,0.0,0.0,0.0,0.0,0.0,0.0,0.0,0.0,0.0,0.0,0.0,0.0,-1.276,-1.2193,-1.1611,-1.1143,-1.061,-1.0013,-1.044,-1.0917,-1.1456,-1.2416,-1.3263,-1.3931,-1.4023,-1.4005,-1.3873,-1.3766,-1.3661,-1.3545,-1.3495,-1.3371,-1.3192,-1.2998,-1.2906,-1.2922,-1.3262,-1.4599,-1.6423,-1.6714,-1.7731,-1.9017,-1.8951,-1.8822,-1.8674,-1.8597,-1.8319,-1.8023,-1.8023,-1.8023,-1.8003,-1.7963,-1.7963,-1.7942,-1.7902,-1.7902,-1.7902,-1.7942,-1.7882,-1.7788,-1.772,-1.7233,-1.6769,-1.6705,-1.6231,-1.5792,-1.5792,-1.5792,-1.5792,-1.5792,-1.5792,-1.5814,-1.5836,-1.5814,-1.5814,-1.5836,-1.5814,-1.5792,-1.5792,-1.5792,-1.5659,-1.5266,-1.5153,-1.4754,-1.3941,-1.3716,-1.343,-1.3041,-1.2954,-1.2905,-1.2905,-1.2905,-1.2905,-1.2905,-1.2905,-1.2905,-1.2905,-1.2905,-1.2905,-2.5692,-2.5684,-2.5655,-2.5641,0.0,0.0,0.0,-2.3995,-2.3386,-2.3639,0.0,0.0,0.0,0.0,0.0,0.0,0.0,0.0,0.0,0.0,0.0,0.0,0.0,0.0,0.0,-1.4228,-1.3627,-1.273,-1.1646,-1.0769,-1.008,-1.0279,-1.0742,-1.1525,-1.2495,-1.3417,-1.4288,-1.4405,-1.4237,-1.3806,-1.3728,-1.3628,-1.3511,-1.3471,-1.3371,-1.3235,-1.3112,-1.295,-1.2808,-1.2977,-1.3937,-1.5358,-1.5958,-1.712,-1.8438,-1.8227,-1.82,-1.8275,-1.8068,-1.7965,-1.7902,-1.7902,-1.7902,-1.7902,-1.7902,-1.7902,-1.7902,-1.7902,-1.7902,-1.7902,-1.7902,-1.7902,-1.7862,-1.7686,-1.7385,-1.7094,-1.6939,-1.6457,-1.6054,-1.6054,-1.5913,-1.5792,-1.5792,-1.5792,-1.5792,-1.5792,-1.5792,-1.5792,-1.5792,-1.5792,-1.5792,-1.5792,-1.5792,-1.5703,-1.548,-1.5446,-1.5131,-1.4385,-1.4106,-1.3729,-1.3272,-1.3017,-1.2905,-1.2905,-1.2905,-1.2905,-1.2905,-1.2905,-1.2905,-1.2905,-1.2905,-1.2905,0.0,0.0,0.0,0.0,0.0,-2.4762,0.0,0.0,0.0,-2.4324,0.0,0.0,0.0,0.0,0.0,0.0,0.0,0.0,0.0,0.0,0.0,0.0,0.0,0.0,0.0,-1.5389,-1.4744,-1.3731,-1.2345,-1.1342,-1.0881,-1.0498,-1.0812,-1.1941,-1.2754,-1.3669,-1.4702,-1.4768,-1.4516,-1.3945,-1.376,-1.3614,-1.3478,-1.337,-1.332,-1.3278,-1.3181,-1.3055,-1.2892,-1.2776,-1.3314,-1.4304,-1.5384,-1.6701,-1.7961,-1.757,-1.7642,-1.788,-1.7489,-1.7503,-1.7739,-1.7739,-1.7807,-1.7902,-1.7902,-1.7902,-1.7902,-1.7902,-1.7902,-1.7902,-1.7902,-1.7902,-1.7828,-1.755,-1.7447,-1.7323,-1.696,-1.6573,-1.6269,-1.6216,-1.5988,-1.5792,-1.5792,-1.5792,-1.5792,-1.5792,-1.5792,-1.5792,-1.5792,-1.5792,-1.5792,-1.5792,-1.5792,-1.577,-1.5681,-1.5659,-1.5446,-1.4994,-1.4536,-1.4095,-1.3621,-1.3162,-1.2905,-1.2905,-1.2905,-1.2905,-1.2905,-1.2905,-1.2905,-1.2905,-1.2905,-1.2905,0.0,0.0,0.0,0.0,-2.5533,0.0,0.0,0.0,-2.3737,-2.2379,0.0,0.0,0.0,0.0,0.0,0.0,0.0,0.0,0.0,0.0,0.0,0.0,0.0,0.0,0.0,0.0,-1.4054,-1.3569,-1.2637,-1.2112,-1.2105,-1.0956,-1.0794,-1.1884,-1.2201,-1.3014,-1.4424,-1.4446,-1.4473,-1.4504,-1.3903,-1.3546,-1.3405,-1.3218,-1.3158,-1.3201,-1.3007,-1.2915,-1.2901,-1.2883,-1.3093,-1.3479,-1.4165,-1.5608,-1.7256,-1.6924,-1.6997,-1.7265,-1.6923,-1.6932,-1.7095,-1.7095,-1.7468,-1.7902,-1.7902,-1.7902,-1.7902,-1.7902,-1.7902,-1.7902,-1.7902,-1.7902,-1.7882,-1.7862,-1.7625,-1.7323,-1.696,-1.6573,-1.6216,-1.5913,-1.5836,-1.5792,-1.5792,-1.5792,-1.5792,-1.5792,-1.5792,-1.5792,-1.5792,-1.5792,-1.5792,-1.5792,-1.5792,-1.5637,-1.5221,-1.5176,-1.4937,-1.4421,-1.4328,-1.4095,-1.3621,-1.3162,-1.2905,-1.2905,-1.2905,-1.2905,-1.2905,-1.2905,-1.2905,-1.2905,-1.2905,-1.2905,0.0,0.0,0.0,0.0,0.0,0.0,-2.515,0.0,-2.3476,0.0,0.0,0.0,0.0,0.0,0.0,0.0,0.0,0.0,0.0,0.0,0.0,0.0,0.0,0.0,0.0,0.0,0.0,0.0,0.0,-1.3099,-1.2889,-1.1829,-1.1629,-1.2504,-1.2528,-1.3261,-1.4723,-1.4977,-1.486,-1.437,-1.4324,-1.3989,-1.3396,-1.3192,-1.3131,-1.3192,-1.2989,-1.2906,-1.2896,-1.2911,-1.3125,-1.3488,-1.3619,-1.4606,-1.5945,-1.6198,-1.6349,-1.6438,-1.6275,-1.6484,-1.688,-1.7289,-1.7618,-1.7902,-1.7902,-1.7902,-1.7902,-1.7902,-1.7902,-1.7902,-1.7902,-1.7902,-1.7902,-1.7902,-1.7632,-1.7352,-1.722,-1.671,-1.6247,-1.6107,-1.5935,-1.5792,-1.5792,-1.5792,-1.5792,-1.5792,-1.5792,-1.5792,-1.5792,-1.5792,-1.5792,-1.5792,-1.5792,-1.5726,-1.5513,-1.5525,-1.5164,-1.4351,-1.38,-1.3406,-1.32,-1.3002,-1.2905,-1.2905,-1.2905,-1.2905,-1.2905,-1.2905,-1.2905,-1.2905,-1.2905,-1.2905,-2.5557,0.0,0.0,0.0,0.0,0.0,0.0,0.0,0.0,0.0,0.0,0.0,0.0,0.0,0.0,0.0,0.0,0.0,0.0,0.0,0.0,0.0,0.0,0.0,0.0,0.0,0.0,0.0,0.0,0.0,-1.4029,-1.3035,-1.2729,-1.331,-1.3186,-1.376,-1.5113,-1.5182,-1.4945,-1.442,-1.4414,-1.4033,-1.3303,-1.3166,-1.313,-1.3166,-1.2988,-1.2896,-1.2878,-1.2876,-1.3041,-1.3299,-1.328,-1.3748,-1.4513,-1.5309,-1.5551,-1.5518,-1.5515,-1.5927,-1.659,-1.7397,-1.7706,-1.7788,-1.7788,-1.7788,-1.7788,-1.7788,-1.7788,-1.7788,-1.7788,-1.7788,-1.7788,-1.7788,-1.7645,-1.7447,-1.7365,-1.6879,-1.6432,-1.6312,-1.6032,-1.5792,-1.5792,-1.5792,-1.5792,-1.5792,-1.5792,-1.5792,-1.5792,-1.5792,-1.5792,-1.5792,-1.5792,-1.5792,-1.5792,-1.5792,-1.5424,-1.4559,-1.3729,-1.3224,-1.3089,-1.2978,-1.2905,-1.2905,-1.2905,-1.2905,-1.2905,-1.2905,-1.2905,-1.2905,-1.2905,-1.2905,0.0,0.0,0.0,-2.54,0.0,0.0,0.0,0.0,-2.4963,0.0,0.0,0.0,0.0,0.0,0.0,0.0,0.0,0.0,0.0,0.0,0.0,0.0,0.0,0.0,0.0,0.0,0.0,0.0,0.0,0.0,-1.5803,-1.4607,-1.4008,-1.4167,-1.3968,-1.4392,-1.5474,-1.4654,-1.4497,-1.4957,-1.3937,-1.3337,-1.3113,-1.3094,-1.3094,-1.3104,-1.2959,-1.2857,-1.2794,-1.2794,-1.2694,-1.2589,-1.3028,-1.3107,-1.31,-1.416,-1.4551,-1.4542,-1.4539,-1.5108,-1.6016,-1.7143,-1.7516,-1.7516,-1.7516,-1.7516,-1.7516,-1.7516,-1.7516,-1.7516,-1.7516,-1.7516,-1.7516,-1.7516,-1.7604,-1.7597,-1.7282,-1.7031,-1.6757,-1.6389,-1.6032,-1.5792,-1.5792,-1.5792,-1.5792,-1.5792,-1.5792,-1.5792,-1.5792,-1.5792,-1.5792,-1.5792,-1.5792,-1.5792,-1.5792,-1.5792,-1.5592,-1.5108,-1.4559,-1.4048,-1.3597,-1.3138,-1.2905,-1.2905,-1.2905,-1.2905,-1.2905,-1.2905,-1.2905,-1.2905,-1.2905,-1.2905,0.0,0.0,-2.3827,-2.4405,0.0,0.0,0.0,0.0,0.0,0.0,0.0,0.0,0.0,0.0,0.0,0.0,0.0,0.0,0.0,0.0,0.0,0.0,0.0,0.0,0.0,0.0,0.0,0.0,0.0,0.0,0.0,-1.6008,-1.5504,-1.4428,-1.4452,-1.456,-1.4701,-1.5072,-1.4855,-1.4077,-1.4077,-1.3453,-1.2306,-1.2398,-1.2381,-1.2253,-1.2718,-1.286,-1.2794,-1.285,-1.2757,-1.2571,-1.2644,-1.2482,-1.2437,-1.4046,-1.4493,-1.4357,-1.4766,-1.5407,-1.6145,-1.6671,-1.7149,-1.7496,-1.7496,-1.7496,-1.7496,-1.7496,-1.7496,-1.7496,-1.7496,-1.7496,-1.7496,-1.7496,-1.7365,-1.7212,-1.7094,-1.6842,-1.6488,-1.6051,-1.601,-1.5969,-1.5647,-1.5603,-1.5647,-1.5792,-1.5792,-1.5792,-1.5792,-1.5792,-1.5792,-1.5792,-1.5792,-1.5792,-1.5792,-1.5187,-1.4743,-1.4582,-1.3823,-1.343,-1.3586,-1.3162,-1.2905,-1.2905,-1.2905,-1.2905,-1.2905,-1.2905,-1.2905,-1.2905,-1.2905,-1.2905,-2.3636,-2.3223,0.0,-2.3493,-2.3255,0.0,-2.3525,0.0,0.0,0.0,0.0,0.0,0.0,0.0,0.0,0.0,0.0,0.0,0.0,0.0,0.0,0.0,0.0,0.0,0.0,0.0,-1.71,-1.6932,0.0,0.0,0.0,0.0,-1.6693,-1.5283,-1.5212,-1.4994,-1.4584,-1.4909,-1.4485,-1.3285,-1.347,-1.283,-1.1482,-1.1658,-1.176,-1.1833,-1.2333,-1.2606,-1.2722,-1.2778,-1.275,-1.2655,-1.2506,-1.2256,-1.2167,-1.3729,-1.4393,-1.4615,-1.5201,-1.5675,-1.6056,-1.6466,-1.691,-1.7277,-1.7368,-1.7393,-1.7393,-1.7393,-1.7393,-1.7393,-1.7393,-1.7393,-1.7393,-1.7393,-1.7144,-1.6884,-1.6884,-1.6522,-1.6098,-1.58,-1.5768,-1.5714,-1.5401,-1.5446,-1.5536,-1.5669,-1.5691,-1.5691,-1.5691,-1.577,-1.5792,-1.5792,-1.5792,-1.5792,-1.5792,-1.521,-1.4674,-1.4317,-1.3729,-1.3382,-1.3344,-1.3065,-1.2905,-1.2905,-1.2905,-1.2905,-1.2905,-1.2905,-1.2905,-1.2905,-1.2905,-1.2905]},{"header":{"parameterUnit":"m.s-1","parameterCategory":1,"la1":30.6,"la2":29.2853,"lo1":-89.7004,"lo2":-87.6739,"dy":0.0162,"dx":0.0183,"nx":112,"ny":82,"refTime":"2024-07-11T06:00:00:Z","depth":0,"parameterNumber":3,"parameterNumberName":"V-component_of_WINDS"},"data":[0.0,0.0,0.0,0.0,0.0,0.0,0.0,0.0,0.0,0.0,0.0,0.0,0.0,0.0,0.0,0.0,0.0,0.0,0.0,0.0,0.0,0.0,0.0,0.0,0.0,0.0,0.0,0.0,0.0,0.0,0.0,0.0,0.0,0.0,0.0,0.0,0.0,0.0,0.0,0.0,0.0,0.0,0.0,0.0,0.0,0.0,0.0,0.0,0.0,0.0,0.0,0.0,0.0,0.0,0.0,0.0,0.0,0.0,0.0,0.0,0.0,0.0,0.0,0.0,0.0,0.0,0.0,0.0,0.0,0.0,0.0,0.0,0.0,0.0,0.0,0.0,0.0,0.0,0.0,0.0,0.0,0.0,0.0,0.0,0.0,0.0,0.0,0.0,0.0,0.0,-1.33,-1.3633,-1.3935,-1.4088,-1.4088,-1.4321,-1.4303,-1.4009,0.0,0.0,0.0,0.0,0.0,0.0,0.0,0.0,0.0,0.0,0.0,0.0,0.0,0.0,0.0,0.0,0.0,0.0,0.0,0.0,0.0,0.0,0.0,0.0,0.0,0.0,0.0,0.0,0.0,0.0,0.0,0.0,0.0,0.0,0.0,0.0,0.0,0.0,0.0,0.0,0.0,0.0,0.0,0.0,0.0,0.0,0.0,0.0,0.0,0.0,0.0,0.0,0.0,0.0,0.0,0.0,0.0,0.0,0.0,0.0,0.0,0.0,0.0,0.0,0.0,0.0,0.0,0.0,0.0,0.0,0.0,0.0,0.0,0.0,0.0,0.0,0.0,0.0,0.0,0.0,0.0,0.0,0.0,0.0,0.0,0.0,0.0,0.0,0.0,0.0,0.0,0.0,0.0,0.0,0.0,0.0,0.0,0.0,0.0,0.0,0.0,0.0,0.0,0.0,-1.3212,-1.3961,-1.4062,-1.4088,-1.4088,-1.4447,-1.4673,-1.4738,0.0,0.0,0.0,0.0,0.0,0.0,0.0,0.0,0.0,0.0,0.0,0.0,0.0,0.0,0.0,0.0,0.0,0.0,0.0,0.0,0.0,0.0,0.0,0.0,0.0,0.0,0.0,0.0,0.0,0.0,0.0,0.0,0.0,0.0,0.0,0.0,0.0,0.0,0.0,0.0,0.0,0.0,0.0,0.0,0.0,0.0,0.0,0.0,0.0,0.0,0.0,0.0,0.0,0.0,0.0,0.0,0.0,0.0,0.0,0.0,0.0,0.0,0.0,0.0,0.0,0.0,0.0,0.0,0.0,0.0,0.0,0.0,0.0,0.0,0.0,0.0,0.0,0.0,0.0,0.0,0.0,0.0,0.0,0.0,0.0,0.0,0.0,0.0,0.0,0.0,0.0,0.0,0.0,0.0,0.0,0.0,0.0,0.0,0.0,0.0,0.0,0.0,0.0,-1.3114,-1.3485,-1.4041,-1.4088,-1.4124,-1.4243,-1.4977,-1.5312,-1.5095,-1.4852,0.0,0.0,0.0,0.0,0.0,0.0,0.0,0.0,0.0,0.0,0.0,0.0,0.0,0.0,0.0,0.0,0.0,0.0,0.0,0.0,0.0,0.0,0.0,0.0,0.0,0.0,0.0,0.0,0.0,0.0,0.0,0.0,0.0,0.0,0.0,0.0,0.0,0.0,0.0,0.0,0.0,0.0,0.0,0.0,0.0,0.0,0.0,0.0,0.0,0.0,0.0,0.0,0.0,0.0,0.0,0.0,0.0,0.0,0.0,0.0,0.0,0.0,0.0,0.0,0.0,0.0,0.0,0.0,0.0,0.0,0.0,0.0,0.0,0.0,0.0,0.0,0.0,0.0,0.0,0.0,0.0,0.0,0.0,0.0,0.0,0.0,0.0,0.0,0.0,0.0,0.0,0.0,0.0,0.0,0.0,0.0,0.0,0.0,0.0,0.0,0.0,0.0,-1.3783,-1.4117,-1.4391,-1.458,-1.4776,-1.5012,-1.5718,-1.6069,-1.5813,-1.5791,0.0,0.0,0.0,0.0,0.0,0.0,0.0,0.0,0.0,0.0,0.0,0.0,0.0,0.0,0.0,0.0,0.0,0.0,0.0,0.0,0.0,0.0,0.0,0.0,0.0,0.0,0.0,0.0,0.0,0.0,0.0,0.0,0.0,0.0,0.0,0.0,0.0,0.0,0.0,0.0,0.0,0.0,0.0,0.0,0.0,0.0,0.0,0.0,0.0,0.0,0.0,0.0,0.0,0.0,0.0,0.0,0.0,0.0,0.0,0.0,0.0,0.0,0.0,0.0,0.0,0.0,0.0,0.0,0.0,0.0,0.0,0.0,0.0,0.0,0.0,0.0,0.0,0.0,0.0,0.0,0.0,0.0,0.0,0.0,0.0,0.0,0.0,0.0,0.0,0.0,0.0,0.0,0.0,0.0,0.0,0.0,0.0,0.0,0.0,0.0,0.0,0.0,-1.4308,-1.5289,-1.5311,-1.6049,-1.6609,-1.6797,-1.6709,-1.6916,-1.7503,-1.6623,0.0,0.0,0.0,0.0,0.0,0.0,0.0,0.0,0.0,0.0,0.0,0.0,0.0,0.0,0.0,0.0,0.0,0.0,0.0,0.0,0.0,0.0,0.0,0.0,0.0,0.0,0.0,0.0,0.0,0.0,0.0,0.0,0.0,0.0,0.0,0.0,0.0,0.0,0.0,0.0,0.0,0.0,0.0,0.0,0.0,0.0,0.0,0.0,0.0,0.0,0.0,0.0,0.0,0.0,0.0,0.0,0.0,0.0,0.0,0.0,0.0,0.0,0.0,0.0,0.0,0.0,0.0,0.0,0.0,0.0,0.0,0.0,0.0,0.0,0.0,0.0,0.0,0.0,0.0,0.0,0.0,0.0,0.0,0.0,0.0,0.0,0.0,0.0,0.0,0.0,0.0,0.0,0.0,0.0,0.0,0.0,0.0,0.0,0.0,0.0,0.0,0.0,-1.4583,-1.5372,0.0,-1.6494,-1.6725,-1.6829,-1.7243,-1.752,-1.7524,0.0,0.0,0.0,0.0,0.0,0.0,0.0,0.0,0.0,0.0,0.0,0.0,0.0,0.0,0.0,0.0,0.0,0.0,0.0,0.0,0.0,0.0,0.0,0.0,0.0,0.0,0.0,0.0,0.0,0.0,0.0,0.0,0.0,0.0,0.0,0.0,0.0,0.0,0.0,0.0,0.0,0.0,0.0,0.0,0.0,0.0,0.0,0.0,0.0,0.0,0.0,0.0,0.0,0.0,0.0,0.0,0.0,0.0,0.0,0.0,0.0,0.0,0.0,0.0,0.0,0.0,0.0,0.0,0.0,0.0,0.0,0.0,0.0,0.0,0.0,0.0,0.0,0.0,0.0,0.0,0.0,0.0,0.0,0.0,0.0,0.0,0.0,0.0,0.0,0.0,0.0,0.0,0.0,0.0,0.0,0.0,0.0,0.0,0.0,0.0,0.0,0.0,-1.4326,-1.5181,-1.599,0.0,-1.7118,-1.726,-1.7317,-1.7807,-1.7944,-1.7614,0.0,0.0,0.0,0.0,0.0,0.0,0.0,0.0,0.0,0.0,0.0,0.0,0.0,0.0,0.0,0.0,0.0,0.0,0.0,0.0,0.0,0.0,0.0,0.0,0.0,0.0,0.0,0.0,0.0,0.0,0.0,0.0,0.0,0.0,0.0,0.0,0.0,0.0,0.0,0.0,0.0,0.0,0.0,0.0,0.0,0.0,0.0,0.0,0.0,0.0,0.0,0.0,0.0,0.0,0.0,0.0,0.0,0.0,0.0,0.0,0.0,0.0,0.0,0.0,0.0,0.0,0.0,0.0,0.0,0.0,0.0,0.0,0.0,0.0,0.0,0.0,0.0,0.0,0.0,0.0,0.0,0.0,0.0,0.0,0.0,0.0,0.0,0.0,0.0,0.0,0.0,0.0,0.0,0.0,0.0,0.0,0.0,0.0,0.0,0.0,0.0,0.0,-1.4456,-1.6194,-1.7402,-1.7402,-1.799,-1.8471,-1.8682,-1.8457,-1.8212,0.0,0.0,0.0,0.0,0.0,0.0,0.0,0.0,0.0,0.0,0.0,0.0,0.0,0.0,0.0,0.0,0.0,0.0,0.0,0.0,0.0,0.0,0.0,0.0,0.0,0.0,0.0,0.0,0.0,0.0,0.0,0.0,0.0,0.0,0.0,0.0,0.0,0.0,0.0,0.0,0.0,0.0,0.0,0.0,0.0,0.0,0.0,0.0,0.0,0.0,0.0,0.0,0.0,0.0,0.0,0.0,0.0,0.0,0.0,0.0,0.0,0.0,0.0,0.0,0.0,0.0,0.0,0.0,0.0,0.0,0.0,0.0,0.0,0.0,0.0,0.0,0.0,0.0,0.0,0.0,0.0,0.0,0.0,0.0,0.0,0.0,0.0,0.0,0.0,0.0,0.0,0.0,0.0,0.0,0.0,0.0,0.0,0.0,0.0,0.0,0.0,0.0,0.0,-1.5271,-1.6458,-1.7427,-1.8049,-1.8406,-1.856,-1.8428,-1.8366,-1.8097,-1.7617,0.0,0.0,0.0,0.0,0.0,0.0,0.0,0.0,0.0,0.0,0.0,0.0,0.0,0.0,0.0,0.0,0.0,0.0,0.0,0.0,0.0,0.0,0.0,0.0,0.0,0.0,0.0,0.0,0.0,0.0,0.0,0.0,0.0,0.0,0.0,0.0,0.0,0.0,0.0,0.0,0.0,0.0,0.0,0.0,0.0,0.0,0.0,0.0,0.0,0.0,0.0,0.0,0.0,0.0,0.0,0.0,0.0,0.0,0.0,0.0,0.0,0.0,0.0,0.0,0.0,0.0,0.0,0.0,0.0,0.0,0.0,0.0,0.0,0.0,0.0,0.0,0.0,0.0,0.0,0.0,0.0,0.0,0.0,0.0,0.0,0.0,0.0,0.0,0.0,0.0,0.0,0.0,0.0,0.0,0.0,0.0,0.0,0.0,0.0,0.0,0.0,0.0,-1.5781,-1.6838,-1.7706,-1.8227,-1.8303,-1.8247,-1.8059,-1.8145,-1.7959,-1.7511,0.0,0.0,0.0,0.0,0.0,0.0,0.0,0.0,0.0,0.0,0.0,0.0,0.0,0.0,0.0,0.0,0.0,0.0,0.0,0.0,0.0,0.0,0.0,0.0,0.0,0.0,0.0,0.0,0.0,0.0,0.0,0.0,0.0,0.0,0.0,0.0,0.0,0.0,0.0,0.0,0.0,0.0,0.0,0.0,0.0,0.0,0.0,0.0,0.0,0.0,0.0,0.0,0.0,0.0,0.0,0.0,0.0,0.0,0.0,0.0,0.0,0.0,0.0,0.0,0.0,0.0,0.0,0.0,0.0,0.0,0.0,0.0,0.0,0.0,0.0,0.0,0.0,0.0,0.0,0.0,0.0,0.0,0.0,0.0,0.0,0.0,0.0,0.0,0.0,0.0,0.0,0.0,0.0,0.0,0.0,0.0,0.0,0.0,0.0,0.0,0.0,0.0,-1.5965,-1.7163,-1.7998,-1.7998,-1.782,-1.7682,-1.7682,-1.791,-1.7923,-1.7635,0.0,0.0,0.0,0.0,0.0,0.0,0.0,0.0,0.0,0.0,0.0,0.0,0.0,0.0,0.0,0.0,0.0,0.0,0.0,0.0,0.0,0.0,0.0,0.0,0.0,0.0,0.0,0.0,0.0,0.0,0.0,0.0,0.0,0.0,0.0,0.0,0.0,0.0,0.0,0.0,0.0,0.0,0.0,0.0,0.0,0.0,0.0,0.0,0.0,0.0,0.0,0.0,0.0,0.0,0.0,0.0,0.0,0.0,0.0,0.0,-0.9241,0.0,0.0,0.0,0.0,0.0,0.0,0.0,0.0,0.0,0.0,0.0,0.0,0.0,0.0,0.0,0.0,0.0,0.0,0.0,0.0,0.0,0.0,0.0,0.0,0.0,0.0,0.0,0.0,0.0,0.0,0.0,0.0,0.0,0.0,0.0,0.0,0.0,0.0,0.0,0.0,0.0,-1.5978,-1.6769,-1.7326,-1.7326,-1.7392,-1.7444,-1.7444,-1.7947,-1.8048,-1.7635,-1.7495,0.0,0.0,0.0,0.0,0.0,0.0,0.0,0.0,0.0,0.0,0.0,0.0,0.0,0.0,0.0,0.0,0.0,0.0,0.0,0.0,0.0,0.0,0.0,0.0,0.0,0.0,0.0,0.0,0.0,0.0,0.0,0.0,0.0,0.0,0.0,0.0,0.0,0.0,0.0,0.0,0.0,0.0,0.0,0.0,0.0,0.0,0.0,0.0,0.0,0.0,0.0,0.0,0.0,0.0,0.0,0.0,0.0,0.0,0.0,0.0,-1.0948,0.0,0.0,0.0,0.0,0.0,0.0,0.0,0.0,0.0,0.0,0.0,0.0,0.0,0.0,0.0,0.0,0.0,0.0,0.0,0.0,0.0,0.0,0.0,0.0,0.0,0.0,0.0,0.0,0.0,0.0,0.0,0.0,0.0,0.0,0.0,0.0,0.0,0.0,0.0,0.0,-1.6115,-1.6775,-1.7232,-1.7232,-1.734,-1.7527,-1.7799,-1.8117,-1.8271,-1.8174,-1.7936,0.0,0.0,0.0,0.0,0.0,0.0,0.0,0.0,0.0,0.0,0.0,0.0,0.0,0.0,0.0,0.0,0.0,0.0,0.0,0.0,0.0,0.0,0.0,0.0,0.0,0.0,0.0,0.0,0.0,0.0,0.0,0.0,0.0,0.0,0.0,0.0,0.0,0.0,0.0,0.0,0.0,0.0,0.0,0.0,0.0,0.0,0.0,0.0,0.0,0.0,0.0,0.0,0.0,-0.6999,-0.748,-0.7821,-0.8656,-0.9817,-1.115,-1.1071,-1.1872,-1.3132,0.0,0.0,0.0,0.0,0.0,0.0,0.0,0.0,0.0,0.0,0.0,0.0,0.0,0.0,0.0,0.0,0.0,0.0,0.0,0.0,0.0,0.0,0.0,0.0,0.0,-1.5055,-1.5529,0.0,0.0,0.0,0.0,0.0,0.0,0.0,0.0,0.0,0.0,0.0,0.0,-1.6256,-1.6802,-1.721,-1.7256,-1.7275,-1.753,-1.8121,-1.8263,-1.8472,-1.8774,-1.8445,-1.8082,0.0,0.0,0.0,0.0,0.0,0.0,0.0,0.0,0.0,0.0,0.0,0.0,0.0,0.0,0.0,0.0,0.0,0.0,0.0,0.0,0.0,0.0,0.0,0.0,0.0,0.0,0.0,0.0,0.0,0.0,0.0,0.0,0.0928,0.0983,0.0,0.0,0.0,0.0,0.0,0.0,0.0,0.0,0.0,0.0,0.0,0.0,0.0,0.0,-0.6128,-0.6131,-0.6248,-0.648,-0.6475,-0.6945,-0.7821,-0.8808,-0.9836,-1.0911,-1.175,0.0,-1.3042,-1.3265,0.0,0.0,0.0,0.0,0.0,0.0,0.0,0.0,0.0,0.0,0.0,0.0,0.0,0.0,0.0,0.0,0.0,0.0,0.0,0.0,0.0,0.0,-1.5787,-1.5858,-1.637,-1.7032,0.0,-1.6579,-1.562,-1.643,0.0,0.0,0.0,0.0,0.0,0.0,0.0,0.0,-1.6465,-1.6342,-1.6418,-1.6746,-1.6785,-1.7047,-1.7622,-1.8151,-1.8583,-1.8774,-1.8803,-1.8776,-1.8722,-1.7765,0.0,0.0,0.0,0.0,0.0,0.0,0.0,0.0,0.0,0.0,0.0,0.0,0.0,0.0,0.0,0.0,0.0,0.0,0.0,0.0,0.0,0.0,0.0,0.0,0.0,0.0,0.0,0.0,0.0,0.0944,0.0984,0.1042,0.0712,0.0102,0.0,0.0,0.0,0.0,0.0,0.0,0.0,0.0,0.0,-0.5302,-0.5587,-0.5928,-0.6311,-0.6437,-0.6478,-0.6511,-0.7462,-0.8185,-0.8689,-1.0158,-1.1136,-1.1657,-1.2114,-1.2526,-1.2961,-1.3092,-1.328,-1.345,0.0,0.0,0.0,0.0,0.0,-1.405,-1.39,-1.3792,0.0,0.0,0.0,0.0,0.0,0.0,0.0,0.0,0.0,0.0,0.0,0.0,0.0,-1.6715,-1.7222,-1.774,-1.845,-1.8128,-1.7711,0.0,-1.7537,-1.7214,-1.6954,0.0,0.0,0.0,0.0,-1.6507,-1.6456,-1.6427,-1.6545,-1.6835,-1.7061,-1.7506,-1.8207,-1.8529,-1.8841,-1.9208,-1.9283,-1.9329,-1.9471,-1.8835,-1.8298,0.0,0.0,0.0,0.0,0.0,0.0,0.0,0.0,0.0,0.0,0.0,0.0,0.0,0.0,0.0,0.0,0.0,0.0,0.0,0.0,0.0,0.0,0.0,0.0,0.0,0.0,0.0,0.0,0.103,0.1036,0.103,0.0615,0.0073,0.0,0.0,0.0,0.0,0.0,0.0,-0.4876,-0.501,-0.5235,-0.5598,-0.5933,-0.6212,-0.6544,-0.6672,-0.6681,-0.6569,-0.8149,-0.9038,-0.9372,-1.095,-1.1922,-1.2305,-1.2342,-1.2562,-1.2907,-1.2984,-1.3252,-1.3604,-1.3704,-1.3886,-1.4093,-1.4201,-1.4292,-1.4325,-1.416,-1.4102,-1.4029,-1.3352,0.0,-1.3057,-1.2624,0.0,0.0,0.0,0.0,-1.4159,-1.4951,0.0,-1.6108,-1.7147,-1.7611,-1.797,-1.8499,-1.8773,-1.89,0.0,-1.8527,-1.8212,-1.7451,0.0,0.0,0.0,0.0,-1.6624,-1.6551,-1.6533,-1.66,-1.6854,-1.7252,-1.7788,-1.856,-1.8803,-1.9131,-1.9572,-1.9769,-1.9933,-2.0066,-1.9796,-1.9339,-1.8691,0.0,0.0,0.0,0.0,0.0,0.0,0.0,0.0,0.0,0.0,0.0,0.0,0.0,0.0,0.0,0.0,0.0,0.0,0.0,0.0,0.0,0.0,0.0,0.0,0.0,0.0,0.0,0.0,0.0,0.0935,-0.0443,0.0,0.0,0.0,0.0,-0.3614,-0.4335,-0.4925,-0.5156,-0.5175,-0.5436,-0.5978,-0.616,-0.6487,-0.6876,-0.6873,-0.6841,-0.6688,-0.7616,-0.8494,-0.9334,-1.0378,-1.1391,-1.2305,-1.2489,-1.2709,-1.2921,-1.3252,-1.3442,-1.3587,-1.4193,-1.4295,-1.4129,-1.4461,-1.4783,-1.4946,-1.4317,-1.4271,-1.4351,-1.3682,-1.3272,-1.2988,-1.2959,-1.2959,0.0,0.0,-1.4019,-1.4328,-1.5761,-1.5874,-1.5926,-1.7108,-1.7405,-1.7638,-1.8411,-1.8334,-1.8311,0.0,-1.889,-1.8553,-1.8514,0.0,-1.7944,-1.7944,-1.7386,-1.6971,-1.6971,-1.6377,-1.6077,-1.6487,-1.6938,-1.7464,-1.8092,-1.8828,-1.9386,-1.9572,-2.0183,-2.056,-2.057,-2.0446,-2.0347,-2.0297,-1.8851,0.0,0.0,0.0,0.0,0.0,0.0,0.0,0.0,0.0,0.0,0.0,0.0,0.0,0.0,0.0,0.0,0.0,0.0,0.0,0.0,0.0,0.0,0.0,0.0,0.0,0.0,0.0,0.0,0.0693,-0.0384,0.0,-0.0155,-0.2491,-0.3709,-0.2934,-0.4231,-0.5097,-0.5181,-0.5499,-0.5819,-0.6166,-0.6471,-0.6762,-0.7021,-0.7021,-0.7033,-0.7098,-0.8442,-0.9285,-0.9746,-1.114,-1.1959,-1.2305,-1.2526,-1.2709,-1.2943,-1.3454,-1.3763,-1.3891,-1.415,-1.4483,-1.4804,-1.4955,-1.5072,-1.5125,-1.4888,-1.4827,-1.4807,-1.4312,-1.3755,-1.3323,-1.3323,-1.3323,-1.3496,-1.4356,-1.4859,-1.5292,-1.6174,-1.6572,-1.688,-1.7427,-1.733,-1.7313,-1.7952,-1.8005,-1.8029,-1.8337,-1.8291,-1.8198,-1.8198,-1.8208,-1.8079,-1.7793,-1.738,-1.7028,-1.6717,-1.6437,-1.6387,-1.6657,-1.7114,-1.7655,-1.8244,-1.8752,-1.918,-1.9447,-1.9913,-2.0124,-2.0015,-1.9973,-1.978,-1.9436,-1.9241,-1.8552,0.0,0.0,0.0,0.0,0.0,0.0,0.0,0.0,0.0,0.0,0.0,0.0,0.0,0.0,0.0,0.0,0.0,0.0,0.0,0.0,0.0,0.0,0.0,0.0,0.0,0.0,0.0525,0.0508,-0.0314,-0.0627,0.0118,-0.2231,-0.3441,-0.2581,-0.4196,-0.5205,-0.5246,-0.5689,-0.6039,-0.6303,-0.6656,-0.6881,-0.7095,-0.7095,-0.7327,-0.7769,-0.9183,-1.0034,-1.0373,-1.1816,-1.2435,-1.2415,-1.2599,-1.2826,-1.3046,-1.3659,-1.4158,-1.4589,-1.4697,-1.5054,-1.548,-1.5621,-1.5559,-1.539,-1.524,-1.5073,-1.488,-1.4615,-1.424,-1.3855,-1.3855,-1.4029,-1.4374,-1.5223,-1.5675,-1.6079,-1.6788,-1.6985,-1.7003,-1.7177,-1.6914,-1.6746,-1.7248,-1.7411,-1.7461,-1.7612,-1.7949,-1.8178,-1.8178,-1.8279,-1.8271,-1.7949,-1.7572,-1.7183,-1.689,-1.6617,-1.6543,-1.6779,-1.7212,-1.776,-1.8428,-1.8954,-1.941,-1.9775,-1.9966,-2.0038,-1.9953,-1.978,-1.9528,-1.9172,-1.9333,-1.8919,-1.7886,0.0,0.0,0.0,0.0,0.0,0.0,0.0,0.0,0.0,0.0,0.0,0.0,0.0,0.0,0.0,0.0,0.0,0.0,0.0,0.0,0.0,0.0,0.0,0.083,0.072,0.0497,0.0313,-0.0431,-0.0666,-0.0079,-0.2309,-0.3441,-0.2581,-0.4196,-0.5281,-0.5405,-0.5735,-0.6077,-0.6381,-0.6659,-0.6925,-0.7095,-0.7095,-0.7628,-0.8742,-0.9732,-1.0539,-1.1245,-1.2312,-1.2729,-1.2599,-1.2826,-1.301,-1.3266,-1.3876,-1.4689,-1.5569,-1.5868,-1.6009,-1.6079,-1.6464,-1.6298,-1.5744,-1.5357,-1.4922,-1.4573,-1.4609,-1.4617,-1.4589,-1.4625,-1.5046,-1.5675,-1.6429,-1.6481,-1.6546,-1.7616,-1.7002,-1.6176,-1.6426,-1.6186,-1.6005,-1.6417,-1.6518,-1.6658,-1.71,-1.7893,-1.8496,-1.8496,-1.8506,-1.8516,-1.8496,-1.7946,0.0,-1.7492,-1.6863,-1.6516,-1.6761,-1.7222,-1.7798,-1.8602,-1.941,-2.0064,-2.0502,-2.0424,-2.0377,-2.0366,-1.9918,-1.9688,-1.9711,-1.9195,-1.8919,-1.8942,0.0,0.0,0.0,0.0,0.0,0.0,0.0,0.0,0.0,0.0,0.0,0.0,0.0,0.0,0.0,0.0,0.0,0.0,0.0,0.0,0.0,0.0,0.0331,0.0453,0.0307,0.0156,0.0078,-0.0666,-0.0862,-0.0079,-0.2309,-0.3441,-0.2581,-0.4196,-0.5322,-0.5616,-0.5996,-0.6344,-0.6697,-0.6922,-0.7054,-0.7095,-0.7095,-0.7771,-0.9065,-0.9577,-1.0471,-1.1669,-1.2195,-1.2489,-1.2599,-1.2826,-1.3185,-1.3695,-1.4238,-1.5259,-1.6481,-1.614,-1.6429,-1.7028,-1.7132,-1.6672,-1.5881,-1.5497,-1.4857,-1.4285,-1.4639,-1.4517,-1.4356,-1.5102,-1.5419,-1.5781,-1.7044,-1.6992,-1.6755,-1.7418,-1.7009,-1.6346,-1.6234,-1.6119,-1.6136,-1.6384,-1.6672,-1.6898,-1.7031,-1.78,-1.8351,-1.8109,-1.8438,-1.8596,-1.8271,-1.7902,0.0,-1.7515,-1.7017,-1.6733,-1.679,-1.7094,-1.742,-1.7787,-1.8802,-1.9291,-1.9007,-1.9549,-1.9723,-1.9333,-1.9183,-1.9459,-2.0205,-1.9723,-1.9643,0.0,0.0,0.0,0.0,0.0,0.0,0.0,0.0,0.0,0.0,0.0,0.0,0.0,0.0,0.0,0.0,0.0,0.0,0.0,0.0,0.0,0.0,0.0328,0.0189,0.0192,0.0077,0.0,0.0,-0.0428,-0.0543,-0.0039,-0.1684,-0.2699,-0.2503,-0.3838,-0.4953,-0.566,-0.6084,-0.6433,-0.6789,-0.701,-0.7095,-0.7095,-0.7122,-0.7993,-0.9619,-0.9832,-1.0752,-1.2244,-1.2487,-1.2641,0.0,-1.2936,-1.3368,-1.397,-1.4466,-1.5573,0.0,0.0,0.0,0.0,0.0,-1.6697,-1.601,-1.578,-1.5375,-1.4967,-1.526,-1.514,-1.5067,-1.5623,-1.5942,-1.6282,-1.7134,-1.7256,-1.7155,-1.7267,-1.7122,-1.6804,-1.6352,-1.6324,-1.6438,-1.6534,-1.6743,-1.6961,-1.7067,0.0,0.0,-1.7926,-1.8393,-1.8714,-1.8413,-1.8061,-1.7768,-1.767,-1.7277,-1.7032,-1.7145,-1.7312,-1.7583,-1.8049,-1.8708,0.0,0.0,0.0,-1.9218,-1.8908,-1.869,0.0,0.0,0.0,0.0,0.0,0.0,0.0,0.0,-2.0789,-2.1175,0.0,0.0,0.0,0.0,0.0,0.0,0.0,0.0,0.0,0.0,0.0,0.0,0.0,0.0,0.0,0.0,0.0075,0.0,0.0,0.0,0.0,0.0,0.0,0.0,0.0,-0.0784,-0.1606,-0.2309,-0.3351,-0.441,-0.5532,0.0,0.0,0.0,0.0,-0.7088,-0.7071,-0.7159,-0.8217,-1.0158,-1.0233,-1.1135,-1.2822,-1.2896,-1.2965,-1.2936,-1.3156,-1.3593,-1.4214,-1.4729,-1.5755,-1.7073,-1.7366,-1.7852,-1.8208,-1.7195,-1.6554,0.0,0.0,0.0,0.0,-1.6037,-1.6034,-1.6071,-1.6198,-1.6566,-1.6982,-1.7066,-1.7368,-1.7595,-1.721,-1.7271,-1.7281,-1.6649,-1.6687,-1.6846,-1.6846,-1.6846,-1.692,-1.7162,-1.7581,-1.789,-1.789,-1.8375,-1.8796,-1.8796,-1.8274,0.0,-1.7948,-1.7551,-1.7368,-1.7684,0.0,0.0,-1.8714,-1.8862,-1.9097,-1.9523,-1.9183,-1.8953,-1.8953,-1.8545,-1.8775,-1.9695,-1.9275,-1.9512,-2.0442,-2.09,-2.1662,-2.2614,-2.1566,-2.2018,0.0,0.0,0.0,0.0,0.0,0.0,0.0,0.0,0.0,0.0,0.0,0.0,0.0,0.0,0.0,0.0252,0.0112,0.0,0.0,0.0,0.0,0.0,0.0,0.0,0.0,-0.0784,-0.1371,-0.1528,-0.3103,-0.4332,-0.4934,-0.5886,0.0,-0.7044,-0.7098,-0.7041,-0.6927,-0.7107,-0.8115,-0.9963,0.0,0.0,-1.2961,-1.2753,-1.2838,-1.3156,-1.355,-1.3985,-1.4561,-1.5439,-1.6562,-1.7803,-1.8116,-1.8289,-1.8284,-1.7328,-1.685,-1.6568,-1.598,-1.5674,-1.5545,-1.5713,-1.5697,-1.5804,-1.689,-1.7226,0.0,-1.8078,-1.7915,-1.7578,-1.7677,-1.7319,-1.6963,-1.7104,-1.7127,-1.7106,-1.7106,-1.7106,-1.7145,-1.719,-1.7581,-1.789,-1.789,-1.8297,-1.8646,-1.8646,-1.823,-1.8006,-1.8278,-1.7901,-1.7629,-1.7684,-1.7893,-1.7993,-1.7957,-1.8526,-1.8826,-1.8665,-1.9004,-1.9235,-1.9235,-1.9527,-1.9779,-1.9872,-1.9884,-2.0111,-2.0632,-2.111,-2.1866,-2.284,-2.2871,-2.356,0.0,0.0,0.0,0.0,0.0,0.0,0.0,0.0,0.0,0.0,0.0,0.0033,0.0134,0.0,0.0036,0.0148,0.0075,0.0,0.0,0.0,0.0,0.0,0.0,0.0,0.0,-0.0385,-0.0813,-0.1253,-0.2621,-0.3814,-0.4644,-0.5782,-0.6586,-0.6984,-0.7118,-0.7127,-0.7054,-0.7237,-0.8167,-0.9861,-0.9953,-1.0989,-1.2811,-1.2852,-1.301,-1.3236,-1.3731,-1.4237,-1.4802,-1.6096,-1.7307,-1.8353,-1.8194,-1.8139,-1.8076,-1.762,-1.7273,-1.6943,-1.6569,-1.6371,-1.6332,-1.6428,-1.6401,-1.6489,-1.7187,-1.7347,-1.733,-1.7762,-1.7629,-1.7388,-1.7503,-1.7414,-1.7267,-1.7267,-1.734,-1.7451,-1.7451,-1.7451,-1.7479,-1.7606,-1.7846,-1.8014,-1.8014,-1.8186,-1.8385,-1.8482,-1.8222,-1.807,-1.8222,-1.8063,-1.7904,-1.7904,-1.803,-1.8057,-1.7893,-1.8352,-1.858,-1.8418,-1.8764,-1.9077,-1.9296,-1.9602,-1.9833,-1.9996,-2.011,-2.036,-2.0812,-2.1305,-2.1929,-2.2656,-2.3225,-2.4194,0.0,0.0,0.0,0.0,0.0,0.0,0.0,0.0,0.0,0.0,0.0,0.0,0.0,0.0,0.0,0.0,0.0,0.0,0.0,0.0,0.0,0.0,0.0,0.0,0.0,0.0,-0.0306,-0.1057,-0.2192,-0.3319,-0.4364,-0.5679,-0.6556,-0.6921,-0.7091,-0.7162,-0.7172,-0.7492,-0.8365,-0.9759,-1.0214,-1.1205,-1.2673,-1.3046,-1.3266,-1.3411,-1.406,-1.4706,-1.5374,-1.674,-1.7841,-1.8602,-1.8159,-1.798,-1.7922,-1.7806,-1.7556,-1.7284,-1.7217,-1.7245,-1.7284,-1.7217,-1.719,-1.7217,-1.7351,-1.7351,-1.7301,-1.7357,-1.7329,-1.7301,-1.7357,-1.7534,-1.7656,-1.7412,-1.759,-1.7794,-1.7794,-1.7794,-1.7838,-1.8057,-1.8084,-1.8084,-1.8084,-1.8084,-1.815,-1.8334,-1.8209,-1.8084,-1.8084,-1.8084,-1.8084,-1.8084,-1.822,-1.8371,-1.8494,-1.8587,-1.8679,-1.8774,-1.8922,-1.9167,-1.9545,-1.9605,-1.9817,-2.0145,-2.0232,-2.0501,-2.0952,-2.1485,-2.1982,-2.2485,-2.3163,-2.4233,-0.0476,-0.0336,-0.0339,-0.0349,-0.0382,-0.0419,0.0,0.0,0.0,0.0,0.0,0.0,0.0,0.0,0.0,0.0,0.0,0.0,0.0,0.0,0.0,0.0,0.0,0.0,0.0,0.0,-0.0115,-0.0392,-0.2073,-0.3276,-0.376,-0.5514,-0.6647,-0.6964,-0.7009,-0.7065,-0.713,-0.7999,-0.8868,-0.9635,-1.0743,-1.1818,-1.2863,-1.3083,-1.3484,-1.4042,-1.4892,-1.5876,-1.6958,-1.7195,-1.7754,-1.8414,-1.8358,-1.8227,-1.7999,-1.7473,-1.744,-1.759,-1.7301,-1.7385,-1.759,-1.7301,-1.719,-1.7256,-1.7573,-1.7656,-1.7684,-1.792,-1.7822,-1.77,-1.7947,-1.7838,-1.7767,-1.7947,-1.803,-1.8057,-1.8057,-1.8057,-1.8057,-1.8084,-1.8084,-1.8084,-1.8084,-1.8084,-1.8107,-1.8137,-1.8091,-1.8084,-1.8084,-1.8084,-1.8084,-1.8084,-1.8694,-1.9331,-1.9901,-1.9643,-1.9669,-2.0143,-2.0295,-2.041,-2.0449,-2.046,-2.0422,-2.036,-2.0498,-2.0747,-2.1171,-2.1657,-2.2156,-2.2681,-2.2998,-2.3674,-0.039,0.0308,0.0672,0.0,-0.0649,-0.049,-0.0356,-0.0215,-0.0095,0.0,0.0,0.0,0.0,0.0,0.0,0.0,0.0,0.0,0.0,0.0,0.0,0.0,0.0,0.0,0.0,0.0,-0.0075,-0.0274,-0.1606,-0.2749,-0.3489,-0.5058,-0.6213,-0.685,-0.7097,-0.7229,-0.7282,-0.7725,-0.8625,-0.997,-1.0571,-1.1657,-1.3083,-1.3521,-1.3958,-1.4439,-1.5125,-1.6083,-1.7223,-1.7431,-1.8005,-1.8674,-1.8351,-1.8168,-1.8057,-1.781,-1.781,-1.7893,-1.7783,-1.781,-1.7893,-1.7783,-1.7717,-1.7755,-1.7893,-1.7931,-1.7959,-1.8057,-1.803,-1.7959,-1.8057,-1.803,-1.7947,-1.8057,-1.8084,-1.8084,-1.8084,-1.8084,-1.8084,-1.8084,-1.8084,-1.8084,-1.8084,-1.8084,-1.8139,-1.8259,-1.8166,-1.8139,-1.8259,-1.8275,-1.8302,-1.8383,-1.8667,-1.9095,-1.967,-1.9643,-1.9824,-2.037,-2.0522,-2.061,-2.061,-2.0896,-2.1044,-2.0968,-2.1348,-2.1612,-2.1779,-2.197,-2.218,-2.2414,-2.2715,-2.3073,0.011,0.0829,0.0,-0.0295,-0.057,-0.036,-0.0112,-0.0146,-0.0121,0.0125,0.0096,0.0066,0.0275,0.0312,0.0353,0.0557,0.0433,0.0318,0.0288,0.0139,0.0,0.0,0.0,0.0,0.0,0.0,-0.0112,-0.0352,-0.151,-0.2586,-0.3474,-0.493,-0.6047,-0.681,-0.7173,-0.7411,-0.7608,-0.7859,-0.8803,-1.0383,-1.0795,-1.176,-1.3208,-1.3821,-1.4239,-1.4546,-1.5264,-1.6109,-1.7063,-1.7527,-1.8091,-1.8655,-1.826,-1.8084,-1.8084,-1.8084,-1.8084,-1.8084,-1.8084,-1.8084,-1.8084,-1.8084,-1.8084,-1.8084,-1.8084,-1.8084,-1.8084,-1.8084,-1.8084,-1.8084,-1.8084,-1.8084,-1.8084,-1.8084,-1.8139,-1.8166,-1.8166,-1.822,-1.8247,-1.8247,-1.8247,-1.8247,-1.8247,-1.8247,-1.8275,-1.8437,-1.8329,-1.8302,-1.8449,-1.8572,-1.8842,-1.9267,-1.9188,-1.9397,-2.0118,-2.0131,-2.0334,-2.0868,-2.0993,-2.1031,-2.1031,-2.141,-2.1616,-2.1616,-2.1996,-2.2208,-2.2208,-2.2208,-2.2208,-2.2222,-2.2446,-2.2654,0.0,0.0,0.0907,0.0479,0.016,0.0027,0.025,0.0028,-0.0028,0.0558,0.0325,0.0213,0.0928,0.1077,0.1268,0.1914,0.1497,0.1051,0.1052,0.0446,0.0,0.0,0.0,0.0,0.0,0.0,-0.0149,-0.0548,-0.2024,-0.3124,-0.3742,-0.5383,-0.6479,-0.6865,-0.7111,-0.75,-0.8077,-0.8856,-0.9755,-1.0775,-1.1781,-1.2587,-1.3212,-1.3809,-1.4181,-1.4378,-1.5489,-1.6217,-1.6666,-1.7386,-1.7877,-1.8107,-1.8123,-1.8084,-1.8084,-1.8084,-1.8084,-1.8084,-1.8084,-1.8084,-1.8084,-1.8084,-1.8084,-1.8084,-1.8084,-1.8084,-1.8084,-1.8084,-1.8084,-1.8084,-1.8084,-1.8084,-1.8084,-1.8084,-1.8259,-1.8394,-1.8394,-1.8491,-1.8587,-1.8587,-1.8587,-1.8587,-1.8587,-1.8587,-1.8587,-1.8587,-1.8587,-1.8587,-1.8587,-1.9042,-1.9825,-2.1004,-2.0658,-2.0818,-2.2006,-2.1626,-2.1578,-2.21,-2.2161,-2.2161,-2.2161,-2.2184,-2.2184,-2.2184,-2.2184,-2.2208,-2.2208,-2.2208,-2.2208,-2.2208,-2.2198,-2.2536,0.0851,0.0,0.0996,0.0672,0.0643,0.072,0.0906,0.0873,0.087,0.112,0.1121,0.1194,0.1689,0.1743,0.1821,0.2241,0.201,0.1747,0.1779,0.1181,0.0729,0.0735,0.0289,0.0,0.0,0.0,0.0,-0.0587,-0.1598,-0.2684,-0.3746,-0.5076,-0.6151,-0.6861,-0.7215,-0.7541,-0.7825,-0.8297,-0.9263,-1.0761,-1.2327,-1.3344,-1.3785,-1.386,-1.4049,-1.4351,-1.5552,-1.6152,-1.6374,-1.7495,-1.803,-1.8084,-1.8084,-1.8084,-1.8111,-1.8259,-1.8313,-1.8286,-1.815,-1.8084,-1.8084,-1.8084,-1.8084,-1.8084,-1.8084,-1.8084,-1.8084,-1.8084,-1.8205,-1.8313,-1.8313,-1.8356,-1.8425,-1.8425,-1.8479,-1.8545,-1.8545,-1.856,-1.8587,-1.8587,-1.8587,-1.8587,-1.8587,-1.8587,-1.864,-1.8706,-1.8732,-1.8732,-1.8732,-1.9265,-1.9811,-2.022,-2.0421,-2.0845,-2.1602,-2.1496,-2.164,-2.2184,-2.2208,-2.2208,-2.2208,-2.2208,-2.2208,-2.2208,-2.2208,-2.2208,-2.2208,-2.2208,-2.2208,-2.2208,-2.2208,-2.2531,0.0893,0.1161,0.1419,0.1106,0.1118,0.1281,0.149,0.1445,0.142,0.1727,0.1777,0.1905,0.2443,0.2447,0.2575,0.3084,0.2808,0.2577,0.2643,0.2063,0.162,0.1615,0.0927,0.0455,0.0,0.0,0.0,-0.0587,-0.1369,-0.2418,-0.3824,-0.4879,-0.5881,-0.6889,-0.7288,-0.7607,-0.7843,-0.812,-0.9176,-1.098,-1.2667,-1.3657,-1.3982,-1.387,-1.3981,-1.4373,-1.5596,-1.613,-1.6273,-1.7567,-1.8139,-1.8205,-1.8205,-1.8247,-1.8302,-1.841,-1.8464,-1.8437,-1.8329,-1.8275,-1.8275,-1.822,-1.8247,-1.8275,-1.822,-1.8247,-1.8275,-1.8275,-1.8356,-1.8464,-1.8464,-1.8545,-1.8587,-1.8587,-1.864,-1.8679,-1.8679,-1.8706,-1.8747,-1.8747,-1.8747,-1.8747,-1.8747,-1.8747,-1.8774,-1.8878,-1.9025,-1.9158,-1.9158,-1.9526,-1.9952,-2.0334,-2.0684,-2.1104,-2.164,-2.1722,-2.1902,-2.2254,-2.2324,-2.2347,-2.2347,-2.2347,-2.2324,-2.2278,-2.2278,-2.2254,-2.2208,-2.2208,-2.2231,-2.2278,-2.2278,-2.2513,0.1628,0.192,0.2182,0.1785,0.1701,0.1768,0.201,0.1765,0.1693,0.2399,0.2311,0.2363,0.3185,0.0,0.3475,0.4454,0.3889,0.3446,0.3712,0.3111,0.2638,0.0,0.0,0.0,0.0,0.0,0.0,-0.0549,0.0,-0.2419,-0.4018,-0.4781,-0.5692,-0.6875,-0.7298,-0.7695,-0.8066,-0.8524,-0.9638,-1.143,-1.2837,-1.361,-1.379,-1.3813,-1.4019,-1.4417,-1.5594,-1.6187,-1.6443,-1.7623,-1.822,-1.8394,-1.8422,-1.8491,-1.8587,-1.8614,-1.8614,-1.8614,-1.8614,-1.8614,-1.8587,-1.8449,-1.8491,-1.8587,-1.8449,-1.8491,-1.8587,-1.8587,-1.8587,-1.8614,-1.8614,-1.8614,-1.8614,-1.8614,-1.8706,-1.8798,-1.8798,-1.8919,-1.8987,-1.8987,-1.8987,-1.8987,-1.9025,-1.904,-1.904,-1.9066,-1.9526,-1.985,-1.9811,-1.985,-2.0258,-2.1302,-2.1423,-2.1664,-2.2184,-2.2324,-2.2394,-2.2417,-2.2509,-2.2592,-2.2615,-2.2615,-2.2532,-2.2417,-2.2417,-2.2347,-2.2231,-2.2231,-2.2301,-2.2417,-2.2417,-2.2477,0.3115,0.3033,0.3379,0.3037,0.3009,0.3078,0.3059,0.2973,0.2939,0.3122,0.3376,0.3661,0.399,0.4066,0.0,0.4548,0.4286,0.0,0.4277,0.3659,0.0,0.331,0.0,0.1943,0.137,0.1091,0.0,0.0,-0.1637,-0.2839,-0.4023,-0.5165,-0.6134,-0.6878,-0.7298,-0.7592,-0.7784,-0.953,-1.0736,-1.1426,-1.2996,-1.3751,-1.3817,-1.4063,-1.4458,-1.503,-1.5882,-1.6528,-1.7034,-1.7963,-1.834,-1.8422,-1.8518,-1.856,-1.8614,-1.8706,-1.8744,-1.8759,-1.8854,-1.8774,-1.8587,-1.856,-1.856,-1.8587,-1.856,-1.856,-1.8587,-1.8587,-1.8679,-1.8744,-1.8744,-1.8813,-1.8907,-1.8907,-1.8907,-1.8946,-1.8946,-1.8999,-1.8987,-1.8987,-1.8987,-1.9013,-1.9143,-1.9474,-1.9773,-1.9888,-2.0333,-2.0472,-1.9875,-2.051,-2.1093,-2.1375,-2.1746,-2.2091,-2.2324,-2.2301,-2.2347,-2.2532,-2.2486,-2.2486,-2.2615,-2.2615,-2.2578,-2.2555,-2.2555,-2.2532,-2.2486,-2.2486,-2.2509,-2.2555,-2.2555,-2.2812,0.4635,0.4401,0.4513,0.4146,0.4107,0.413,0.3965,0.3961,0.3995,0.3965,0.4235,0.4473,0.4559,0.4557,0.0,0.0,0.0,0.0,0.4807,0.4576,0.4434,0.0,0.3799,0.0,0.2582,0.1784,0.0926,0.0,-0.123,-0.2611,-0.4036,-0.503,-0.6,-0.7016,-0.7472,-0.786,-0.8174,-1.0153,-1.1244,-1.1461,-1.3064,-1.3887,-1.4019,-1.4207,-1.4556,-1.503,0.0,-1.6613,-1.709,-1.8088,-1.8518,-1.8583,-1.8652,-1.8721,-1.8774,-1.8866,-1.8749,-1.8546,-1.8624,-1.839,-1.8142,-1.8552,-1.8732,-1.8747,-1.8706,-1.8732,-1.8774,-1.8774,-1.8839,-1.8893,-1.8893,-1.8946,-1.8987,-1.8987,-1.8987,-1.8987,-1.8987,-1.8987,-1.8987,-1.8987,-1.8987,-1.9052,-1.917,-1.963,-2.0042,-2.0181,-2.087,-2.1202,-2.0734,-2.1006,-2.1299,-2.1544,-2.1841,-2.2161,-2.2463,-2.2477,-2.2537,-2.2689,-2.2638,-2.2661,-2.2729,-2.2729,-2.2721,-2.2698,-2.2689,-2.2652,-2.2615,-2.2615,-2.2638,-2.2689,-2.2689,-2.2885,0.6397,0.6082,0.5797,0.5352,0.521,0.513,0.4882,0.4919,0.4987,0.4938,0.0,0.5055,0.5066,0.5011,0.4971,0.4982,0.0,0.5251,0.5224,0.542,0.5582,0.5591,0.4928,0.4371,0.4067,0.2471,0.1239,0.0714,-0.0614,-0.2153,-0.3898,-0.4636,-0.5684,-0.7192,-0.7753,-0.8279,-0.8802,-1.0465,-1.1361,-1.1509,-1.3078,-1.3962,-1.4216,-1.4216,-1.4416,-1.4723,0.0,0.0,-1.6806,-1.7936,-1.8513,-1.8691,-1.8646,-1.8725,-1.8879,-1.8806,-1.8494,-1.8097,-1.8097,-1.7796,-1.7543,-1.8339,-1.8689,-1.8756,-1.8637,-1.8689,-1.8794,-1.8867,-1.8891,-1.8903,-1.8975,-1.8987,-1.8987,-1.8987,-1.8987,-1.8987,-1.8987,-1.8987,-1.8987,-1.8987,-1.9013,-1.9105,-1.9289,-1.9785,-2.0245,-2.0434,-2.131,-2.1949,-2.1949,-2.1516,-2.1396,-2.1864,-2.1926,-2.2114,-2.2592,-2.2712,-2.2772,-2.2795,-2.2872,-2.2902,-2.2888,-2.2888,-2.288,-2.2818,-2.2818,-2.2758,-2.2638,-2.2638,-2.2698,-2.2818,-2.2818,-2.2849,0.9164,0.8334,0.7881,0.7148,0.6834,0.6606,0.6117,0.6059,0.0,0.0,0.5959,0.5818,0.5871,0.6227,0.6263,0.545,0.5811,0.5944,0.5292,0.5154,0.5194,0.0,0.5217,0.4708,0.3868,0.0,0.0,0.0,0.0,-0.2318,-0.34,-0.4417,-0.5744,-0.7386,-0.7899,-0.8371,-0.8802,-1.0465,-1.1361,-1.1509,-1.3169,-1.3892,-1.3744,-1.3897,-1.4138,-1.4481,0.0,0.0,-1.6357,-1.714,-1.7713,-1.8108,-1.7769,-1.794,-1.8289,-1.7845,-1.7628,-1.7544,-1.7544,-1.7471,-1.7423,-1.7579,-1.7663,-1.7663,-1.7639,-1.7663,-1.7772,-1.8217,-1.8338,-1.8434,-1.8879,-1.8987,-1.8987,-1.8987,-1.8987,-1.8987,-1.8987,-1.8987,-1.8987,-1.8987,-1.909,-1.9342,-1.9914,-2.0559,-2.1175,-2.1779,-2.2333,-2.2706,-2.2706,-2.2486,-2.237,-2.244,-2.2463,-2.2546,-2.2749,-2.2689,-2.2721,-2.288,-2.2826,-2.2826,-2.2888,-2.2888,-2.2888,-2.288,-2.288,-2.288,-2.2843,-2.2843,-2.2857,-2.288,-2.288,-2.2902,1.0221,0.9774,0.9512,0.8367,0.8409,0.845,0.7472,0.0,0.0,0.0,0.6753,0.6658,0.6568,0.6949,0.0,0.621,0.6559,0.6627,0.5772,0.5606,0.0,0.5706,0.5603,0.53,0.0,0.0,0.0,0.0,0.0,-0.1894,-0.3093,-0.488,-0.6482,-0.7815,-0.8217,-0.8447,-0.8547,-0.9922,-1.084,-1.1241,-1.2477,-1.3215,-1.345,-1.3635,-1.3818,-1.4068,-1.4935,0.0,-1.6061,-1.6934,-1.7457,-1.7685,-1.7471,-1.7568,-1.776,-1.7483,-1.7219,-1.6979,-1.6979,-1.6846,-1.6674,-1.6674,-1.7002,-1.7387,-1.7387,-1.7387,-1.7495,-1.8049,-1.8205,-1.8326,-1.8855,-1.8987,-1.8987,-1.8987,-1.8987,-1.9025,-1.909,-1.9105,-1.9105,-1.9184,-1.9263,-1.9525,-2.0182,-2.0795,-2.1431,-2.21,-2.2615,-2.2888,-2.2888,-2.282,-2.2752,-2.2752,-2.2752,-2.2775,-2.2849,-2.2789,-2.2797,-2.2888,-2.2857,-2.2872,-2.2888,-2.2606,-2.2577,-2.2888,-2.2591,-2.2591,-2.2888,-2.2888,-2.2888,-2.2888,-2.2888,-2.2888,1.0935,1.0906,1.08,0.9437,0.9923,1.0352,0.886,0.8919,0.0,0.8233,0.7786,0.7643,0.7796,0.7993,0.7961,0.0,0.7699,0.7568,0.6627,0.6352,0.6208,0.0,0.5888,0.0,0.0,0.0,0.0,0.0,0.0,0.0,-0.3154,-0.5289,-0.6875,-0.7798,-0.829,-0.845,-0.8291,-0.9543,-1.0451,-1.0997,-1.1927,-1.2685,-1.3212,-1.332,-1.3398,-1.3532,-1.4584,0.0,0.0,-1.651,-1.7015,-1.7207,-1.7099,-1.7123,-1.7207,-1.7087,-1.681,-1.6473,-1.6473,-1.6286,-1.6044,-1.6044,-1.6549,-1.7146,-1.7146,-1.7231,-1.7436,-1.7955,-1.8197,-1.8402,-1.896,-1.9105,-1.9105,-1.9105,-1.9105,-1.9105,-1.9223,-1.9249,-1.9275,-1.9368,-1.942,-1.9642,-2.0296,-2.087,-2.1455,-2.21,-2.2615,-2.2925,-2.2947,-2.2947,-2.2955,-2.2978,-2.2933,-2.2888,-2.2888,-2.2888,-2.2888,-2.2888,-2.2772,-2.2757,-2.2888,-2.2171,-2.2149,-2.2888,-2.2323,-2.2309,-2.2888,-2.2888,-2.2888,-2.2888,-2.2888,-2.2888,1.2251,1.1918,1.164,1.0599,1.1403,1.2016,1.032,0.0,1.0806,1.0543,0.941,0.8918,1.0283,1.0129,0.9761,0.0,0.0,0.9138,0.792,0.7095,0.6591,0.6397,0.0,0.0,0.0,0.0,0.0,0.0,0.0,0.0,-0.3928,-0.5018,-0.5911,-0.6535,-0.7708,-0.8309,-0.8286,-0.9919,-1.0821,-1.1025,-1.2308,-1.2941,-1.2935,-1.2961,-1.2893,-1.2816,0.0,0.0,0.0,-1.5074,-1.5846,-1.6631,-1.6151,-1.6236,-1.6619,-1.6139,-1.5989,-1.6073,-1.6073,-1.6115,-1.6178,-1.6178,-1.624,-1.6303,-1.6303,-1.6647,-1.7149,-1.7689,-1.8191,-1.8694,-1.9221,-1.9368,-1.9368,-1.9368,-1.9368,-1.9368,-1.9368,-1.9368,-1.9394,-1.9394,-1.9486,-1.9772,-2.0321,-2.0944,-2.1575,-2.2123,-2.2615,-2.2947,-2.306,-2.3082,-2.3127,-2.3253,-2.3045,-2.2888,-2.2888,-2.2888,-2.2888,-2.2888,-2.2388,-2.2316,-2.2873,-2.1743,-2.167,-2.2873,-2.2323,-2.2309,-2.2888,-2.2888,-2.2888,-2.2888,-2.2888,-2.2888,1.2684,1.2593,1.249,1.1276,1.2128,1.2853,1.1354,0.0,1.155,1.104,1.0305,1.0098,1.1138,1.1251,1.1161,0.0,1.1068,1.0583,0.9029,0.8398,0.7739,0.6826,0.6431,0.0,0.0,0.0,0.0,0.0,0.0,0.0,-0.3575,-0.502,-0.6051,-0.6624,-0.7643,-0.8125,-0.8052,-0.8919,-0.9751,-1.0535,-1.1232,-1.1895,-1.2541,-1.2717,-1.2756,-1.2725,0.0,0.0,0.0,-1.4754,-1.5348,-1.5705,-1.5775,-1.5979,-1.6203,-1.5997,-1.6001,-1.6122,-1.6122,-1.621,-1.6368,-1.6702,-1.66,-1.6424,-1.6626,-1.6839,-1.7183,-1.8056,-1.8449,-1.8707,-1.9259,-1.9394,-1.9394,-1.9394,-1.9394,-1.942,-1.9486,-1.9512,-1.9539,-1.963,-1.9939,-2.0384,-2.0919,-2.1479,-2.2053,-2.2555,-2.2843,-2.3037,-2.3082,-2.3157,-2.3098,-2.273,-2.2614,-2.2527,-2.2527,-2.2176,-2.1935,-2.1935,-2.1708,-2.1693,-2.1921,-2.1495,-2.1599,-2.2389,-2.2228,-2.2374,-2.2888,-2.2888,-2.2888,-2.2888,-2.2888,-2.2888,1.3157,1.3217,1.3327,1.2181,1.3021,1.381,1.2584,1.2566,1.2618,1.1963,1.1391,1.1285,1.21,1.2242,1.227,0.0,1.2317,1.1746,1.0247,0.9672,0.8953,0.0,0.0,0.0,0.0,0.0,0.0,0.0,0.0,0.0,0.0,-0.478,-0.5887,-0.6407,-0.7472,-0.8011,-0.7907,-0.8421,-0.9197,-1.0218,-1.0652,-1.1401,-1.2382,-1.2603,-1.2725,-1.2774,0.0,0.0,0.0,-1.4513,-1.4971,-1.5153,-1.5647,-1.5913,-1.5988,-1.6044,-1.6144,-1.6253,-1.6253,-1.634,-1.6476,-1.6863,-1.6882,-1.6842,-1.7246,-1.7361,-1.7522,-1.8264,-1.8709,-1.9031,-1.9414,-1.9512,-1.9512,-1.9512,-1.9512,-1.9539,-1.963,-1.9656,-1.9682,-1.9773,-2.0105,-2.0522,-2.1066,-2.1599,-2.2123,-2.2615,-2.2888,-2.3082,-2.3135,-2.3246,-2.3142,-2.2727,-2.2363,-2.2085,-2.2001,-2.1568,-2.1304,-2.1304,-2.1127,-2.1186,-2.1589,-2.1285,-2.1524,-2.2439,-2.2313,-2.2505,-2.3023,-2.2833,-2.2724,-2.2724,-2.2724,-2.2803,1.3877,1.3839,1.4127,1.3458,1.4331,1.5139,1.4199,1.4239,1.4352,1.3881,1.2812,1.2339,1.357,1.324,1.3039,1.3856,1.3423,1.2623,1.1636,1.0844,0.9995,0.0,0.0,0.0,0.0,0.0,0.0,0.0,0.0,0.0,0.0,-0.4274,-0.5036,-0.5496,-0.7079,-0.7907,-0.7901,-0.889,-0.9666,-1.0218,-1.1082,-1.1852,-1.2505,-1.2627,-1.2774,0.0,0.0,0.0,0.0,-1.4118,-1.4605,-1.5153,-1.5768,-1.5988,-1.6022,-1.6144,-1.6275,-1.6392,-1.6392,-1.6436,-1.65,-1.65,-1.6911,-1.7498,-1.8028,-1.8191,-1.8204,-1.8204,-1.8982,-1.9798,-1.9798,-1.9798,-1.9798,-1.9798,-1.9798,-1.9798,-1.9798,-1.9798,-1.9798,-1.9798,-1.9798,-1.9978,-2.051,-2.1066,-2.1599,-2.2123,-2.2615,-2.3,-2.3253,-2.3297,-2.337,-2.3573,-2.2458,-2.1595,-2.1339,-2.1304,-2.1304,-2.1304,-2.074,-2.0961,-2.2243,-2.1079,-2.132,-2.3253,-2.2641,-2.2626,-2.3282,-2.2626,-2.2317,-2.2317,-2.2317,-2.2585,1.5438,1.5012,1.4684,1.4297,1.4733,1.5139,1.4655,1.4351,1.4131,1.4082,1.3399,1.3096,1.3972,1.3748,1.3662,1.4361,0.0,0.0,0.0,0.0,0.0,0.0,0.0,0.0,0.0,0.0,0.0,0.0,0.0,0.0,0.0,-0.3935,-0.4938,-0.5819,-0.6907,-0.7777,-0.8368,-0.8705,-0.9171,-0.9788,-1.0626,-1.1317,-1.1909,-1.2554,0.0,0.0,0.0,0.0,0.0,-1.3978,-1.4398,-1.4628,-1.5524,-1.5991,-1.6144,-1.6178,-1.6318,-1.6479,-1.6479,-1.6479,-1.6626,-1.7426,-1.7539,-1.7574,-1.8456,-1.8744,-1.882,-1.9196,-1.9547,-1.9798,-1.9798,-1.9798,-1.9798,-1.9798,-1.9798,-1.9798,-1.9798,-2.008,-2.0359,-2.0359,-2.0944,-2.1479,-2.166,-2.21,-2.2472,-2.2646,-2.2963,-2.3209,-2.3297,-2.3414,-2.3381,-2.3011,-2.2628,-2.2153,-2.1625,-2.0727,-2.021,-2.021,-2.0031,-2.0314,-2.1173,-2.1267,-2.1754,-2.2725,-2.2547,-2.2505,-2.2612,-2.1942,-2.1633,-2.1633,-2.1633,-2.1695,1.6214,1.5843,1.5435,1.5209,1.5303,1.543,1.5399,1.4934,1.4501,1.4478,1.414,1.3952,1.4302,1.4415,1.4543,1.4826,1.4912,0.0,0.0,0.0,0.0,0.0,0.0,0.0,0.0,0.0,0.0,0.0,0.0,0.0,0.0,0.0,-0.4587,-0.5624,-0.6767,-0.7744,-0.8521,-0.8685,-0.9073,-0.9692,-1.0491,-1.1183,-1.1735,-1.2544,0.0,0.0,0.0,0.0,0.0,-1.381,-1.4258,-1.4548,-1.539,-1.5947,-1.6275,-1.6297,-1.6392,-1.65,-1.65,-1.6638,-1.6961,-1.7664,-1.794,-1.8166,-1.9033,-1.9158,-1.9108,-1.966,-1.9798,-1.9798,-1.9798,-1.9798,-1.9798,-1.9798,-1.9798,-1.9798,-1.9798,-2.0232,-2.061,-2.061,-2.1286,-2.1945,-2.2184,-2.2264,-2.2478,-2.2904,-2.2952,-2.3039,-2.3334,-2.3494,-2.3417,-2.3092,-2.2838,-2.2433,-2.1754,-2.0692,-1.9959,-1.9723,-1.9708,-1.9989,-2.0673,-2.1111,-2.1595,-2.2176,-2.2191,-2.217,-2.2073,-2.1401,-2.107,-2.107,-2.103,-2.1128,0.0,1.6315,1.6282,1.6156,1.5987,1.5923,1.6259,1.578,0.0,1.4983,1.4909,1.4835,1.463,1.5164,1.5567,1.5268,0.0,0.0,0.0,0.0,0.0,0.0,0.0,0.0,0.0,0.0,0.0,0.0,0.0,0.0,0.0,0.0,-0.4033,-0.5035,-0.6587,-0.7691,-0.8316,-0.8718,-0.9193,-0.9695,-1.057,-1.1274,-1.1832,-1.2569,0.0,0.0,0.0,0.0,0.0,-1.3631,-1.4199,-1.4755,-1.54,-1.5944,-1.6414,-1.6479,-1.65,-1.65,-1.6538,-1.6936,-1.7423,-1.7498,-1.8216,-1.9146,-1.966,-1.9434,-1.9158,-1.966,-1.9798,-1.9798,-1.9798,-1.9798,-1.9798,-1.9798,-1.9798,-1.9798,-1.9798,-2.0232,-2.061,-2.061,-2.1066,-2.1623,-2.2123,-2.1778,-2.1826,-2.2877,-2.2585,-2.2513,-2.3264,-2.3375,-2.3404,-2.346,-2.2972,-2.2358,-2.168,-2.1066,-2.0423,-1.9753,-1.9708,-1.9989,-2.0673,-2.0703,-2.1021,-2.168,-2.165,-2.1605,-2.156,-2.0932,-2.0628,-2.0628,-2.0499,-2.0788,1.6222,0.0,1.6448,1.6405,1.6236,1.605,0.0,1.5468,1.52,1.5319,1.5103,1.4981,1.5281,1.5243,1.525,1.5547,0.0,0.0,0.0,0.0,0.0,0.0,0.0,0.0,0.0,0.0,0.0,0.0,0.0,0.0,0.0,0.0,-0.3785,-0.4839,-0.5726,-0.6636,-0.7558,-0.8063,-0.8366,-0.8511,-0.9987,-1.0782,-1.0945,-1.228,0.0,0.0,0.0,0.0,-1.3148,-1.4001,-1.4468,-1.4801,-1.5702,-1.621,-1.6392,-1.6414,-1.6457,-1.6563,-1.7024,-1.7285,-1.7549,-1.8367,-1.9058,-1.9648,-1.9761,-1.971,-1.9648,-1.9761,-1.9798,-1.9798,-1.9798,-1.9798,-1.9798,-1.9798,-1.9798,-1.9798,-1.9798,-2.0232,-2.061,-2.061,-2.1417,-2.2128,-2.2258,-2.2168,-2.2191,-2.2459,-2.2034,-2.1762,-2.1951,-2.2062,-2.2123,-2.2143,-2.2009,-2.1665,-2.0991,-2.0778,-2.0423,-1.9753,-1.9708,-1.9989,-2.0673,-2.0703,-2.1021,-2.168,-2.1201,-2.0677,-2.0172,-2.0022,-1.9947,-1.9929,-1.9896,-1.9967,1.5758,1.6294,1.6734,1.6734,1.65,1.623,1.6015,1.5429,1.5027,1.5429,0.0,1.5423,1.5857,1.586,0.0,0.0,1.5777,0.0,0.0,0.0,0.0,0.0,0.0,0.0,0.0,0.0,0.0,0.0,0.0,0.0,0.0,0.0,-0.3446,-0.4313,-0.4987,-0.5925,-0.7159,-0.7846,-0.82,-0.82,-0.9667,-1.0399,-1.0501,-1.2011,0.0,0.0,0.0,0.0,-1.32,-1.3684,-1.4283,-1.4949,-1.5491,-1.6001,-1.6495,-1.6757,-1.6867,-1.6986,-1.7564,-1.7928,-1.8279,-1.9083,-1.9572,-1.9798,-1.9798,-1.9798,-1.9798,-1.9798,-1.9798,-1.9798,-1.9798,-1.9798,-1.9798,-1.9798,-1.9798,-1.9837,-1.9888,-2.0308,-2.0709,-2.0771,-2.1479,-2.2035,-2.1996,-2.1773,-2.1672,-2.1895,-2.147,-2.1357,-2.1973,-2.1849,-2.1814,-2.2134,-2.1874,-2.1425,-2.0763,-2.0703,-2.0423,-1.9753,-1.9708,-1.9854,-2.0228,-2.0243,-2.0408,-2.0786,-2.0423,-2.0064,-1.9708,-1.9708,-1.9708,-1.9708,-1.9708,-1.9708,1.5222,1.6192,1.69,1.6776,1.6512,1.6279,1.6173,0.0,0.0,0.0,0.0,0.0,1.6316,1.6597,0.0,0.0,0.0,0.0,0.0,0.0,0.0,0.0,0.0,0.0,0.0,0.0,0.0,0.0,0.0,0.0,0.0,0.0,0.0,-0.376,-0.44,-0.5404,-0.6801,-0.7652,-0.8101,-0.8177,-0.9363,-1.0029,-1.0262,-1.1668,-1.2345,0.0,0.0,0.0,-1.3242,-1.3314,-1.4037,-1.5108,-1.5176,-1.5746,-1.655,-1.7074,-1.725,-1.7338,-1.7978,-1.8594,-1.9196,-1.966,-1.9798,-1.9798,-1.9798,-1.9798,-1.9824,-1.9824,-1.9837,-1.9798,-1.9837,-1.9824,-1.9837,-1.9862,-1.985,-1.9888,-2.0016,-2.0447,-2.087,-2.0993,-2.1516,-2.1857,-2.166,-2.124,-2.1044,-2.1326,-2.0899,-2.0961,-2.2104,-2.1759,-2.1625,-2.2179,-2.1744,-2.1156,-2.0602,-2.0557,-2.0303,-1.9738,-1.9708,-1.9708,-1.9708,-1.9708,-1.9708,-1.9708,-1.9708,-1.9708,-1.9708,-1.9708,-1.9744,-1.9782,-1.9711,-1.9747,1.5106,1.5986,1.6473,1.5752,1.5719,1.5727,1.5095,1.4822,0.0,0.0,0.0,0.0,0.0,1.6669,1.6637,0.0,0.0,0.0,0.0,0.0,0.0,0.0,0.0,0.0,0.0,0.0,0.0,0.0,0.0,0.0,0.0,0.0,0.0,-0.3609,-0.4168,-0.4952,-0.5963,-0.6616,-0.714,-0.756,-0.8645,-0.942,-0.9912,-1.1282,-1.2134,0.0,0.0,-1.3242,-1.3409,-1.386,-1.4455,-1.5131,-1.5534,-1.602,-1.65,-1.66,-1.6647,-1.6798,-1.784,-1.8857,-1.9698,-1.9773,-1.9798,-1.9798,-1.9798,-1.9888,-1.9965,-1.9965,-1.9901,-1.9837,-1.9926,-1.9965,-2.0016,-2.0105,-2.0131,-2.0144,-2.0156,-2.0585,-2.0993,-2.0993,-2.1846,-2.2372,-2.1786,-2.1626,-2.1382,-2.0908,-2.0255,-1.9932,-2.0127,-2.0067,-2.0052,-2.0157,-2.0067,-1.9977,-1.9854,-1.9839,-1.9813,-1.9708,-1.9708,-1.9708,-1.9708,-1.9708,-1.9708,-1.9708,-1.9708,-1.9708,-1.9708,-1.9708,-1.9854,-2.012,-1.9836,-2.003,1.3896,1.4833,1.5485,1.5078,1.5729,1.6334,1.5934,1.5505,0.0,0.0,0.0,0.0,0.0,0.0,1.642,0.0,0.0,0.0,0.0,0.0,0.0,0.0,0.0,0.0,0.0,0.0,0.0,0.0,0.0,0.0,0.0,0.0,0.0,0.0,-0.3913,-0.4661,-0.5787,-0.6145,-0.6698,-0.7468,-0.8294,-0.8981,-0.9571,-1.0656,-1.1587,-1.2341,0.0,-1.3148,-1.342,-1.3671,-1.4152,-1.4766,-1.5232,-1.5712,-1.6188,-1.6773,-1.734,-1.7879,-1.8129,-1.8907,-1.9761,-1.9447,-1.9434,-1.9535,-1.9812,-1.9788,-1.9748,-2.0029,-2.0042,-2.0016,-2.008,-2.0105,-2.0105,-2.0182,-2.0207,-2.0233,-2.0347,-2.0772,-2.114,-2.1202,-2.1837,-2.2267,-2.1859,-2.1507,-2.1143,-2.0755,-2.0124,-1.9842,-2.0183,-1.9914,-1.9842,-2.0198,-1.9932,-1.9708,-1.9708,-1.9708,-1.9708,-1.9708,-1.9708,-1.9708,-1.9708,-1.9708,-1.9708,-1.9708,-1.9708,-1.9708,-1.9708,-1.9708,-1.9782,-1.9927,-1.9764,-1.9977,1.2801,1.3882,1.4736,1.4825,0.0,1.6465,1.6466,1.5908,0.0,0.0,0.0,0.0,0.0,1.642,0.0,0.0,0.0,0.0,0.0,0.0,0.0,0.0,0.0,0.0,0.0,0.0,0.0,0.0,0.0,0.0,0.0,0.0,0.0,0.0,-0.3682,-0.4469,-0.5728,-0.591,-0.6501,-0.7502,-0.8049,-0.8663,-0.9337,-1.0143,-1.1133,-1.2168,-1.2629,-1.3058,-1.3443,-1.3443,-1.3894,-1.4605,-1.4971,-1.5457,-1.6069,-1.69,-1.7802,-1.8556,-1.8154,-1.8631,-1.9359,-1.8945,-1.8905,-1.9116,-1.9649,-1.9544,-1.9359,-1.9899,-1.9963,-1.9949,-2.0219,-2.0258,-2.0296,-2.0309,-2.041,-2.0536,-2.0674,-2.1177,-2.1647,-2.1732,-2.2142,-2.2366,-2.2127,-2.1528,-2.1002,-2.0735,-2.0124,-1.9902,-2.0408,-2.0019,-1.9884,-2.0423,-2.0004,-1.9708,-1.9708,-1.9708,-1.9708,-1.9708,-1.9708,-1.9708,-1.9708,-1.9708,-1.9708,-1.9708,-1.9782,-1.9818,-1.9818,-1.9907,-1.996,-1.996,-1.9871,-1.9997,1.2513,1.3687,1.4786,1.5233,1.5113,0.0,1.5408,1.5116,0.0,1.5758,0.0,0.0,0.0,0.0,0.0,0.0,0.0,0.0,0.0,0.0,0.0,0.0,0.0,0.0,0.0,0.0,0.0,0.0,0.0,0.0,0.0,0.0,0.0,0.0,0.0,-0.429,-0.5512,-0.5846,-0.6501,-0.7502,-0.7855,-0.8464,-0.9328,-0.9999,-1.1049,-1.2307,-1.2708,-1.3173,-1.3597,-1.3597,-1.4152,-1.5062,-1.5085,-1.5657,-1.6457,-1.6538,-1.6974,-1.7524,-1.7473,-1.7827,-1.8317,-1.8279,-1.8349,-1.8568,-1.9103,-1.9019,-1.8874,-1.9468,-1.9318,-1.9207,-2.0214,-2.0486,-2.0511,-2.0624,-2.0997,-2.1326,-2.1326,-2.2109,-2.2777,-2.2799,-2.3179,-2.3314,-2.273,-2.2088,-2.1431,-2.0793,-2.0124,-1.9723,-1.9768,-1.9738,-1.9723,-1.9768,-1.9738,-1.9708,-1.9708,-1.9708,-1.9708,-1.9708,-1.9708,-1.9708,-1.9708,-1.9708,-1.9708,-1.9708,-2.0015,-2.0156,-2.0156,-2.0545,-2.0728,-2.0712,-2.0344,-2.0378,1.1714,1.3008,1.428,1.4622,1.4518,0.0,0.0,1.5569,1.5579,1.6102,1.6105,0.0,0.0,0.0,0.0,0.0,0.0,0.0,0.0,0.0,0.0,0.0,0.0,0.0,0.0,0.0,0.0,0.0,0.0,0.0,0.0,0.0,0.0,0.0,0.0,-0.4329,-0.5685,-0.5889,-0.6501,-0.7502,-0.7827,-0.8341,-0.901,-0.9603,-1.0488,-1.1591,-1.2252,-1.2772,-1.3183,-1.3473,-1.4012,-1.472,-1.5322,-1.5932,-1.65,-1.65,-1.6886,-1.7348,-1.7074,-1.7564,-1.8282,-1.7974,-1.7974,-1.819,-1.8731,-1.8629,-1.8429,-1.9001,-1.9034,-1.8979,-1.9412,-1.9493,-1.9679,-2.0404,-2.0698,-2.1029,-2.1683,-2.2397,-2.2889,-2.2889,-2.329,-2.3535,-2.3295,-2.2748,-2.2084,-2.1425,-2.0752,-2.0168,-1.9753,-1.9708,-1.9708,-1.9708,-1.9708,-1.9708,-1.9708,-1.9708,-1.9708,-1.9708,-1.9708,-1.9708,-1.9708,-1.9708,-1.9708,-1.9708,-1.9818,-1.9889,-1.9892,-2.0258,-2.0429,-2.0429,-2.0529,-2.0762,1.0795,1.2192,1.3556,1.3801,0.0,0.0,1.5426,1.56,1.5673,1.6136,1.6163,0.0,0.0,0.0,0.0,0.0,0.0,0.0,0.0,0.0,0.0,0.0,0.0,0.0,0.0,0.0,0.0,0.0,0.0,0.0,0.0,0.0,0.0,0.0,0.0,-0.4377,-0.5539,-0.5996,-0.6592,-0.7356,-0.7938,-0.8484,-0.897,-0.9489,-1.0299,-1.1287,-1.184,-1.24,-1.2925,-1.3245,-1.3884,-1.4697,-1.5478,-1.6086,-1.65,-1.65,-1.6773,-1.7084,-1.6793,-1.7226,-1.7819,-1.7536,-1.7518,-1.773,-1.8277,-1.8146,-1.7931,-1.8493,-1.8506,-1.8362,-1.8362,-1.8636,-1.9134,-2.0064,-2.0394,-2.0743,-2.1688,-2.242,-2.2889,-2.2889,-2.329,-2.3595,-2.3595,-2.2927,-2.2239,-2.1769,-2.0946,-2.0228,-1.9768,-1.9708,-1.9708,-1.9708,-1.9708,-1.9708,-1.9708,-1.9708,-1.9708,-1.9708,-1.9708,-1.9708,-1.9708,-1.9708,-1.9708,-1.9708,-1.98,-1.9871,-1.9871,-2.0224,-2.0311,-2.0208,-2.0613,-2.0844,0.9843,1.1217,1.2641,0.0,0.0,0.0,1.5039,1.5006,1.5005,1.5751,0.0,1.6046,1.5894,0.0,0.0,0.0,0.0,0.0,0.0,0.0,0.0,0.0,0.0,0.0,0.0,0.0,0.0,0.0,0.0,0.0,0.0,0.0,0.0,0.0,0.0,0.0,-0.4985,-0.613,-0.681,-0.7021,-0.8157,-0.8918,-0.9319,-0.9794,-1.0577,-1.1581,-1.1591,-1.2078,-1.2894,-1.2917,-1.3779,-1.5153,-1.5623,-1.6086,-1.65,-1.65,-1.65,-1.6522,-1.6654,-1.6697,-1.6718,-1.6867,-1.6939,-1.7106,-1.7704,-1.757,-1.7316,-1.7917,-1.7656,-1.7199,-1.7199,-1.8048,-1.9041,-1.9643,-2.015,-2.0673,-2.1274,-2.2203,-2.2889,-2.2889,-2.329,-2.3595,-2.3595,-2.2547,-2.171,-2.1695,-2.0561,-1.9708,-1.9708,-1.9708,-1.9708,-1.9708,-1.9708,-1.9708,-1.9708,-1.9708,-1.9708,-1.9708,-1.9708,-1.9708,-1.9708,-1.9708,-1.9693,-1.9693,-2.0032,-2.0208,-2.0208,-2.0613,-2.0613,-2.0208,-2.0629,-2.0613,1.0382,1.1255,0.0,1.3355,0.0,0.0,0.0,1.4915,0.0,0.0,0.0,1.44,0.0,0.0,0.0,0.0,0.0,0.0,0.0,0.0,0.0,0.0,0.0,0.0,0.0,0.0,0.0,0.0,0.0,0.0,0.0,0.0,0.0,0.0,0.0,0.0,-0.5205,-0.6209,-0.6894,-0.7286,-0.8247,-0.8886,-0.9257,-0.9754,-1.0273,-1.0794,-1.1346,-1.1829,-1.2309,-1.3732,-1.4757,-1.5524,-1.6272,-1.665,-1.6791,-1.6791,-1.6791,-1.6791,-1.6876,-1.6897,-1.6918,-1.7086,-1.7115,-1.7162,-1.7353,-1.7308,-1.7238,-1.7421,-1.7342,-1.7199,-1.7199,-1.7447,-1.7938,-1.8878,-1.9525,-2.0188,-2.112,-2.1856,-2.2443,-2.2822,-2.3001,-2.3224,-2.353,-2.2921,-2.2239,-2.1769,-2.0961,-2.0228,-1.9768,-1.9708,-1.9708,-1.9708,-1.9708,-1.9708,-1.9708,-1.9708,-1.9708,-1.9708,-1.9708,-1.9708,-1.9708,-1.9927,-2.005,-2.005,-2.0444,-2.0629,-2.0629,-2.099,-2.1103,-2.099,-2.134,-2.1432,1.0095,1.0777,0.0,1.303,1.3366,1.3511,1.4096,0.0,0.0,0.0,0.0,0.0,0.0,0.0,0.0,0.0,0.0,0.0,0.0,0.0,0.0,0.0,0.0,0.0,0.0,0.0,0.0,0.0,0.0,0.0,0.0,0.0,0.0,0.0,0.0,0.0,-0.52,-0.6374,-0.7098,-0.7454,-0.837,-0.9016,-0.9406,-0.9823,-1.0147,-1.0448,-1.1344,-1.1939,-1.2407,-1.3941,-1.4985,-1.568,-1.6324,-1.6714,-1.6897,-1.6897,-1.6897,-1.6897,-1.6981,-1.7002,-1.7023,-1.7157,-1.7199,-1.7199,-1.7199,-1.7199,-1.7199,-1.7199,-1.7199,-1.7199,-1.7199,-1.7199,-1.7426,-1.8305,-1.8797,-1.9413,-2.0697,-2.1382,-2.1937,-2.2401,-2.2681,-2.2825,-2.285,-2.2323,-2.1754,-2.1365,-2.0737,-2.0154,-1.9753,-1.9708,-1.9708,-1.9708,-1.9708,-1.9708,-1.9708,-1.9708,-1.9708,-1.9708,-1.9818,-1.9892,-1.9892,-1.9962,-1.9997,-1.9997,-2.0361,-2.0562,-2.0562,-2.0909,-2.1103,-2.1103,-2.1449,-2.1602,0.9384,0.996,0.0,1.2155,1.2826,0.0,1.3076,1.3553,1.3753,1.2964,0.0,0.0,0.0,0.0,0.0,0.0,0.0,0.0,0.0,0.0,0.0,0.0,0.0,0.0,0.0,0.0,0.0,0.0,0.0,0.0,0.0,0.0,0.0,0.0,0.0,0.0,-0.5101,-0.6552,-0.7356,0.0,-0.8521,-0.9243,-0.9709,-0.9881,-1.0127,-1.0438,-1.1441,-1.2237,-1.2909,-1.3754,-1.4686,-1.563,-1.5993,-1.6463,-1.6918,-1.6918,-1.6918,-1.6939,-1.7002,-1.7023,-1.7044,-1.7157,-1.7199,-1.7199,-1.7199,-1.7199,-1.7199,-1.7199,-1.7199,-1.7199,-1.7199,-1.7199,-1.7342,-1.7891,-1.8061,-1.8495,-1.997,-2.073,-2.1278,-2.1672,-2.2172,-2.2357,-2.1799,-2.1137,-2.0673,-2.0613,-2.0094,-1.9708,-1.9708,-1.9708,-1.9708,-1.9708,-1.9708,-1.9708,-1.9708,-1.9708,-1.9708,-1.9708,-1.998,-2.0156,-2.0156,-1.996,-1.9836,-1.9836,-2.0174,-2.0345,-2.0345,-2.0697,-2.0893,-2.0909,-2.1198,-2.134,0.9894,0.973,0.0,0.0,1.2581,1.3075,1.2968,1.3052,1.2949,0.0,0.0,0.0,0.0,0.0,0.0,0.0,0.0,0.0,0.0,0.0,0.0,0.0,0.0,0.0,0.0,0.0,0.0,0.0,0.0,0.0,0.0,0.0,0.0,0.0,0.0,-0.3767,-0.5079,-0.6552,-0.7356,0.0,-0.8521,-0.9272,-0.978,-0.9672,-0.9893,-1.0438,-1.1248,-1.1896,-1.2518,-1.3625,-1.4632,-1.5519,-1.6278,-1.6795,-1.7136,-1.7136,-1.7136,-1.7136,-1.7157,-1.7157,-1.7157,-1.7199,-1.7199,-1.7199,-1.7199,-1.7199,-1.7199,-1.7199,-1.7199,-1.7199,-1.7199,-1.7199,-1.7238,-1.7356,-1.7761,-1.8175,-1.8534,-1.9333,-2.0111,-2.0563,-2.1003,-2.1383,-2.165,-2.1137,-2.0509,-1.9989,-1.9798,-1.9708,-1.9708,-1.9708,-1.9708,-1.9708,-1.9708,-1.9708,-1.9708,-1.9708,-1.9708,-1.9708,-1.9764,-1.98,-1.98,-2.0562,-2.0958,-2.0958,-2.1292,-2.1462,-2.1462,-2.1539,-2.1586,-2.1586,-2.1646,-2.1721,0.9373,0.0,0.0,1.0774,0.0,1.2413,1.2155,1.2018,1.1829,0.0,0.0,0.0,0.0,0.0,0.0,0.0,0.0,0.0,0.0,0.0,0.0,0.0,0.0,0.0,0.0,0.0,0.0,0.0,0.0,0.0,0.0,0.0,0.0,0.0,-0.2509,-0.3679,-0.494,-0.6383,-0.7301,-0.7697,-0.8419,-0.9122,-0.982,-1.0349,-1.0899,-1.1439,-1.2088,-1.2722,-1.3346,-1.3885,-1.4641,-1.552,-1.5927,-1.6439,-1.6955,-1.6955,-1.706,-1.7199,-1.7199,-1.7199,-1.7199,-1.7199,-1.7199,-1.7199,-1.7199,-1.7199,-1.7199,-1.7199,-1.7199,-1.7199,-1.7199,-1.7199,-1.7199,-1.7199,-1.7581,-1.8097,-1.8598,-1.93,-1.9964,-2.0417,-2.0653,-2.0804,-2.0744,-2.0438,-2.0094,-1.9753,-1.9708,-1.9708,-1.9708,-1.9708,-1.9708,-1.9708,-1.9708,-1.9708,-1.9708,-1.9708,-1.9708,-1.9708,-1.9854,-1.9945,-1.9945,-2.0828,-2.1119,-2.0779,-2.1293,-2.1587,-2.1601,-2.1766,-2.1869,-2.1899,-2.1899,-2.1911,0.8499,0.0,0.9232,1.0031,1.0853,0.0,1.1379,1.1146,0.0,0.0,0.0,0.0,0.0,0.0,0.0,0.0,0.0,0.0,0.0,0.0,0.0,0.0,0.0,0.0,0.0,0.0,0.0,0.0,0.0,0.0,0.0,0.0,0.0665,-0.1058,-0.2573,-0.3785,-0.4721,-0.6082,-0.7093,-0.7726,-0.8363,-0.908,-0.991,-1.1241,-1.2068,-1.2404,-1.293,-1.3562,-1.4203,-1.4178,-1.472,-1.5566,-1.555,-1.6053,-1.6786,-1.6786,-1.6955,-1.7199,-1.7199,-1.7199,-1.7199,-1.7199,-1.7199,-1.7199,-1.7199,-1.7199,-1.7199,-1.7199,-1.7199,-1.7199,-1.7199,-1.7199,-1.7199,-1.7199,-1.7578,-1.8145,-1.8946,-1.9555,-2.0036,-2.0357,-2.0486,-2.0363,-1.9813,-1.9708,-1.9708,-1.9708,-1.9708,-1.9708,-1.9708,-1.9708,-1.9708,-1.9708,-1.9708,-1.9708,-1.9708,-1.9708,-1.9708,-1.9708,-1.9962,-2.0104,-2.0104,-2.0812,-2.0926,-2.0328,-2.1023,-2.1449,-2.1493,-2.1779,-2.194,-2.2013,-2.2013,-2.2013,0.0,0.0,0.9282,0.0,1.0051,1.0542,0.0,0.0,0.0,0.0,0.0,0.0,0.0,0.0,0.0,0.0,0.0,0.0,0.0,0.0,0.0,0.0,0.0,0.0,0.0,0.0,0.0,0.0,0.0,0.0,0.0,0.2742,0.0982,-0.0716,-0.2308,-0.3561,-0.4442,-0.5674,-0.6509,-0.6966,-0.8582,-0.962,-1.0098,-1.1516,-1.2061,-1.1932,-1.2404,-1.2932,-1.3491,-1.4121,-1.4787,-1.5466,-1.5917,-1.6523,-1.7136,-1.7136,-1.7157,-1.7199,-1.7199,-1.7199,-1.7199,-1.7199,-1.7199,-1.7199,-1.7199,-1.7199,-1.7199,-1.7199,-1.7199,-1.7199,-1.7199,-1.7199,-1.7199,-1.7199,-1.7808,-1.8333,-1.8078,-1.8666,-1.9251,-1.9307,-1.9605,-1.9813,-1.9723,-1.9708,-1.9708,-1.9708,-1.9708,-1.9708,-1.9708,-1.9708,-1.9708,-1.9708,-1.9708,-1.9708,-1.9708,-1.9708,-1.9708,-1.9708,-1.9729,-1.9764,-1.9764,-2.0478,-2.0844,-2.0812,-2.1461,-2.1853,-2.1926,-2.1953,-2.1998,-2.2013,-2.2013,-2.2058,0.7187,0.8133,0.8817,0.0,0.9581,1.0244,1.1158,0.0,0.0,0.0,0.0,0.0,0.0,0.0,0.0,0.0,0.0,0.0,0.0,0.0,0.0,0.0,0.0,0.0,0.0,0.0,0.0,0.0,0.0,0.0,0.5112,0.3094,0.1173,-0.0544,-0.2105,-0.3348,-0.4219,-0.521,-0.6127,-0.6985,-0.8035,-0.8855,-0.9442,-1.0062,-1.113,-1.2505,-1.3254,-1.3862,-1.43,-1.4364,-1.473,-1.5257,-1.5425,-1.5948,-1.665,-1.685,-1.7052,-1.7199,-1.7199,-1.7199,-1.7199,-1.7199,-1.7199,-1.7199,-1.7199,-1.7199,-1.7199,-1.7199,-1.7199,-1.7199,-1.7199,-1.7372,-1.7537,-1.7537,-1.8206,-1.8784,-1.8572,-1.9011,-1.9435,-1.9435,-1.9581,-1.9708,-1.9708,-1.9708,-1.9708,-1.9708,-1.9708,-1.9708,-1.9708,-1.9708,-1.9708,-1.9708,-1.9708,-1.9708,-1.9708,-1.9708,-1.9708,-1.9708,-1.9708,-1.9726,-1.9744,-2.0427,-2.0877,-2.1007,-2.1598,-2.1957,-2.2106,-2.2106,-2.2135,-2.2178,-2.2178,-2.2209,0.0,0.0,0.8229,0.8521,0.9197,0.9987,0.0,0.0,0.0,0.0,0.0,0.0,0.0,0.0,0.0,0.0,0.0,0.0,0.0,0.0,0.0,0.0,0.0,0.0,0.0,0.0,0.0,0.0,0.0,0.0,0.5558,0.3282,0.1295,-0.023,-0.1966,-0.3242,-0.3989,-0.4904,-0.5934,-0.705,-0.7497,-0.8096,-0.883,-0.893,-1.0215,-1.2404,-1.344,-1.4349,-1.5073,-1.4718,-1.4831,-1.522,-1.5229,-1.5691,-1.6383,-1.6701,-1.6976,-1.7199,-1.7199,-1.7199,-1.7199,-1.7199,-1.7199,-1.7199,-1.7199,-1.7199,-1.7199,-1.7199,-1.7199,-1.7199,-1.7199,-1.7413,-1.7659,-1.7659,-1.8226,-1.886,-1.9195,-1.949,-1.9708,-1.9708,-1.9708,-1.9708,-1.9708,-1.9708,-1.9708,-1.9708,-1.9708,-1.9708,-1.9708,-1.9708,-1.9708,-1.9708,-1.9708,-1.9708,-1.9708,-1.9708,-1.9708,-1.9726,-1.98,-1.9892,-1.9977,-2.0614,-2.1071,-2.1212,-2.172,-2.2063,-2.2228,-2.2228,-2.224,-2.2296,-2.2296,-2.2296,0.0,0.7224,0.0,0.8435,0.8916,0.0,0.0,0.0,0.0,0.0,0.0,0.0,0.0,0.0,0.0,0.0,0.0,0.0,0.0,0.0,0.0,0.0,0.0,0.0,0.0,0.0,0.0,0.0,0.0,0.0,0.5842,0.3192,0.1303,0.038,-0.1879,-0.329,-0.3714,-0.495,-0.6027,-0.6916,-0.7256,-0.7837,-0.863,-0.9022,-0.9669,-1.0622,-1.1921,-1.3488,-1.5108,-1.5073,-1.5266,-1.5613,-1.5976,-1.6346,-1.671,-1.7039,-1.7199,-1.7199,-1.7199,-1.7199,-1.7199,-1.7199,-1.7199,-1.7199,-1.7199,-1.7199,-1.7199,-1.7199,-1.7199,-1.7199,-1.7199,-1.722,-1.724,-1.724,-1.7557,-1.8193,-1.942,-1.969,-1.9708,-1.9708,-1.9708,-1.9708,-1.9708,-1.9708,-1.9708,-1.9708,-1.9708,-1.9708,-1.9708,-1.9708,-1.9708,-1.9708,-1.9708,-1.9708,-1.9708,-1.9708,-1.9726,-1.978,-2.0087,-2.033,-2.0464,-2.1118,-2.1492,-2.1567,-2.1976,-2.2211,-2.2296,-2.2296,-2.2296,-2.2296,-2.2296,-2.2296,0.0,0.0,0.0,0.7904,0.8501,0.9316,0.0,0.0,0.0,0.0,0.0,0.0,0.0,0.0,0.0,0.0,0.0,0.0,0.0,0.0,0.0,0.0,0.0,0.0,0.0,0.0,0.0,0.0,0.0,0.0,0.7736,0.4175,0.194,0.1505,-0.1656,-0.3649,-0.4274,-0.5115,-0.5792,-0.6332,-0.6664,-0.7069,-0.7517,-0.7927,-0.88,-1.004,-1.0574,-1.2067,-1.4167,-1.4565,-1.4932,-1.53,-1.5657,-1.5879,-1.6064,-1.6646,-1.6871,-1.6913,-1.7136,-1.7199,-1.7199,-1.7199,-1.7199,-1.7199,-1.7199,-1.7199,-1.7199,-1.7199,-1.7199,-1.7199,-1.7199,-1.7393,-1.77,-1.8108,-1.8442,-1.8822,-1.9439,-1.946,-1.9479,-1.983,-1.9815,-1.9762,-1.9762,-1.9726,-1.9708,-1.9762,-1.9726,-1.9726,-1.9762,-1.9726,-1.9708,-1.9708,-1.9744,-1.9744,-1.9708,-1.9815,-1.9866,-1.9797,-1.9977,-2.0152,-2.0241,-2.0845,-2.126,-2.14,-2.1932,-2.2225,-2.2296,-2.2296,-2.2296,-2.2296,-2.2296,-2.2296,0.4199,0.0,0.0,0.0,0.0,0.8863,0.0,0.0,0.0,0.0,0.0,0.0,0.0,0.0,0.0,0.0,0.0,0.0,0.0,0.0,0.0,0.0,0.0,0.0,0.0,0.0,0.0,0.0,0.0,0.0,0.8823,0.4859,0.1903,0.0471,-0.2259,-0.4,-0.4602,-0.5106,-0.5578,-0.6006,-0.6337,-0.6658,-0.6975,-0.7362,-0.8163,-0.9245,-0.9584,-1.1145,-1.3486,-1.4069,-1.4559,-1.5,-1.5487,-1.5669,-1.5736,-1.6315,-1.6595,-1.6731,-1.6955,-1.7115,-1.7199,-1.7199,-1.7199,-1.722,-1.7282,-1.7303,-1.7323,-1.7406,-1.7365,-1.7323,-1.7406,-1.77,-1.8068,-1.8519,-1.8789,-1.9053,-1.9406,-1.9406,-1.9442,-1.9902,-1.9919,-1.9866,-1.9866,-1.983,-1.9797,-1.9797,-1.9797,-1.9797,-1.9797,-1.9797,-1.9797,-1.9797,-1.9848,-1.9848,-1.9797,-2.0028,-2.015,-2.0065,-2.0361,-2.058,-2.068,-2.1166,-2.1508,-2.1615,-2.2036,-2.2271,-2.2296,-2.2296,-2.2296,-2.2296,-2.2296,-2.2296,0.0,0.0,0.0,0.0,0.0,0.0,0.0,0.0,0.0,0.0,0.0,0.0,0.0,0.0,0.0,0.0,0.0,0.0,0.0,0.0,0.0,0.0,0.0,0.0,0.0,0.0,0.0,0.0,0.0,0.8732,0.8948,0.5124,0.1165,-0.2698,-0.3677,-0.4285,-0.4628,-0.4957,-0.5414,-0.6013,-0.6353,-0.6718,-0.711,-0.7442,-0.7782,-0.8144,-0.9005,-1.0753,-1.3049,-1.3619,-1.4178,-1.4773,-1.5499,-1.578,-1.5836,-1.61,-1.6436,-1.671,-1.6731,-1.6955,-1.722,-1.722,-1.722,-1.7261,-1.7455,-1.7516,-1.757,-1.7828,-1.7713,-1.757,-1.7828,-1.8095,-1.8299,-1.8299,-1.8505,-1.8855,-1.9387,-1.9497,-1.9603,-1.9937,-2.0005,-1.999,-1.999,-2.0005,-1.9955,-1.983,-1.9919,-1.9937,-1.983,-1.9919,-2.0005,-2.0005,-2.0005,-2.0005,-2.0005,-2.0308,-2.0514,-2.0597,-2.1213,-2.1628,-2.1766,-2.2123,-2.2282,-2.2282,-2.2296,-2.2296,-2.2296,-2.2296,-2.2296,-2.2296,-2.2296,-2.2296,0.2627,0.0,0.0,0.0,0.0,0.0,0.0,0.0,0.0,0.0,0.0,0.0,0.0,0.0,0.0,0.0,0.0,0.0,0.0,0.0,0.0,0.0,0.0,0.0,0.0,0.0,0.0,0.0,0.9555,0.9818,1.0452,0.6034,0.2144,-0.0784,-0.3451,-0.4957,-0.5255,-0.5491,-0.5804,-0.6214,-0.656,-0.6803,-0.696,-0.7362,-0.7705,-0.8046,-0.8592,-0.9541,-1.0826,-1.2295,-1.3604,-1.4726,-1.4922,-1.5432,-1.6061,-1.6445,-1.6795,-1.718,-1.7455,-1.7625,-1.772,-1.772,-1.772,-1.772,-1.7767,-1.7788,-1.7808,-1.7882,-1.7862,-1.7808,-1.7882,-1.8049,-1.8228,-1.8228,-1.8533,-1.894,-1.9343,-1.9584,-1.9821,-2.0148,-2.0148,-2.0063,-2.0063,-2.0025,-1.999,-2.0028,-2.0008,-1.999,-2.0028,-2.0008,-2.0005,-2.0005,-2.0028,-2.0045,-1.999,-2.0218,-2.0427,-2.0597,-2.0861,-2.115,-2.1432,-2.1751,-2.1947,-2.1947,-2.218,-2.2296,-2.2296,-2.2296,-2.2296,-2.2296,-2.2296,-2.2296,0.2043,0.2738,0.0,0.0,0.0,0.0,0.0,0.7942,0.0,0.0,0.0,0.0,0.0,0.0,0.0,0.0,0.0,0.0,0.0,0.0,0.0,0.0,0.0,0.0,0.0,0.0,0.0,0.0,0.997,0.9919,0.9769,0.5833,0.2493,0.0141,-0.3407,-0.532,-0.5419,-0.5671,-0.592,-0.6129,-0.6612,-0.6893,-0.699,-0.7377,-0.7695,-0.7988,-0.8322,-0.8933,-0.9769,-1.0893,-1.2495,-1.4236,-1.4624,-1.5236,-1.5976,-1.6312,-1.6697,-1.7118,-1.7516,-1.7754,-1.7902,-1.7902,-1.7902,-1.7922,-1.8003,-1.8023,-1.8043,-1.8123,-1.8143,-1.8123,-1.8043,-1.8268,-1.8542,-1.8678,-1.8993,-1.9369,-1.9708,-1.9904,-2.0065,-2.027,-2.0252,-2.0185,-2.0185,-2.0148,-2.0113,-2.01,-2.0098,-2.0113,-2.01,-2.0098,-2.0146,-2.0146,-2.015,-2.0183,-2.0146,-2.0373,-2.0561,-2.0679,-2.1023,-2.1292,-2.1493,-2.1827,-2.2005,-2.2005,-2.2194,-2.2296,-2.2296,-2.2296,-2.2296,-2.2296,-2.2296,-2.2296,0.1764,0.2015,0.0,0.0,0.0,0.0,0.5443,0.6346,0.0,0.0,0.0,0.0,0.0,0.0,0.0,0.0,0.0,0.0,0.0,0.0,0.0,0.0,0.0,0.0,0.0,1.0238,1.0097,1.0287,1.0236,0.9667,0.8423,0.551,0.2878,0.0682,-0.3042,-0.5155,-0.5444,-0.5733,-0.5928,-0.6021,-0.6619,-0.699,-0.7154,-0.7456,-0.7695,-0.7912,-0.8195,-0.8728,-0.9444,-0.9708,-1.1237,-1.3486,-1.4317,-1.5081,-1.573,-1.5966,-1.6378,-1.6879,-1.7229,-1.7605,-1.7963,-1.7963,-1.7963,-1.8003,-1.8183,-1.8242,-1.8282,-1.8459,-1.8498,-1.8459,-1.8282,-1.8528,-1.8931,-1.9228,-1.953,-1.9839,-2.0148,-2.0252,-2.0304,-2.0304,-2.0304,-2.0304,-2.0304,-2.0304,-2.027,-2.015,-2.022,-2.027,-2.015,-2.022,-2.0304,-2.0304,-2.0304,-2.0321,-2.0356,-2.0628,-2.0827,-2.0909,-2.1479,-2.1827,-2.1857,-2.2152,-2.2296,-2.2296,-2.2296,-2.2296,-2.2296,-2.2296,-2.2296,-2.2296,-2.2296,-2.2296,0.1065,0.14,0.1818,0.2235,0.0,0.0,0.436,0.4994,0.561,0.0,0.0,0.0,0.0,0.0,0.0,0.0,0.0,0.0,0.0,0.0,0.0,0.0,0.0,0.0,0.0,1.1043,1.0623,1.025,1.0644,1.0987,1.1194,0.8492,0.5592,0.2645,-0.0379,-0.3399,-0.6404,-0.639,-0.6475,-0.671,-0.6882,-0.7131,-0.7431,-0.748,-0.7661,-0.7927,-0.8241,-0.8563,-0.8923,-0.9658,-1.1101,-1.286,-1.3059,-1.4167,-1.5711,-1.5761,-1.6543,-1.7605,-1.7686,-1.8002,-1.838,-1.838,-1.838,-1.84,-1.8439,-1.8439,-1.8459,-1.8498,-1.8498,-1.8498,-1.8459,-1.8517,-1.8581,-1.8673,-1.9097,-1.9505,-1.956,-1.9955,-2.0304,-2.0304,-2.0304,-2.0304,-2.0304,-2.0304,-2.0287,-2.027,-2.0287,-2.0287,-2.027,-2.0287,-2.0304,-2.0304,-2.0304,-2.0407,-2.0678,-2.0761,-2.1023,-2.157,-2.1738,-2.1915,-2.2194,-2.2268,-2.2296,-2.2296,-2.2296,-2.2296,-2.2296,-2.2296,-2.2296,-2.2296,-2.2296,-2.2296,0.0757,0.0981,0.1204,0.1484,0.0,0.0,0.0,0.3693,0.4361,0.5268,0.0,0.0,0.0,0.0,0.0,0.0,0.0,0.0,0.0,0.0,0.0,0.0,0.0,0.0,0.0,1.245,1.2216,1.1923,1.1749,1.1881,1.242,0.9337,0.6001,0.2608,-0.0354,-0.358,-0.7104,-0.7045,-0.6944,-0.6846,-0.6957,-0.7151,-0.7451,-0.7525,-0.7661,-0.7855,-0.8134,-0.8389,-0.8639,-0.915,-1.029,-1.1811,-1.244,-1.3648,-1.5031,-1.5226,-1.6067,-1.7116,-1.7335,-1.7887,-1.8498,-1.8498,-1.8498,-1.8498,-1.8498,-1.8498,-1.8498,-1.8498,-1.8498,-1.8498,-1.8498,-1.8498,-1.8537,-1.8678,-1.8931,-1.9195,-1.9358,-1.9744,-2.0048,-2.0048,-2.0185,-2.0304,-2.0304,-2.0304,-2.0304,-2.0304,-2.0304,-2.0304,-2.0304,-2.0304,-2.0304,-2.0304,-2.0304,-2.0373,-2.0543,-2.0544,-2.0778,-2.1277,-2.1463,-2.1706,-2.2034,-2.2209,-2.2296,-2.2296,-2.2296,-2.2296,-2.2296,-2.2296,-2.2296,-2.2296,-2.2296,-2.2296,0.0,0.0,0.0,0.0,0.0,0.1081,0.0,0.0,0.0,0.3989,0.0,0.0,0.0,0.0,0.0,0.0,0.0,0.0,0.0,0.0,0.0,0.0,0.0,0.0,0.0,1.3585,1.36,1.3641,1.2868,1.2652,1.3229,1.0384,0.7055,0.3424,0.0097,-0.3219,-0.6546,-0.7323,-0.7476,-0.7048,-0.7068,-0.722,-0.7471,-0.7622,-0.7749,-0.7821,-0.8058,-0.8297,-0.8513,-0.8617,-0.9453,-1.0779,-1.1938,-1.3107,-1.4191,-1.458,-1.537,-1.6277,-1.6669,-1.7465,-1.8329,-1.8329,-1.84,-1.8498,-1.8498,-1.8498,-1.8498,-1.8498,-1.8498,-1.8498,-1.8498,-1.8498,-1.8542,-1.8779,-1.8874,-1.8988,-1.9339,-1.9621,-1.9823,-1.9892,-2.01,-2.0304,-2.0304,-2.0304,-2.0304,-2.0304,-2.0304,-2.0304,-2.0304,-2.0304,-2.0304,-2.0304,-2.0304,-2.0321,-2.039,-2.0407,-2.0544,-2.0876,-2.115,-2.1447,-2.1797,-2.2123,-2.2296,-2.2296,-2.2296,-2.2296,-2.2296,-2.2296,-2.2296,-2.2296,-2.2296,-2.2296,0.0,0.0,0.0,0.0,-0.0836,0.0,0.0,0.0,0.1244,0.213,0.0,0.0,0.0,0.0,0.0,0.0,0.0,0.0,0.0,0.0,0.0,0.0,0.0,0.0,0.0,0.0,1.3337,1.3748,1.3345,1.351,1.4523,1.4119,1.2173,0.8497,0.4396,0.0597,-0.2869,-0.6545,-0.8251,-0.7957,-0.7549,-0.747,-0.7681,-0.7922,-0.7984,-0.7912,-0.8227,-0.8407,-0.8499,-0.8527,-0.9189,-1.025,-1.0992,-1.2222,-1.3634,-1.3982,-1.4743,-1.5648,-1.5989,-1.6821,-1.7702,-1.7702,-1.8049,-1.8498,-1.8498,-1.8498,-1.8498,-1.8498,-1.8498,-1.8498,-1.8498,-1.8498,-1.8517,-1.8537,-1.8736,-1.8988,-1.9339,-1.9621,-1.9892,-2.0185,-2.027,-2.0304,-2.0304,-2.0304,-2.0304,-2.0304,-2.0304,-2.0304,-2.0304,-2.0304,-2.0304,-2.0304,-2.0304,-2.0424,-2.0712,-2.0745,-2.0893,-2.1229,-2.1292,-2.1447,-2.1797,-2.2123,-2.2296,-2.2296,-2.2296,-2.2296,-2.2296,-2.2296,-2.2296,-2.2296,-2.2296,-2.2296,0.0,0.0,0.0,0.0,0.0,0.0,-0.0576,0.0,-0.0077,0.0,0.0,0.0,0.0,0.0,0.0,0.0,0.0,0.0,0.0,0.0,0.0,0.0,0.0,0.0,0.0,0.0,0.0,0.0,0.0,1.4645,1.5293,1.5073,1.2972,0.8634,0.7088,0.3245,-0.3163,-0.4454,-0.6231,-0.8507,-0.7919,-0.7635,-0.7656,-0.7966,-0.8027,-0.7927,-0.8255,-0.8421,-0.8435,-0.8485,-0.9041,-0.9912,-1.0356,-1.1411,-1.274,-1.3205,-1.4118,-1.5162,-1.531,-1.6413,-1.7827,-1.8139,-1.8364,-1.8498,-1.8498,-1.8498,-1.8498,-1.8498,-1.8498,-1.8498,-1.8498,-1.8498,-1.8498,-1.8498,-1.8702,-1.8936,-1.9082,-1.9479,-1.9841,-1.998,-2.0168,-2.0304,-2.0304,-2.0304,-2.0304,-2.0304,-2.0304,-2.0304,-2.0304,-2.0304,-2.0304,-2.0304,-2.0304,-2.0356,-2.0494,-2.0509,-2.0729,-2.1276,-2.1661,-2.193,-2.2077,-2.224,-2.2296,-2.2296,-2.2296,-2.2296,-2.2296,-2.2296,-2.2296,-2.2296,-2.2296,-2.2296,-0.2545,0.0,0.0,0.0,0.0,0.0,0.0,0.0,0.0,0.0,0.0,0.0,0.0,0.0,0.0,0.0,0.0,0.0,0.0,0.0,0.0,0.0,0.0,0.0,0.0,0.0,0.0,0.0,0.0,0.0,1.6426,1.5883,1.3953,1.0469,0.9362,0.5248,-0.2208,-0.2524,-0.482,-0.9099,-0.8197,-0.7759,-0.7739,-0.8009,-0.8066,-0.797,-0.8294,-0.8435,-0.8463,-0.8502,-0.8921,-0.9574,-0.9962,-1.0765,-1.1779,-1.2564,-1.3459,-1.4345,-1.4691,-1.6031,-1.7751,-1.8494,-1.8659,-1.8581,-1.8581,-1.8581,-1.8581,-1.8581,-1.8581,-1.8581,-1.8581,-1.8581,-1.8581,-1.8581,-1.8716,-1.8874,-1.895,-1.9332,-1.9714,-1.9788,-2.0065,-2.0304,-2.0304,-2.0304,-2.0304,-2.0304,-2.0304,-2.0304,-2.0304,-2.0304,-2.0304,-2.0304,-2.0304,-2.0304,-2.0304,-2.0304,-2.0561,-2.1135,-2.1706,-2.2063,-2.2166,-2.2254,-2.2296,-2.2296,-2.2296,-2.2296,-2.2296,-2.2296,-2.2296,-2.2296,-2.2296,-2.2296,0.0,0.0,0.0,-0.3938,0.0,0.0,0.0,0.0,-0.2404,0.0,0.0,0.0,0.0,0.0,0.0,0.0,0.0,0.0,0.0,0.0,0.0,0.0,0.0,0.0,0.0,0.0,0.0,0.0,0.0,0.0,1.83,1.7293,1.6547,1.6333,1.1489,0.6616,0.1866,-0.125,-0.5169,-0.9853,-0.8395,-0.7836,-0.8095,-0.8162,-0.8162,-0.8109,-0.8375,-0.853,-0.8589,-0.8589,-0.8806,-0.9189,-0.9907,-1.0379,-1.0823,-1.2201,-1.2733,-1.2951,-1.4101,-1.5576,-1.7138,-1.8384,-1.8784,-1.8784,-1.8784,-1.8784,-1.8784,-1.8784,-1.8784,-1.8784,-1.8784,-1.8784,-1.8784,-1.8784,-1.8755,-1.8788,-1.9026,-1.925,-1.949,-1.9749,-2.0065,-2.0304,-2.0304,-2.0304,-2.0304,-2.0304,-2.0304,-2.0304,-2.0304,-2.0304,-2.0304,-2.0304,-2.0304,-2.0304,-2.0304,-2.0304,-2.0458,-2.0794,-2.1135,-2.1478,-2.1812,-2.2137,-2.2296,-2.2296,-2.2296,-2.2296,-2.2296,-2.2296,-2.2296,-2.2296,-2.2296,-2.2296,0.0,0.0,-0.388,-0.3975,0.0,0.0,0.0,0.0,0.0,0.0,0.0,0.0,0.0,0.0,0.0,0.0,0.0,0.0,0.0,0.0,0.0,0.0,0.0,0.0,0.0,0.0,0.0,0.0,0.0,0.0,0.0,1.7624,1.692,1.6416,1.4578,1.1248,0.6354,0.259,-0.1414,-0.5616,-0.7347,-0.8024,-0.7764,-0.7691,-0.7755,-0.7919,-0.8279,-0.8491,-0.8589,-0.8505,-0.8645,-0.8946,-0.9378,-0.9752,-1.0275,-1.1944,-1.271,-1.3127,-1.4734,-1.5885,-1.6828,-1.7916,-1.8511,-1.8803,-1.8803,-1.8803,-1.8803,-1.8803,-1.8803,-1.8803,-1.8803,-1.8803,-1.8803,-1.8803,-1.895,-1.9116,-1.9195,-1.9417,-1.9693,-2.0,-2.0083,-2.0166,-2.0392,-2.0426,-2.0392,-2.0304,-2.0304,-2.0304,-2.0304,-2.0304,-2.0304,-2.0304,-2.0304,-2.0304,-2.0304,-2.0712,-2.1007,-2.1119,-2.1646,-2.1915,-2.1796,-2.2123,-2.2296,-2.2296,-2.2296,-2.2296,-2.2296,-2.2296,-2.2296,-2.2296,-2.2296,-2.2296,-0.3955,-0.3938,0.0,-0.3984,-0.3865,0.0,-0.391,0.0,0.0,0.0,0.0,0.0,0.0,0.0,0.0,0.0,0.0,0.0,0.0,0.0,0.0,0.0,0.0,0.0,0.0,0.0,1.339,1.5549,0.0,0.0,0.0,0.0,1.6839,1.6246,1.5856,1.3265,0.8293,0.6061,0.2181,-0.3312,-0.502,-0.6397,-0.7421,-0.7179,-0.7348,-0.7813,-0.8048,-0.8344,-0.8662,-0.8578,-0.862,-0.8759,-0.9003,-0.9341,-0.9897,-1.1623,-1.2706,-1.351,-1.4905,-1.5675,-1.6232,-1.7466,-1.8094,-1.8446,-1.8788,-1.8898,-1.8898,-1.8898,-1.8898,-1.8898,-1.8898,-1.8898,-1.8898,-1.8898,-1.9124,-1.938,-1.938,-1.969,-2.0013,-2.0224,-2.0273,-2.034,-2.0578,-2.0544,-2.0477,-2.0375,-2.0357,-2.0357,-2.0357,-2.0321,-2.0304,-2.0304,-2.0304,-2.0304,-2.0304,-2.0696,-2.1055,-2.1276,-2.1706,-2.1945,-2.1991,-2.218,-2.2296,-2.2296,-2.2296,-2.2296,-2.2296,-2.2296,-2.2296,-2.2296,-2.2296,-2.2296]}]]